<?xml version="1.0" encoding="UTF-8" standalone="no" ?>
<gpx xmlns="http://www.topografix.com/GPX/1/1" xmlns:xsi="http://www.w3.org/2001/XMLSchema-instance" xsi:schemaLocation="http://www.topografix.com/GPX/1/1 http://www.topografix.com/GPX/1/1/gpx.xsd" version="1.1" creator="VisuGPX - https://www.visugpx.com">
  <metadata>
    <name>Randonnée depuis le centre de hem</name>
    <desc><![CDATA[Essai de randonnée à partir de la patlys de 2015, en partant de hem]]></desc>
  </metadata>
  <trk>
    <name><![CDATA[20180426170506-Tl2dS]]></name>
    <trkseg>
      <trkpt lat="50.64946" lon="3.1917">
        <ele>33</ele>
        <time>2015-04-26T07:26:31Z</time>
      </trkpt>
      <trkpt lat="50.64946" lon="3.1917">
        <ele>33</ele>
      </trkpt>
      <trkpt lat="50.64949" lon="3.19165">
        <ele>32</ele>
        <time>2015-04-26T07:26:32Z</time>
      </trkpt>
      <trkpt lat="50.64953" lon="3.19161">
        <ele>32</ele>
        <time>2015-04-26T07:26:33Z</time>
      </trkpt>
      <trkpt lat="50.64956" lon="3.19157">
        <ele>32</ele>
        <time>2015-04-26T07:26:34Z</time>
      </trkpt>
      <trkpt lat="50.64961" lon="3.19154">
        <ele>33</ele>
        <time>2015-04-26T07:26:35Z</time>
      </trkpt>
      <trkpt lat="50.64965" lon="3.19152">
        <ele>33</ele>
        <time>2015-04-26T07:26:36Z</time>
      </trkpt>
      <trkpt lat="50.6497" lon="3.19149">
        <ele>33</ele>
        <time>2015-04-26T07:26:37Z</time>
      </trkpt>
      <trkpt lat="50.6501" lon="3.19127">
        <ele>34</ele>
        <time>2015-04-26T07:26:46Z</time>
      </trkpt>
      <trkpt lat="50.65013" lon="3.19123">
        <ele>33</ele>
        <time>2015-04-26T07:26:47Z</time>
      </trkpt>
      <trkpt lat="50.65015" lon="3.19117">
        <ele>33</ele>
        <time>2015-04-26T07:26:48Z</time>
      </trkpt>
      <trkpt lat="50.65015" lon="3.19111">
        <ele>33</ele>
        <time>2015-04-26T07:26:49Z</time>
      </trkpt>
      <trkpt lat="50.65015" lon="3.19104">
        <ele>33</ele>
        <time>2015-04-26T07:26:50Z</time>
      </trkpt>
      <trkpt lat="50.65016" lon="3.19097">
        <ele>33</ele>
        <time>2015-04-26T07:26:51Z</time>
      </trkpt>
      <trkpt lat="50.65018" lon="3.19091">
        <ele>33</ele>
        <time>2015-04-26T07:26:52Z</time>
      </trkpt>
      <trkpt lat="50.6502" lon="3.19085">
        <ele>33</ele>
        <time>2015-04-26T07:26:53Z</time>
      </trkpt>
      <trkpt lat="50.65033" lon="3.19046">
        <ele>33</ele>
        <time>2015-04-26T07:26:59Z</time>
      </trkpt>
      <trkpt lat="50.65034" lon="3.1904">
        <ele>33</ele>
        <time>2015-04-26T07:27:00Z</time>
      </trkpt>
      <trkpt lat="50.65033" lon="3.19033">
        <ele>33</ele>
        <time>2015-04-26T07:27:01Z</time>
      </trkpt>
      <trkpt lat="50.65031" lon="3.19026">
        <ele>33</ele>
        <time>2015-04-26T07:27:02Z</time>
      </trkpt>
      <trkpt lat="50.65029" lon="3.1902">
        <ele>33</ele>
        <time>2015-04-26T07:27:03Z</time>
      </trkpt>
      <trkpt lat="50.65027" lon="3.19013">
        <ele>33</ele>
        <time>2015-04-26T07:27:04Z</time>
      </trkpt>
      <trkpt lat="50.65014" lon="3.18971">
        <ele>32</ele>
        <time>2015-04-26T07:27:10Z</time>
      </trkpt>
      <trkpt lat="50.65014" lon="3.18963">
        <ele>31</ele>
        <time>2015-04-26T07:27:11Z</time>
      </trkpt>
      <trkpt lat="50.65015" lon="3.18955">
        <ele>31</ele>
        <time>2015-04-26T07:27:12Z</time>
      </trkpt>
      <trkpt lat="50.65016" lon="3.18947">
        <ele>31</ele>
        <time>2015-04-26T07:27:13Z</time>
      </trkpt>
      <trkpt lat="50.65018" lon="3.18939">
        <ele>31</ele>
        <time>2015-04-26T07:27:14Z</time>
      </trkpt>
      <trkpt lat="50.6502" lon="3.18931">
        <ele>31</ele>
        <time>2015-04-26T07:27:15Z</time>
      </trkpt>
      <trkpt lat="50.65023" lon="3.18923">
        <ele>31</ele>
        <time>2015-04-26T07:27:16Z</time>
      </trkpt>
      <trkpt lat="50.65034" lon="3.1889">
        <ele>30</ele>
        <time>2015-04-26T07:27:20Z</time>
      </trkpt>
      <trkpt lat="50.65048" lon="3.1885">
        <ele>29</ele>
        <time>2015-04-26T07:27:25Z</time>
      </trkpt>
      <trkpt lat="50.6505" lon="3.18843">
        <ele>29</ele>
        <time>2015-04-26T07:27:26Z</time>
      </trkpt>
      <trkpt lat="50.65049" lon="3.18835">
        <ele>29</ele>
        <time>2015-04-26T07:27:27Z</time>
      </trkpt>
      <trkpt lat="50.65047" lon="3.18829">
        <ele>28</ele>
        <time>2015-04-26T07:27:28Z</time>
      </trkpt>
      <trkpt lat="50.65042" lon="3.18824">
        <ele>28</ele>
        <time>2015-04-26T07:27:29Z</time>
      </trkpt>
      <trkpt lat="50.65038" lon="3.18819">
        <ele>28</ele>
        <time>2015-04-26T07:27:30Z</time>
      </trkpt>
      <trkpt lat="50.64995" lon="3.18782">
        <ele>26</ele>
        <time>2015-04-26T07:27:38Z</time>
      </trkpt>
      <trkpt lat="50.64951" lon="3.18739">
        <ele>26</ele>
        <time>2015-04-26T07:27:46Z</time>
      </trkpt>
      <trkpt lat="50.64904" lon="3.1869">
        <ele>26</ele>
        <time>2015-04-26T07:27:55Z</time>
      </trkpt>
      <trkpt lat="50.649" lon="3.18683">
        <ele>26</ele>
        <time>2015-04-26T07:27:56Z</time>
      </trkpt>
      <trkpt lat="50.64897" lon="3.18674">
        <ele>26</ele>
        <time>2015-04-26T07:27:57Z</time>
      </trkpt>
      <trkpt lat="50.64896" lon="3.18666">
        <ele>25</ele>
        <time>2015-04-26T07:27:58Z</time>
      </trkpt>
      <trkpt lat="50.64895" lon="3.18657">
        <ele>25</ele>
        <time>2015-04-26T07:27:59Z</time>
      </trkpt>
      <trkpt lat="50.64896" lon="3.18648">
        <ele>25</ele>
        <time>2015-04-26T07:28:00Z</time>
      </trkpt>
      <trkpt lat="50.64897" lon="3.18639">
        <ele>25</ele>
        <time>2015-04-26T07:28:01Z</time>
      </trkpt>
      <trkpt lat="50.64907" lon="3.18539">
        <ele>24</ele>
        <time>2015-04-26T07:28:12Z</time>
      </trkpt>
      <trkpt lat="50.64911" lon="3.18495">
        <ele>24</ele>
        <time>2015-04-26T07:28:18Z</time>
      </trkpt>
      <trkpt lat="50.64907" lon="3.18479">
        <ele>23</ele>
        <time>2015-04-26T07:28:21Z</time>
      </trkpt>
      <trkpt lat="50.64904" lon="3.18476">
        <ele>23</ele>
        <time>2015-04-26T07:28:22Z</time>
      </trkpt>
      <trkpt lat="50.649" lon="3.18474">
        <ele>23</ele>
        <time>2015-04-26T07:28:23Z</time>
      </trkpt>
      <trkpt lat="50.64884" lon="3.18467">
        <ele>23</ele>
        <time>2015-04-26T07:28:27Z</time>
      </trkpt>
      <trkpt lat="50.64881" lon="3.18463">
        <ele>23</ele>
        <time>2015-04-26T07:28:28Z</time>
      </trkpt>
      <trkpt lat="50.64878" lon="3.18458">
        <ele>23</ele>
        <time>2015-04-26T07:28:29Z</time>
      </trkpt>
      <trkpt lat="50.64875" lon="3.18452">
        <ele>23</ele>
        <time>2015-04-26T07:28:30Z</time>
      </trkpt>
      <trkpt lat="50.64873" lon="3.18446">
        <ele>23</ele>
        <time>2015-04-26T07:28:31Z</time>
      </trkpt>
      <trkpt lat="50.64865" lon="3.18428">
        <ele>23</ele>
        <time>2015-04-26T07:28:34Z</time>
      </trkpt>
      <trkpt lat="50.64856" lon="3.18408">
        <ele>21</ele>
        <time>2015-04-26T07:28:37Z</time>
      </trkpt>
      <trkpt lat="50.64852" lon="3.18402">
        <ele>21</ele>
        <time>2015-04-26T07:28:38Z</time>
      </trkpt>
      <trkpt lat="50.64848" lon="3.18396">
        <ele>21</ele>
        <time>2015-04-26T07:28:39Z</time>
      </trkpt>
      <trkpt lat="50.64843" lon="3.1839">
        <ele>21</ele>
        <time>2015-04-26T07:28:40Z</time>
      </trkpt>
      <trkpt lat="50.64839" lon="3.18385">
        <ele>21</ele>
        <time>2015-04-26T07:28:41Z</time>
      </trkpt>
      <trkpt lat="50.64835" lon="3.18379">
        <ele>21</ele>
        <time>2015-04-26T07:28:42Z</time>
      </trkpt>
      <trkpt lat="50.64831" lon="3.18372">
        <ele>21</ele>
        <time>2015-04-26T07:28:43Z</time>
      </trkpt>
      <trkpt lat="50.6483" lon="3.18363">
        <ele>21</ele>
        <time>2015-04-26T07:28:44Z</time>
      </trkpt>
      <trkpt lat="50.6483" lon="3.18354">
        <ele>21</ele>
        <time>2015-04-26T07:28:45Z</time>
      </trkpt>
      <trkpt lat="50.64831" lon="3.18344">
        <ele>20</ele>
        <time>2015-04-26T07:28:46Z</time>
      </trkpt>
      <trkpt lat="50.64832" lon="3.18334">
        <ele>20</ele>
        <time>2015-04-26T07:28:47Z</time>
      </trkpt>
      <trkpt lat="50.64844" lon="3.18249">
        <ele>20</ele>
        <time>2015-04-26T07:28:56Z</time>
      </trkpt>
      <trkpt lat="50.64854" lon="3.18174">
        <ele>20</ele>
        <time>2015-04-26T07:29:04Z</time>
      </trkpt>
      <trkpt lat="50.64857" lon="3.18156">
        <ele>20</ele>
        <time>2015-04-26T07:29:06Z</time>
      </trkpt>
      <trkpt lat="50.6486" lon="3.18141">
        <ele>20</ele>
        <time>2015-04-26T07:29:08Z</time>
      </trkpt>
      <trkpt lat="50.64865" lon="3.18115">
        <ele>20</ele>
        <time>2015-04-26T07:29:13Z</time>
      </trkpt>
      <trkpt lat="50.64864" lon="3.18101">
        <ele>20</ele>
        <time>2015-04-26T07:29:17Z</time>
      </trkpt>
      <trkpt lat="50.64862" lon="3.181">
        <ele>20</ele>
        <time>2015-04-26T07:29:18Z</time>
      </trkpt>
      <trkpt lat="50.64858" lon="3.18101">
        <ele>20</ele>
        <time>2015-04-26T07:29:19Z</time>
      </trkpt>
      <trkpt lat="50.64854" lon="3.18102">
        <ele>20</ele>
        <time>2015-04-26T07:29:20Z</time>
      </trkpt>
      <trkpt lat="50.64849" lon="3.18103">
        <ele>20</ele>
        <time>2015-04-26T07:29:21Z</time>
      </trkpt>
      <trkpt lat="50.64821" lon="3.18112">
        <ele>20</ele>
        <time>2015-04-26T07:29:26Z</time>
      </trkpt>
      <trkpt lat="50.648" lon="3.18118">
        <ele>20</ele>
        <time>2015-04-26T07:29:30Z</time>
      </trkpt>
      <trkpt lat="50.6478" lon="3.18122">
        <ele>20</ele>
        <time>2015-04-26T07:29:34Z</time>
      </trkpt>
      <trkpt lat="50.64764" lon="3.18127">
        <ele>20</ele>
        <time>2015-04-26T07:29:37Z</time>
      </trkpt>
      <trkpt lat="50.64753" lon="3.18126">
        <ele>20</ele>
        <time>2015-04-26T07:29:39Z</time>
      </trkpt>
      <trkpt lat="50.64747" lon="3.18125">
        <ele>20</ele>
        <time>2015-04-26T07:29:40Z</time>
      </trkpt>
      <trkpt lat="50.64741" lon="3.18123">
        <ele>20</ele>
        <time>2015-04-26T07:29:41Z</time>
      </trkpt>
      <trkpt lat="50.64736" lon="3.18118">
        <ele>20</ele>
        <time>2015-04-26T07:29:42Z</time>
      </trkpt>
      <trkpt lat="50.64732" lon="3.18112">
        <ele>20</ele>
        <time>2015-04-26T07:29:43Z</time>
      </trkpt>
      <trkpt lat="50.64728" lon="3.18106">
        <ele>20</ele>
        <time>2015-04-26T07:29:44Z</time>
      </trkpt>
      <trkpt lat="50.64725" lon="3.18099">
        <ele>20</ele>
        <time>2015-04-26T07:29:45Z</time>
      </trkpt>
      <trkpt lat="50.64722" lon="3.18091">
        <ele>20</ele>
        <time>2015-04-26T07:29:46Z</time>
      </trkpt>
      <trkpt lat="50.64704" lon="3.18038">
        <ele>21</ele>
        <time>2015-04-26T07:29:53Z</time>
      </trkpt>
      <trkpt lat="50.64693" lon="3.18011">
        <ele>21</ele>
        <time>2015-04-26T07:29:57Z</time>
      </trkpt>
      <trkpt lat="50.6469" lon="3.18008">
        <ele>21</ele>
        <time>2015-04-26T07:29:58Z</time>
      </trkpt>
      <trkpt lat="50.6468" lon="3.18015">
        <ele>21</ele>
        <time>2015-04-26T07:30:01Z</time>
      </trkpt>
      <trkpt lat="50.64678" lon="3.18021">
        <ele>21</ele>
        <time>2015-04-26T07:30:02Z</time>
      </trkpt>
      <trkpt lat="50.64653" lon="3.1808">
        <ele>21</ele>
        <time>2015-04-26T07:30:11Z</time>
      </trkpt>
      <trkpt lat="50.64649" lon="3.18085">
        <ele>21</ele>
        <time>2015-04-26T07:30:12Z</time>
      </trkpt>
      <trkpt lat="50.64616" lon="3.18113">
        <ele>21</ele>
        <time>2015-04-26T07:30:19Z</time>
      </trkpt>
      <trkpt lat="50.64571" lon="3.18154">
        <ele>22</ele>
        <time>2015-04-26T07:30:28Z</time>
      </trkpt>
      <trkpt lat="50.64555" lon="3.18165">
        <ele>22</ele>
        <time>2015-04-26T07:30:31Z</time>
      </trkpt>
      <trkpt lat="50.64545" lon="3.18174">
        <ele>21</ele>
        <time>2015-04-26T07:30:33Z</time>
      </trkpt>
      <trkpt lat="50.64529" lon="3.18187">
        <ele>21</ele>
        <time>2015-04-26T07:30:36Z</time>
      </trkpt>
      <trkpt lat="50.64524" lon="3.18192">
        <ele>21</ele>
        <time>2015-04-26T07:30:37Z</time>
      </trkpt>
      <trkpt lat="50.64519" lon="3.18195">
        <ele>21</ele>
        <time>2015-04-26T07:30:38Z</time>
      </trkpt>
      <trkpt lat="50.64514" lon="3.18198">
        <ele>21</ele>
        <time>2015-04-26T07:30:39Z</time>
      </trkpt>
      <trkpt lat="50.64508" lon="3.18201">
        <ele>21</ele>
        <time>2015-04-26T07:30:40Z</time>
      </trkpt>
      <trkpt lat="50.64502" lon="3.18202">
        <ele>21</ele>
        <time>2015-04-26T07:30:41Z</time>
      </trkpt>
      <trkpt lat="50.64459" lon="3.18213">
        <ele>21</ele>
        <time>2015-04-26T07:30:49Z</time>
      </trkpt>
      <trkpt lat="50.64454" lon="3.18216">
        <ele>21</ele>
        <time>2015-04-26T07:30:50Z</time>
      </trkpt>
      <trkpt lat="50.64439" lon="3.18226">
        <ele>21</ele>
        <time>2015-04-26T07:30:53Z</time>
      </trkpt>
      <trkpt lat="50.64395" lon="3.1826">
        <ele>21</ele>
        <time>2015-04-26T07:31:02Z</time>
      </trkpt>
      <trkpt lat="50.6439" lon="3.18262">
        <ele>22</ele>
        <time>2015-04-26T07:31:03Z</time>
      </trkpt>
      <trkpt lat="50.64374" lon="3.18267">
        <ele>22</ele>
        <time>2015-04-26T07:31:06Z</time>
      </trkpt>
      <trkpt lat="50.64369" lon="3.1827">
        <ele>22</ele>
        <time>2015-04-26T07:31:07Z</time>
      </trkpt>
      <trkpt lat="50.64356" lon="3.18282">
        <ele>22</ele>
        <time>2015-04-26T07:31:10Z</time>
      </trkpt>
      <trkpt lat="50.64351" lon="3.18282">
        <ele>22</ele>
        <time>2015-04-26T07:31:11Z</time>
      </trkpt>
      <trkpt lat="50.64346" lon="3.1828">
        <ele>22</ele>
        <time>2015-04-26T07:31:12Z</time>
      </trkpt>
      <trkpt lat="50.64343" lon="3.18276">
        <ele>22</ele>
        <time>2015-04-26T07:31:13Z</time>
      </trkpt>
      <trkpt lat="50.6434" lon="3.1827">
        <ele>22</ele>
        <time>2015-04-26T07:31:14Z</time>
      </trkpt>
      <trkpt lat="50.64337" lon="3.18263">
        <ele>22</ele>
        <time>2015-04-26T07:31:15Z</time>
      </trkpt>
      <trkpt lat="50.64306" lon="3.18201">
        <ele>22</ele>
        <time>2015-04-26T07:31:25Z</time>
      </trkpt>
      <trkpt lat="50.64277" lon="3.18148">
        <ele>22</ele>
        <time>2015-04-26T07:31:34Z</time>
      </trkpt>
      <trkpt lat="50.64275" lon="3.18141">
        <ele>22</ele>
        <time>2015-04-26T07:31:35Z</time>
      </trkpt>
      <trkpt lat="50.64275" lon="3.18134">
        <ele>22</ele>
        <time>2015-04-26T07:31:36Z</time>
      </trkpt>
      <trkpt lat="50.64276" lon="3.18127">
        <ele>22</ele>
        <time>2015-04-26T07:31:37Z</time>
      </trkpt>
      <trkpt lat="50.64279" lon="3.18121">
        <ele>22</ele>
        <time>2015-04-26T07:31:38Z</time>
      </trkpt>
      <trkpt lat="50.64281" lon="3.18115">
        <ele>22</ele>
        <time>2015-04-26T07:31:39Z</time>
      </trkpt>
      <trkpt lat="50.643" lon="3.18076">
        <ele>22</ele>
        <time>2015-04-26T07:31:46Z</time>
      </trkpt>
      <trkpt lat="50.64301" lon="3.18069">
        <ele>22</ele>
        <time>2015-04-26T07:31:47Z</time>
      </trkpt>
      <trkpt lat="50.643" lon="3.18063">
        <ele>22</ele>
        <time>2015-04-26T07:31:48Z</time>
      </trkpt>
      <trkpt lat="50.64298" lon="3.18056">
        <ele>22</ele>
        <time>2015-04-26T07:31:49Z</time>
      </trkpt>
      <trkpt lat="50.64296" lon="3.1805">
        <ele>22</ele>
        <time>2015-04-26T07:31:50Z</time>
      </trkpt>
      <trkpt lat="50.64294" lon="3.18045">
        <ele>22</ele>
        <time>2015-04-26T07:31:51Z</time>
      </trkpt>
      <trkpt lat="50.64291" lon="3.18039">
        <ele>22</ele>
        <time>2015-04-26T07:31:52Z</time>
      </trkpt>
      <trkpt lat="50.64266" lon="3.17978">
        <ele>23</ele>
        <time>2015-04-26T07:32:02Z</time>
      </trkpt>
      <trkpt lat="50.64263" lon="3.17972">
        <ele>23</ele>
        <time>2015-04-26T07:32:03Z</time>
      </trkpt>
      <trkpt lat="50.64258" lon="3.1796">
        <ele>23</ele>
        <time>2015-04-26T07:32:05Z</time>
      </trkpt>
      <trkpt lat="50.64235" lon="3.17923">
        <ele>24</ele>
        <time>2015-04-26T07:32:12Z</time>
      </trkpt>
      <trkpt lat="50.64231" lon="3.17919">
        <ele>24</ele>
        <time>2015-04-26T07:32:13Z</time>
      </trkpt>
      <trkpt lat="50.64227" lon="3.17914">
        <ele>24</ele>
        <time>2015-04-26T07:32:14Z</time>
      </trkpt>
      <trkpt lat="50.64208" lon="3.17891">
        <ele>24</ele>
        <time>2015-04-26T07:32:19Z</time>
      </trkpt>
      <trkpt lat="50.64187" lon="3.17862">
        <ele>24</ele>
        <time>2015-04-26T07:32:25Z</time>
      </trkpt>
      <trkpt lat="50.64158" lon="3.17826">
        <ele>24</ele>
        <time>2015-04-26T07:32:33Z</time>
      </trkpt>
      <trkpt lat="50.64135" lon="3.17804">
        <ele>24</ele>
        <time>2015-04-26T07:32:39Z</time>
      </trkpt>
      <trkpt lat="50.64131" lon="3.17804">
        <ele>24</ele>
        <time>2015-04-26T07:32:40Z</time>
      </trkpt>
      <trkpt lat="50.64127" lon="3.17806">
        <ele>24</ele>
        <time>2015-04-26T07:32:41Z</time>
      </trkpt>
      <trkpt lat="50.64124" lon="3.17812">
        <ele>24</ele>
        <time>2015-04-26T07:32:42Z</time>
      </trkpt>
      <trkpt lat="50.64122" lon="3.17818">
        <ele>24</ele>
        <time>2015-04-26T07:32:43Z</time>
      </trkpt>
      <trkpt lat="50.6412" lon="3.17825">
        <ele>24</ele>
        <time>2015-04-26T07:32:44Z</time>
      </trkpt>
      <trkpt lat="50.64117" lon="3.17831">
        <ele>24</ele>
        <time>2015-04-26T07:32:45Z</time>
      </trkpt>
      <trkpt lat="50.64113" lon="3.17837">
        <ele>24</ele>
        <time>2015-04-26T07:32:46Z</time>
      </trkpt>
      <trkpt lat="50.6411" lon="3.17843">
        <ele>24</ele>
        <time>2015-04-26T07:32:47Z</time>
      </trkpt>
      <trkpt lat="50.64072" lon="3.1791">
        <ele>24</ele>
        <time>2015-04-26T07:32:57Z</time>
      </trkpt>
      <trkpt lat="50.64049" lon="3.1795">
        <ele>23</ele>
        <time>2015-04-26T07:33:03Z</time>
      </trkpt>
      <trkpt lat="50.64047" lon="3.17956">
        <ele>23</ele>
        <time>2015-04-26T07:33:04Z</time>
      </trkpt>
      <trkpt lat="50.64047" lon="3.17964">
        <ele>23</ele>
        <time>2015-04-26T07:33:05Z</time>
      </trkpt>
      <trkpt lat="50.64049" lon="3.17971">
        <ele>23</ele>
        <time>2015-04-26T07:33:06Z</time>
      </trkpt>
      <trkpt lat="50.64051" lon="3.17978">
        <ele>23</ele>
        <time>2015-04-26T07:33:07Z</time>
      </trkpt>
      <trkpt lat="50.64053" lon="3.17986">
        <ele>23</ele>
        <time>2015-04-26T07:33:08Z</time>
      </trkpt>
      <trkpt lat="50.64054" lon="3.17994">
        <ele>23</ele>
        <time>2015-04-26T07:33:09Z</time>
      </trkpt>
      <trkpt lat="50.64055" lon="3.18002">
        <ele>22</ele>
        <time>2015-04-26T07:33:10Z</time>
      </trkpt>
      <trkpt lat="50.64054" lon="3.18011">
        <ele>22</ele>
        <time>2015-04-26T07:33:11Z</time>
      </trkpt>
      <trkpt lat="50.64052" lon="3.18019">
        <ele>22</ele>
        <time>2015-04-26T07:33:12Z</time>
      </trkpt>
      <trkpt lat="50.6405" lon="3.18027">
        <ele>22</ele>
        <time>2015-04-26T07:33:13Z</time>
      </trkpt>
      <trkpt lat="50.64047" lon="3.18035">
        <ele>22</ele>
        <time>2015-04-26T07:33:14Z</time>
      </trkpt>
      <trkpt lat="50.64038" lon="3.18056">
        <ele>22</ele>
        <time>2015-04-26T07:33:17Z</time>
      </trkpt>
      <trkpt lat="50.64037" lon="3.18062">
        <ele>22</ele>
        <time>2015-04-26T07:33:18Z</time>
      </trkpt>
      <trkpt lat="50.64033" lon="3.18072">
        <ele>22</ele>
        <time>2015-04-26T07:33:20Z</time>
      </trkpt>
      <trkpt lat="50.64031" lon="3.18075">
        <ele>22</ele>
        <time>2015-04-26T07:33:21Z</time>
      </trkpt>
      <trkpt lat="50.64028" lon="3.18078">
        <ele>22</ele>
        <time>2015-04-26T07:33:22Z</time>
      </trkpt>
      <trkpt lat="50.64026" lon="3.18082">
        <ele>22</ele>
        <time>2015-04-26T07:33:23Z</time>
      </trkpt>
      <trkpt lat="50.64024" lon="3.18088">
        <ele>22</ele>
        <time>2015-04-26T07:33:24Z</time>
      </trkpt>
      <trkpt lat="50.64022" lon="3.18094">
        <ele>22</ele>
        <time>2015-04-26T07:33:25Z</time>
      </trkpt>
      <trkpt lat="50.64019" lon="3.18106">
        <ele>21</ele>
        <time>2015-04-26T07:33:27Z</time>
      </trkpt>
      <trkpt lat="50.64019" lon="3.18113">
        <ele>21</ele>
        <time>2015-04-26T07:33:28Z</time>
      </trkpt>
      <trkpt lat="50.6402" lon="3.1812">
        <ele>21</ele>
        <time>2015-04-26T07:33:29Z</time>
      </trkpt>
      <trkpt lat="50.64024" lon="3.18148">
        <ele>21</ele>
        <time>2015-04-26T07:33:33Z</time>
      </trkpt>
      <trkpt lat="50.64023" lon="3.18155">
        <ele>21</ele>
        <time>2015-04-26T07:33:34Z</time>
      </trkpt>
      <trkpt lat="50.64021" lon="3.18161">
        <ele>21</ele>
        <time>2015-04-26T07:33:35Z</time>
      </trkpt>
      <trkpt lat="50.64018" lon="3.18168">
        <ele>21</ele>
        <time>2015-04-26T07:33:36Z</time>
      </trkpt>
      <trkpt lat="50.64016" lon="3.18174">
        <ele>21</ele>
        <time>2015-04-26T07:33:37Z</time>
      </trkpt>
      <trkpt lat="50.64013" lon="3.1818">
        <ele>21</ele>
        <time>2015-04-26T07:33:38Z</time>
      </trkpt>
      <trkpt lat="50.6401" lon="3.18187">
        <ele>21</ele>
        <time>2015-04-26T07:33:39Z</time>
      </trkpt>
      <trkpt lat="50.63997" lon="3.18217">
        <ele>21</ele>
        <time>2015-04-26T07:33:44Z</time>
      </trkpt>
      <trkpt lat="50.63994" lon="3.18224">
        <ele>21</ele>
        <time>2015-04-26T07:33:45Z</time>
      </trkpt>
      <trkpt lat="50.63966" lon="3.18286">
        <ele>21</ele>
        <time>2015-04-26T07:33:54Z</time>
      </trkpt>
      <trkpt lat="50.63941" lon="3.18342">
        <ele>22</ele>
        <time>2015-04-26T07:34:02Z</time>
      </trkpt>
      <trkpt lat="50.63912" lon="3.18404">
        <ele>22</ele>
        <time>2015-04-26T07:34:11Z</time>
      </trkpt>
      <trkpt lat="50.6388" lon="3.18471">
        <ele>22</ele>
        <time>2015-04-26T07:34:21Z</time>
      </trkpt>
      <trkpt lat="50.63852" lon="3.18529">
        <ele>23</ele>
        <time>2015-04-26T07:34:30Z</time>
      </trkpt>
      <trkpt lat="50.63837" lon="3.18563">
        <ele>24</ele>
        <time>2015-04-26T07:34:35Z</time>
      </trkpt>
      <trkpt lat="50.63834" lon="3.18569">
        <ele>25</ele>
        <time>2015-04-26T07:34:36Z</time>
      </trkpt>
      <trkpt lat="50.63831" lon="3.18575">
        <ele>25</ele>
        <time>2015-04-26T07:34:37Z</time>
      </trkpt>
      <trkpt lat="50.63806" lon="3.18624">
        <ele>27</ele>
        <time>2015-04-26T07:34:45Z</time>
      </trkpt>
      <trkpt lat="50.63782" lon="3.18677">
        <ele>27</ele>
        <time>2015-04-26T07:34:53Z</time>
      </trkpt>
      <trkpt lat="50.63765" lon="3.18719">
        <ele>27</ele>
        <time>2015-04-26T07:34:59Z</time>
      </trkpt>
      <trkpt lat="50.63761" lon="3.18725">
        <ele>26</ele>
        <time>2015-04-26T07:35:00Z</time>
      </trkpt>
      <trkpt lat="50.63751" lon="3.18738">
        <ele>26</ele>
        <time>2015-04-26T07:35:04Z</time>
      </trkpt>
      <trkpt lat="50.63748" lon="3.18738">
        <ele>25</ele>
        <time>2015-04-26T07:35:05Z</time>
      </trkpt>
      <trkpt lat="50.63722" lon="3.18723">
        <ele>25</ele>
        <time>2015-04-26T07:35:11Z</time>
      </trkpt>
      <trkpt lat="50.63695" lon="3.18704">
        <ele>26</ele>
        <time>2015-04-26T07:35:17Z</time>
      </trkpt>
      <trkpt lat="50.63691" lon="3.18701">
        <ele>26</ele>
        <time>2015-04-26T07:35:18Z</time>
      </trkpt>
      <trkpt lat="50.63652" lon="3.18676">
        <ele>26</ele>
        <time>2015-04-26T07:35:26Z</time>
      </trkpt>
      <trkpt lat="50.63647" lon="3.18672">
        <ele>26</ele>
        <time>2015-04-26T07:35:27Z</time>
      </trkpt>
      <trkpt lat="50.63631" lon="3.18655">
        <ele>25</ele>
        <time>2015-04-26T07:35:31Z</time>
      </trkpt>
      <trkpt lat="50.63627" lon="3.18652">
        <ele>25</ele>
        <time>2015-04-26T07:35:32Z</time>
      </trkpt>
      <trkpt lat="50.63624" lon="3.1865">
        <ele>25</ele>
        <time>2015-04-26T07:35:33Z</time>
      </trkpt>
      <trkpt lat="50.63621" lon="3.1865">
        <ele>25</ele>
        <time>2015-04-26T07:35:34Z</time>
      </trkpt>
      <trkpt lat="50.63618" lon="3.18651">
        <ele>25</ele>
        <time>2015-04-26T07:35:35Z</time>
      </trkpt>
      <trkpt lat="50.63615" lon="3.18653">
        <ele>25</ele>
        <time>2015-04-26T07:35:36Z</time>
      </trkpt>
      <trkpt lat="50.63612" lon="3.18655">
        <ele>25</ele>
        <time>2015-04-26T07:35:37Z</time>
      </trkpt>
      <trkpt lat="50.63609" lon="3.18655">
        <ele>25</ele>
        <time>2015-04-26T07:35:38Z</time>
      </trkpt>
      <trkpt lat="50.63605" lon="3.18653">
        <ele>25</ele>
        <time>2015-04-26T07:35:39Z</time>
      </trkpt>
      <trkpt lat="50.63602" lon="3.1865">
        <ele>25</ele>
        <time>2015-04-26T07:35:40Z</time>
      </trkpt>
      <trkpt lat="50.63581" lon="3.18636">
        <ele>24</ele>
        <time>2015-04-26T07:35:47Z</time>
      </trkpt>
      <trkpt lat="50.6358" lon="3.18633">
        <ele>24</ele>
        <time>2015-04-26T07:35:48Z</time>
      </trkpt>
      <trkpt lat="50.63579" lon="3.1863">
        <ele>24</ele>
        <time>2015-04-26T07:35:49Z</time>
      </trkpt>
      <trkpt lat="50.63579" lon="3.18627">
        <ele>24</ele>
        <time>2015-04-26T07:35:50Z</time>
      </trkpt>
      <trkpt lat="50.63577" lon="3.18625">
        <ele>24</ele>
        <time>2015-04-26T07:35:51Z</time>
      </trkpt>
      <trkpt lat="50.63574" lon="3.18623">
        <ele>24</ele>
        <time>2015-04-26T07:35:52Z</time>
      </trkpt>
      <trkpt lat="50.63571" lon="3.18621">
        <ele>24</ele>
        <time>2015-04-26T07:35:53Z</time>
      </trkpt>
      <trkpt lat="50.63543" lon="3.18604">
        <ele>24</ele>
        <time>2015-04-26T07:36:00Z</time>
      </trkpt>
      <trkpt lat="50.63506" lon="3.18582">
        <ele>24</ele>
        <time>2015-04-26T07:36:08Z</time>
      </trkpt>
      <trkpt lat="50.63482" lon="3.18573">
        <ele>24</ele>
        <time>2015-04-26T07:36:13Z</time>
      </trkpt>
      <trkpt lat="50.63477" lon="3.18573">
        <ele>24</ele>
        <time>2015-04-26T07:36:14Z</time>
      </trkpt>
      <trkpt lat="50.63472" lon="3.18575">
        <ele>24</ele>
        <time>2015-04-26T07:36:15Z</time>
      </trkpt>
      <trkpt lat="50.63467" lon="3.18576">
        <ele>24</ele>
        <time>2015-04-26T07:36:16Z</time>
      </trkpt>
      <trkpt lat="50.63462" lon="3.18576">
        <ele>24</ele>
        <time>2015-04-26T07:36:17Z</time>
      </trkpt>
      <trkpt lat="50.63457" lon="3.18575">
        <ele>24</ele>
        <time>2015-04-26T07:36:18Z</time>
      </trkpt>
      <trkpt lat="50.63452" lon="3.18573">
        <ele>24</ele>
        <time>2015-04-26T07:36:19Z</time>
      </trkpt>
      <trkpt lat="50.63409" lon="3.18559">
        <ele>23</ele>
        <time>2015-04-26T07:36:28Z</time>
      </trkpt>
      <trkpt lat="50.63359" lon="3.1854">
        <ele>23</ele>
        <time>2015-04-26T07:36:38Z</time>
      </trkpt>
      <trkpt lat="50.63313" lon="3.18525">
        <ele>23</ele>
        <time>2015-04-26T07:36:47Z</time>
      </trkpt>
      <trkpt lat="50.63267" lon="3.18508">
        <ele>22</ele>
        <time>2015-04-26T07:36:56Z</time>
      </trkpt>
      <trkpt lat="50.6322" lon="3.18494">
        <ele>22</ele>
        <time>2015-04-26T07:37:05Z</time>
      </trkpt>
      <trkpt lat="50.63204" lon="3.1849">
        <ele>22</ele>
        <time>2015-04-26T07:37:08Z</time>
      </trkpt>
      <trkpt lat="50.63175" lon="3.1848">
        <ele>22</ele>
        <time>2015-04-26T07:37:13Z</time>
      </trkpt>
      <trkpt lat="50.6313" lon="3.18466">
        <ele>23</ele>
        <time>2015-04-26T07:37:21Z</time>
      </trkpt>
      <trkpt lat="50.63087" lon="3.18451">
        <ele>23</ele>
        <time>2015-04-26T07:37:29Z</time>
      </trkpt>
      <trkpt lat="50.63082" lon="3.1845">
        <ele>23</ele>
        <time>2015-04-26T07:37:30Z</time>
      </trkpt>
      <trkpt lat="50.63052" lon="3.18438">
        <ele>23</ele>
        <time>2015-04-26T07:37:37Z</time>
      </trkpt>
      <trkpt lat="50.63043" lon="3.18437">
        <ele>23</ele>
        <time>2015-04-26T07:37:40Z</time>
      </trkpt>
      <trkpt lat="50.6304" lon="3.18439">
        <ele>23</ele>
        <time>2015-04-26T07:37:41Z</time>
      </trkpt>
      <trkpt lat="50.63036" lon="3.18442">
        <ele>23</ele>
        <time>2015-04-26T07:37:42Z</time>
      </trkpt>
      <trkpt lat="50.63034" lon="3.18445">
        <ele>23</ele>
        <time>2015-04-26T07:37:43Z</time>
      </trkpt>
      <trkpt lat="50.63033" lon="3.18449">
        <ele>23</ele>
        <time>2015-04-26T07:37:44Z</time>
      </trkpt>
      <trkpt lat="50.63031" lon="3.18453">
        <ele>23</ele>
        <time>2015-04-26T07:37:45Z</time>
      </trkpt>
      <trkpt lat="50.63014" lon="3.18487">
        <ele>24</ele>
        <time>2015-04-26T07:37:51Z</time>
      </trkpt>
      <trkpt lat="50.63011" lon="3.18494">
        <ele>24</ele>
        <time>2015-04-26T07:37:52Z</time>
      </trkpt>
      <trkpt lat="50.6299" lon="3.18534">
        <ele>24</ele>
        <time>2015-04-26T07:37:59Z</time>
      </trkpt>
      <trkpt lat="50.62971" lon="3.18572">
        <ele>24</ele>
        <time>2015-04-26T07:38:06Z</time>
      </trkpt>
      <trkpt lat="50.62955" lon="3.18606">
        <ele>24</ele>
        <time>2015-04-26T07:38:12Z</time>
      </trkpt>
      <trkpt lat="50.62941" lon="3.18622">
        <ele>24</ele>
        <time>2015-04-26T07:38:16Z</time>
      </trkpt>
      <trkpt lat="50.62938" lon="3.18626">
        <ele>24</ele>
        <time>2015-04-26T07:38:17Z</time>
      </trkpt>
      <trkpt lat="50.62935" lon="3.18628">
        <ele>24</ele>
        <time>2015-04-26T07:38:18Z</time>
      </trkpt>
      <trkpt lat="50.62932" lon="3.18628">
        <ele>24</ele>
        <time>2015-04-26T07:38:19Z</time>
      </trkpt>
      <trkpt lat="50.62929" lon="3.18626">
        <ele>24</ele>
        <time>2015-04-26T07:38:20Z</time>
      </trkpt>
      <trkpt lat="50.62927" lon="3.18624">
        <ele>24</ele>
        <time>2015-04-26T07:38:21Z</time>
      </trkpt>
      <trkpt lat="50.62924" lon="3.18621">
        <ele>24</ele>
        <time>2015-04-26T07:38:22Z</time>
      </trkpt>
      <trkpt lat="50.62921" lon="3.18618">
        <ele>24</ele>
        <time>2015-04-26T07:38:23Z</time>
      </trkpt>
      <trkpt lat="50.62917" lon="3.18615">
        <ele>24</ele>
        <time>2015-04-26T07:38:24Z</time>
      </trkpt>
      <trkpt lat="50.62913" lon="3.18613">
        <ele>24</ele>
        <time>2015-04-26T07:38:25Z</time>
      </trkpt>
      <trkpt lat="50.62869" lon="3.1859">
        <ele>24</ele>
        <time>2015-04-26T07:38:34Z</time>
      </trkpt>
      <trkpt lat="50.62823" lon="3.18565">
        <ele>24</ele>
        <time>2015-04-26T07:38:43Z</time>
      </trkpt>
      <trkpt lat="50.62779" lon="3.18545">
        <ele>24</ele>
        <time>2015-04-26T07:38:52Z</time>
      </trkpt>
      <trkpt lat="50.62743" lon="3.18533">
        <ele>23</ele>
        <time>2015-04-26T07:39:00Z</time>
      </trkpt>
      <trkpt lat="50.62719" lon="3.18525">
        <ele>23</ele>
        <time>2015-04-26T07:39:07Z</time>
      </trkpt>
      <trkpt lat="50.62709" lon="3.18521">
        <ele>23</ele>
        <time>2015-04-26T07:39:11Z</time>
      </trkpt>
      <trkpt lat="50.62707" lon="3.1852">
        <ele>23</ele>
        <time>2015-04-26T07:39:12Z</time>
      </trkpt>
      <trkpt lat="50.62705" lon="3.18519">
        <ele>23</ele>
        <time>2015-04-26T07:39:13Z</time>
      </trkpt>
      <trkpt lat="50.62704" lon="3.18521">
        <ele>23</ele>
        <time>2015-04-26T07:39:14Z</time>
      </trkpt>
      <trkpt lat="50.62704" lon="3.18524">
        <ele>23</ele>
        <time>2015-04-26T07:39:15Z</time>
      </trkpt>
      <trkpt lat="50.62705" lon="3.18528">
        <ele>23</ele>
        <time>2015-04-26T07:39:16Z</time>
      </trkpt>
      <trkpt lat="50.62707" lon="3.1853">
        <ele>23</ele>
        <time>2015-04-26T07:39:17Z</time>
      </trkpt>
      <trkpt lat="50.62709" lon="3.18533">
        <ele>23</ele>
        <time>2015-04-26T07:39:18Z</time>
      </trkpt>
      <trkpt lat="50.62712" lon="3.18534">
        <ele>23</ele>
        <time>2015-04-26T07:39:19Z</time>
      </trkpt>
      <trkpt lat="50.62715" lon="3.18536">
        <ele>23</ele>
        <time>2015-04-26T07:39:20Z</time>
      </trkpt>
      <trkpt lat="50.62718" lon="3.18538">
        <ele>23</ele>
        <time>2015-04-26T07:39:21Z</time>
      </trkpt>
      <trkpt lat="50.62721" lon="3.18539">
        <ele>23</ele>
        <time>2015-04-26T07:39:22Z</time>
      </trkpt>
      <trkpt lat="50.6273" lon="3.18543">
        <ele>23</ele>
        <time>2015-04-26T07:39:29Z</time>
      </trkpt>
      <trkpt lat="50.6273" lon="3.18544">
        <ele>23</ele>
        <time>2015-04-26T07:39:39Z</time>
      </trkpt>
      <trkpt lat="50.62731" lon="3.18542">
        <ele>23</ele>
        <time>2015-04-26T07:39:46Z</time>
      </trkpt>
      <trkpt lat="50.6273" lon="3.18542">
        <ele>23</ele>
        <time>2015-04-26T07:40:00Z</time>
      </trkpt>
      <trkpt lat="50.62731" lon="3.18541">
        <ele>23</ele>
        <time>2015-04-26T07:40:03Z</time>
      </trkpt>
      <trkpt lat="50.62731" lon="3.18538">
        <ele>23</ele>
        <time>2015-04-26T07:40:04Z</time>
      </trkpt>
      <trkpt lat="50.62731" lon="3.18535">
        <ele>23</ele>
        <time>2015-04-26T07:40:05Z</time>
      </trkpt>
      <trkpt lat="50.6273" lon="3.18532">
        <ele>23</ele>
        <time>2015-04-26T07:40:06Z</time>
      </trkpt>
      <trkpt lat="50.62729" lon="3.18529">
        <ele>23</ele>
        <time>2015-04-26T07:40:07Z</time>
      </trkpt>
      <trkpt lat="50.62725" lon="3.18527">
        <ele>23</ele>
        <time>2015-04-26T07:40:08Z</time>
      </trkpt>
      <trkpt lat="50.62721" lon="3.18525">
        <ele>23</ele>
        <time>2015-04-26T07:40:09Z</time>
      </trkpt>
      <trkpt lat="50.62715" lon="3.18523">
        <ele>23</ele>
        <time>2015-04-26T07:40:10Z</time>
      </trkpt>
      <trkpt lat="50.6271" lon="3.18521">
        <ele>23</ele>
        <time>2015-04-26T07:40:11Z</time>
      </trkpt>
      <trkpt lat="50.62704" lon="3.18517">
        <ele>23</ele>
        <time>2015-04-26T07:40:12Z</time>
      </trkpt>
      <trkpt lat="50.62644" lon="3.18485">
        <ele>24</ele>
        <time>2015-04-26T07:40:22Z</time>
      </trkpt>
      <trkpt lat="50.62607" lon="3.18465">
        <ele>25</ele>
        <time>2015-04-26T07:40:29Z</time>
      </trkpt>
      <trkpt lat="50.62603" lon="3.18462">
        <ele>25</ele>
        <time>2015-04-26T07:40:30Z</time>
      </trkpt>
      <trkpt lat="50.62599" lon="3.18457">
        <ele>25</ele>
        <time>2015-04-26T07:40:31Z</time>
      </trkpt>
      <trkpt lat="50.62597" lon="3.1845">
        <ele>25</ele>
        <time>2015-04-26T07:40:32Z</time>
      </trkpt>
      <trkpt lat="50.62596" lon="3.18442">
        <ele>26</ele>
        <time>2015-04-26T07:40:33Z</time>
      </trkpt>
      <trkpt lat="50.62596" lon="3.18434">
        <ele>26</ele>
        <time>2015-04-26T07:40:34Z</time>
      </trkpt>
      <trkpt lat="50.62594" lon="3.18419">
        <ele>26</ele>
        <time>2015-04-26T07:40:36Z</time>
      </trkpt>
      <trkpt lat="50.62589" lon="3.1839">
        <ele>26</ele>
        <time>2015-04-26T07:40:40Z</time>
      </trkpt>
      <trkpt lat="50.62581" lon="3.18339">
        <ele>27</ele>
        <time>2015-04-26T07:40:47Z</time>
      </trkpt>
      <trkpt lat="50.6258" lon="3.18323">
        <ele>27</ele>
        <time>2015-04-26T07:40:49Z</time>
      </trkpt>
      <trkpt lat="50.6258" lon="3.18315">
        <ele>27</ele>
        <time>2015-04-26T07:40:50Z</time>
      </trkpt>
      <trkpt lat="50.62581" lon="3.18308">
        <ele>27</ele>
        <time>2015-04-26T07:40:51Z</time>
      </trkpt>
      <trkpt lat="50.62583" lon="3.18301">
        <ele>27</ele>
        <time>2015-04-26T07:40:52Z</time>
      </trkpt>
      <trkpt lat="50.62584" lon="3.18294">
        <ele>28</ele>
        <time>2015-04-26T07:40:53Z</time>
      </trkpt>
      <trkpt lat="50.62585" lon="3.18288">
        <ele>28</ele>
        <time>2015-04-26T07:40:54Z</time>
      </trkpt>
      <trkpt lat="50.62584" lon="3.18281">
        <ele>28</ele>
        <time>2015-04-26T07:40:55Z</time>
      </trkpt>
      <trkpt lat="50.62582" lon="3.18275">
        <ele>28</ele>
        <time>2015-04-26T07:40:56Z</time>
      </trkpt>
      <trkpt lat="50.62579" lon="3.1827">
        <ele>28</ele>
        <time>2015-04-26T07:40:57Z</time>
      </trkpt>
      <trkpt lat="50.62576" lon="3.18265">
        <ele>28</ele>
        <time>2015-04-26T07:40:58Z</time>
      </trkpt>
      <trkpt lat="50.62572" lon="3.18259">
        <ele>29</ele>
        <time>2015-04-26T07:40:59Z</time>
      </trkpt>
      <trkpt lat="50.6257" lon="3.18253">
        <ele>29</ele>
        <time>2015-04-26T07:41:00Z</time>
      </trkpt>
      <trkpt lat="50.62567" lon="3.18246">
        <ele>29</ele>
        <time>2015-04-26T07:41:01Z</time>
      </trkpt>
      <trkpt lat="50.62564" lon="3.18239">
        <ele>29</ele>
        <time>2015-04-26T07:41:02Z</time>
      </trkpt>
      <trkpt lat="50.62562" lon="3.18232">
        <ele>29</ele>
        <time>2015-04-26T07:41:03Z</time>
      </trkpt>
      <trkpt lat="50.6256" lon="3.18224">
        <ele>29</ele>
        <time>2015-04-26T07:41:04Z</time>
      </trkpt>
      <trkpt lat="50.62551" lon="3.18185">
        <ele>29</ele>
        <time>2015-04-26T07:41:09Z</time>
      </trkpt>
      <trkpt lat="50.6255" lon="3.18176">
        <ele>29</ele>
        <time>2015-04-26T07:41:10Z</time>
      </trkpt>
      <trkpt lat="50.62531" lon="3.18092">
        <ele>26</ele>
        <time>2015-04-26T07:41:20Z</time>
      </trkpt>
      <trkpt lat="50.6252" lon="3.18039">
        <ele>25</ele>
        <time>2015-04-26T07:41:27Z</time>
      </trkpt>
      <trkpt lat="50.62519" lon="3.18032">
        <ele>25</ele>
        <time>2015-04-26T07:41:28Z</time>
      </trkpt>
      <trkpt lat="50.62517" lon="3.1802">
        <ele>24</ele>
        <time>2015-04-26T07:41:30Z</time>
      </trkpt>
      <trkpt lat="50.62514" lon="3.18014">
        <ele>24</ele>
        <time>2015-04-26T07:41:31Z</time>
      </trkpt>
      <trkpt lat="50.62512" lon="3.18008">
        <ele>24</ele>
        <time>2015-04-26T07:41:32Z</time>
      </trkpt>
      <trkpt lat="50.6251" lon="3.18003">
        <ele>24</ele>
        <time>2015-04-26T07:41:33Z</time>
      </trkpt>
      <trkpt lat="50.62507" lon="3.18">
        <ele>23</ele>
        <time>2015-04-26T07:41:34Z</time>
      </trkpt>
      <trkpt lat="50.62503" lon="3.17998">
        <ele>23</ele>
        <time>2015-04-26T07:41:35Z</time>
      </trkpt>
      <trkpt lat="50.62499" lon="3.17995">
        <ele>23</ele>
        <time>2015-04-26T07:41:36Z</time>
      </trkpt>
      <trkpt lat="50.62496" lon="3.17991">
        <ele>23</ele>
        <time>2015-04-26T07:41:37Z</time>
      </trkpt>
      <trkpt lat="50.62492" lon="3.17987">
        <ele>23</ele>
        <time>2015-04-26T07:41:38Z</time>
      </trkpt>
      <trkpt lat="50.62488" lon="3.17983">
        <ele>23</ele>
        <time>2015-04-26T07:41:39Z</time>
      </trkpt>
      <trkpt lat="50.62485" lon="3.17978">
        <ele>23</ele>
        <time>2015-04-26T07:41:40Z</time>
      </trkpt>
      <trkpt lat="50.62479" lon="3.17967">
        <ele>23</ele>
        <time>2015-04-26T07:41:42Z</time>
      </trkpt>
      <trkpt lat="50.62476" lon="3.17962">
        <ele>23</ele>
        <time>2015-04-26T07:41:43Z</time>
      </trkpt>
      <trkpt lat="50.62458" lon="3.17935">
        <ele>23</ele>
        <time>2015-04-26T07:41:48Z</time>
      </trkpt>
      <trkpt lat="50.62456" lon="3.17928">
        <ele>23</ele>
        <time>2015-04-26T07:41:49Z</time>
      </trkpt>
      <trkpt lat="50.62455" lon="3.17919">
        <ele>23</ele>
        <time>2015-04-26T07:41:50Z</time>
      </trkpt>
      <trkpt lat="50.62454" lon="3.1791">
        <ele>23</ele>
        <time>2015-04-26T07:41:51Z</time>
      </trkpt>
      <trkpt lat="50.62453" lon="3.17901">
        <ele>23</ele>
        <time>2015-04-26T07:41:52Z</time>
      </trkpt>
      <trkpt lat="50.62453" lon="3.17893">
        <ele>23</ele>
        <time>2015-04-26T07:41:53Z</time>
      </trkpt>
      <trkpt lat="50.62452" lon="3.17884">
        <ele>23</ele>
        <time>2015-04-26T07:41:54Z</time>
      </trkpt>
      <trkpt lat="50.6244" lon="3.17821">
        <ele>23</ele>
        <time>2015-04-26T07:42:02Z</time>
      </trkpt>
      <trkpt lat="50.62439" lon="3.17814">
        <ele>23</ele>
        <time>2015-04-26T07:42:03Z</time>
      </trkpt>
      <trkpt lat="50.62437" lon="3.17808">
        <ele>23</ele>
        <time>2015-04-26T07:42:04Z</time>
      </trkpt>
      <trkpt lat="50.62435" lon="3.17801">
        <ele>23</ele>
        <time>2015-04-26T07:42:05Z</time>
      </trkpt>
      <trkpt lat="50.62434" lon="3.17794">
        <ele>23</ele>
        <time>2015-04-26T07:42:06Z</time>
      </trkpt>
      <trkpt lat="50.62433" lon="3.17788">
        <ele>23</ele>
        <time>2015-04-26T07:42:07Z</time>
      </trkpt>
      <trkpt lat="50.62432" lon="3.17773">
        <ele>23</ele>
        <time>2015-04-26T07:42:09Z</time>
      </trkpt>
      <trkpt lat="50.62432" lon="3.17766">
        <ele>23</ele>
        <time>2015-04-26T07:42:10Z</time>
      </trkpt>
      <trkpt lat="50.62433" lon="3.17759">
        <ele>23</ele>
        <time>2015-04-26T07:42:11Z</time>
      </trkpt>
      <trkpt lat="50.62434" lon="3.17751">
        <ele>23</ele>
        <time>2015-04-26T07:42:12Z</time>
      </trkpt>
      <trkpt lat="50.62435" lon="3.17744">
        <ele>23</ele>
        <time>2015-04-26T07:42:13Z</time>
      </trkpt>
      <trkpt lat="50.62437" lon="3.17737">
        <ele>23</ele>
        <time>2015-04-26T07:42:14Z</time>
      </trkpt>
      <trkpt lat="50.6244" lon="3.1773">
        <ele>23</ele>
        <time>2015-04-26T07:42:15Z</time>
      </trkpt>
      <trkpt lat="50.62443" lon="3.17724">
        <ele>23</ele>
        <time>2015-04-26T07:42:16Z</time>
      </trkpt>
      <trkpt lat="50.62446" lon="3.17719">
        <ele>23</ele>
        <time>2015-04-26T07:42:17Z</time>
      </trkpt>
      <trkpt lat="50.62454" lon="3.17709">
        <ele>23</ele>
        <time>2015-04-26T07:42:19Z</time>
      </trkpt>
      <trkpt lat="50.62472" lon="3.17685">
        <ele>23</ele>
        <time>2015-04-26T07:42:24Z</time>
      </trkpt>
      <trkpt lat="50.62476" lon="3.1768">
        <ele>23</ele>
        <time>2015-04-26T07:42:25Z</time>
      </trkpt>
      <trkpt lat="50.62487" lon="3.17664">
        <ele>22</ele>
        <time>2015-04-26T07:42:28Z</time>
      </trkpt>
      <trkpt lat="50.6249" lon="3.17659">
        <ele>22</ele>
        <time>2015-04-26T07:42:29Z</time>
      </trkpt>
      <trkpt lat="50.62494" lon="3.17654">
        <ele>22</ele>
        <time>2015-04-26T07:42:30Z</time>
      </trkpt>
      <trkpt lat="50.62504" lon="3.17639">
        <ele>23</ele>
        <time>2015-04-26T07:42:33Z</time>
      </trkpt>
      <trkpt lat="50.62506" lon="3.17633">
        <ele>23</ele>
        <time>2015-04-26T07:42:34Z</time>
      </trkpt>
      <trkpt lat="50.62507" lon="3.17627">
        <ele>23</ele>
        <time>2015-04-26T07:42:35Z</time>
      </trkpt>
      <trkpt lat="50.62507" lon="3.17621">
        <ele>23</ele>
        <time>2015-04-26T07:42:36Z</time>
      </trkpt>
      <trkpt lat="50.62506" lon="3.17616">
        <ele>23</ele>
        <time>2015-04-26T07:42:37Z</time>
      </trkpt>
      <trkpt lat="50.62505" lon="3.17613">
        <ele>23</ele>
        <time>2015-04-26T07:42:38Z</time>
      </trkpt>
      <trkpt lat="50.62504" lon="3.17611">
        <ele>23</ele>
        <time>2015-04-26T07:42:39Z</time>
      </trkpt>
      <trkpt lat="50.62504" lon="3.17609">
        <ele>23</ele>
        <time>2015-04-26T07:42:40Z</time>
      </trkpt>
      <trkpt lat="50.62502" lon="3.17608">
        <ele>23</ele>
        <time>2015-04-26T07:42:41Z</time>
      </trkpt>
      <trkpt lat="50.62501" lon="3.17606">
        <ele>23</ele>
        <time>2015-04-26T07:42:42Z</time>
      </trkpt>
      <trkpt lat="50.62499" lon="3.17603">
        <ele>22</ele>
        <time>2015-04-26T07:42:43Z</time>
      </trkpt>
      <trkpt lat="50.62498" lon="3.17599">
        <ele>22</ele>
        <time>2015-04-26T07:42:44Z</time>
      </trkpt>
      <trkpt lat="50.6249" lon="3.17585">
        <ele>22</ele>
        <time>2015-04-26T07:42:47Z</time>
      </trkpt>
      <trkpt lat="50.62467" lon="3.17551">
        <ele>23</ele>
        <time>2015-04-26T07:42:54Z</time>
      </trkpt>
      <trkpt lat="50.62432" lon="3.17501">
        <ele>24</ele>
        <time>2015-04-26T07:43:04Z</time>
      </trkpt>
      <trkpt lat="50.62418" lon="3.17468">
        <ele>23</ele>
        <time>2015-04-26T07:43:10Z</time>
      </trkpt>
      <trkpt lat="50.62404" lon="3.17428">
        <ele>24</ele>
        <time>2015-04-26T07:43:17Z</time>
      </trkpt>
      <trkpt lat="50.62397" lon="3.17412">
        <ele>24</ele>
        <time>2015-04-26T07:43:20Z</time>
      </trkpt>
      <trkpt lat="50.62379" lon="3.17382">
        <ele>24</ele>
        <time>2015-04-26T07:43:26Z</time>
      </trkpt>
      <trkpt lat="50.62366" lon="3.17364">
        <ele>24</ele>
        <time>2015-04-26T07:43:30Z</time>
      </trkpt>
      <trkpt lat="50.62362" lon="3.1736">
        <ele>24</ele>
        <time>2015-04-26T07:43:31Z</time>
      </trkpt>
      <trkpt lat="50.62359" lon="3.17355">
        <ele>24</ele>
        <time>2015-04-26T07:43:32Z</time>
      </trkpt>
      <trkpt lat="50.62352" lon="3.17346">
        <ele>25</ele>
        <time>2015-04-26T07:43:34Z</time>
      </trkpt>
      <trkpt lat="50.62335" lon="3.17325">
        <ele>25</ele>
        <time>2015-04-26T07:43:39Z</time>
      </trkpt>
      <trkpt lat="50.62324" lon="3.17313">
        <ele>25</ele>
        <time>2015-04-26T07:43:42Z</time>
      </trkpt>
      <trkpt lat="50.62316" lon="3.17306">
        <ele>25</ele>
        <time>2015-04-26T07:43:44Z</time>
      </trkpt>
      <trkpt lat="50.62296" lon="3.17288">
        <ele>24</ele>
        <time>2015-04-26T07:43:49Z</time>
      </trkpt>
      <trkpt lat="50.62285" lon="3.17275">
        <ele>25</ele>
        <time>2015-04-26T07:43:52Z</time>
      </trkpt>
      <trkpt lat="50.62278" lon="3.17266">
        <ele>25</ele>
        <time>2015-04-26T07:43:54Z</time>
      </trkpt>
      <trkpt lat="50.62275" lon="3.1726">
        <ele>25</ele>
        <time>2015-04-26T07:43:55Z</time>
      </trkpt>
      <trkpt lat="50.62273" lon="3.17255">
        <ele>25</ele>
        <time>2015-04-26T07:43:56Z</time>
      </trkpt>
      <trkpt lat="50.6227" lon="3.17249">
        <ele>25</ele>
        <time>2015-04-26T07:43:57Z</time>
      </trkpt>
      <trkpt lat="50.62268" lon="3.17243">
        <ele>25</ele>
        <time>2015-04-26T07:43:58Z</time>
      </trkpt>
      <trkpt lat="50.62257" lon="3.17212">
        <ele>25</ele>
        <time>2015-04-26T07:44:03Z</time>
      </trkpt>
      <trkpt lat="50.62226" lon="3.17169">
        <ele>25</ele>
        <time>2015-04-26T07:44:12Z</time>
      </trkpt>
      <trkpt lat="50.62197" lon="3.17136">
        <ele>25</ele>
        <time>2015-04-26T07:44:20Z</time>
      </trkpt>
      <trkpt lat="50.62194" lon="3.17133">
        <ele>25</ele>
        <time>2015-04-26T07:44:21Z</time>
      </trkpt>
      <trkpt lat="50.6219" lon="3.17132">
        <ele>25</ele>
        <time>2015-04-26T07:44:22Z</time>
      </trkpt>
      <trkpt lat="50.62187" lon="3.17132">
        <ele>25</ele>
        <time>2015-04-26T07:44:23Z</time>
      </trkpt>
      <trkpt lat="50.62184" lon="3.17135">
        <ele>25</ele>
        <time>2015-04-26T07:44:24Z</time>
      </trkpt>
      <trkpt lat="50.62182" lon="3.17139">
        <ele>25</ele>
        <time>2015-04-26T07:44:25Z</time>
      </trkpt>
      <trkpt lat="50.62182" lon="3.17144">
        <ele>25</ele>
        <time>2015-04-26T07:44:26Z</time>
      </trkpt>
      <trkpt lat="50.62183" lon="3.1715">
        <ele>25</ele>
        <time>2015-04-26T07:44:27Z</time>
      </trkpt>
      <trkpt lat="50.62184" lon="3.17156">
        <ele>25</ele>
        <time>2015-04-26T07:44:28Z</time>
      </trkpt>
      <trkpt lat="50.62194" lon="3.1721">
        <ele>25</ele>
        <time>2015-04-26T07:44:36Z</time>
      </trkpt>
      <trkpt lat="50.62203" lon="3.17273">
        <ele>25</ele>
        <time>2015-04-26T07:44:44Z</time>
      </trkpt>
      <trkpt lat="50.62209" lon="3.17314">
        <ele>25</ele>
        <time>2015-04-26T07:44:49Z</time>
      </trkpt>
      <trkpt lat="50.62217" lon="3.17362">
        <ele>24</ele>
        <time>2015-04-26T07:44:55Z</time>
      </trkpt>
      <trkpt lat="50.62217" lon="3.17379">
        <ele>24</ele>
        <time>2015-04-26T07:44:57Z</time>
      </trkpt>
      <trkpt lat="50.62217" lon="3.17388">
        <ele>24</ele>
        <time>2015-04-26T07:44:58Z</time>
      </trkpt>
      <trkpt lat="50.62204" lon="3.17456">
        <ele>24</ele>
        <time>2015-04-26T07:45:06Z</time>
      </trkpt>
      <trkpt lat="50.62192" lon="3.17532">
        <ele>24</ele>
        <time>2015-04-26T07:45:15Z</time>
      </trkpt>
      <trkpt lat="50.62191" lon="3.1754">
        <ele>24</ele>
        <time>2015-04-26T07:45:16Z</time>
      </trkpt>
      <trkpt lat="50.62181" lon="3.17631">
        <ele>24</ele>
        <time>2015-04-26T07:45:27Z</time>
      </trkpt>
      <trkpt lat="50.62177" lon="3.17691">
        <ele>24</ele>
        <time>2015-04-26T07:45:34Z</time>
      </trkpt>
      <trkpt lat="50.62168" lon="3.17752">
        <ele>24</ele>
        <time>2015-04-26T07:45:41Z</time>
      </trkpt>
      <trkpt lat="50.62165" lon="3.17777">
        <ele>25</ele>
        <time>2015-04-26T07:45:44Z</time>
      </trkpt>
      <trkpt lat="50.62162" lon="3.17794">
        <ele>25</ele>
        <time>2015-04-26T07:45:46Z</time>
      </trkpt>
      <trkpt lat="50.62152" lon="3.17841">
        <ele>25</ele>
        <time>2015-04-26T07:45:52Z</time>
      </trkpt>
      <trkpt lat="50.62151" lon="3.17849">
        <ele>25</ele>
        <time>2015-04-26T07:45:53Z</time>
      </trkpt>
      <trkpt lat="50.6215" lon="3.17857">
        <ele>25</ele>
        <time>2015-04-26T07:45:54Z</time>
      </trkpt>
      <trkpt lat="50.62143" lon="3.179">
        <ele>25</ele>
        <time>2015-04-26T07:45:59Z</time>
      </trkpt>
      <trkpt lat="50.62142" lon="3.1791">
        <ele>25</ele>
        <time>2015-04-26T07:46:00Z</time>
      </trkpt>
      <trkpt lat="50.62132" lon="3.17986">
        <ele>25</ele>
        <time>2015-04-26T07:46:08Z</time>
      </trkpt>
      <trkpt lat="50.62122" lon="3.18066">
        <ele>25</ele>
        <time>2015-04-26T07:46:17Z</time>
      </trkpt>
      <trkpt lat="50.6212" lon="3.1808">
        <ele>25</ele>
        <time>2015-04-26T07:46:19Z</time>
      </trkpt>
      <trkpt lat="50.62119" lon="3.18087">
        <ele>25</ele>
        <time>2015-04-26T07:46:20Z</time>
      </trkpt>
      <trkpt lat="50.62118" lon="3.18093">
        <ele>25</ele>
        <time>2015-04-26T07:46:21Z</time>
      </trkpt>
      <trkpt lat="50.62117" lon="3.18099">
        <ele>25</ele>
        <time>2015-04-26T07:46:22Z</time>
      </trkpt>
      <trkpt lat="50.62116" lon="3.18104">
        <ele>25</ele>
        <time>2015-04-26T07:46:23Z</time>
      </trkpt>
      <trkpt lat="50.62113" lon="3.18107">
        <ele>25</ele>
        <time>2015-04-26T07:46:24Z</time>
      </trkpt>
      <trkpt lat="50.62111" lon="3.18108">
        <ele>25</ele>
        <time>2015-04-26T07:46:25Z</time>
      </trkpt>
      <trkpt lat="50.62109" lon="3.18107">
        <ele>25</ele>
        <time>2015-04-26T07:46:26Z</time>
      </trkpt>
      <trkpt lat="50.62107" lon="3.18105">
        <ele>25</ele>
        <time>2015-04-26T07:46:27Z</time>
      </trkpt>
      <trkpt lat="50.62106" lon="3.18103">
        <ele>25</ele>
        <time>2015-04-26T07:46:28Z</time>
      </trkpt>
      <trkpt lat="50.62095" lon="3.18087">
        <ele>25</ele>
        <time>2015-04-26T07:46:33Z</time>
      </trkpt>
      <trkpt lat="50.62074" lon="3.18043">
        <ele>25</ele>
        <time>2015-04-26T07:46:41Z</time>
      </trkpt>
      <trkpt lat="50.62071" lon="3.18042">
        <ele>25</ele>
        <time>2015-04-26T07:46:42Z</time>
      </trkpt>
      <trkpt lat="50.62068" lon="3.18044">
        <ele>25</ele>
        <time>2015-04-26T07:46:43Z</time>
      </trkpt>
      <trkpt lat="50.62065" lon="3.18048">
        <ele>25</ele>
        <time>2015-04-26T07:46:44Z</time>
      </trkpt>
      <trkpt lat="50.62063" lon="3.18054">
        <ele>25</ele>
        <time>2015-04-26T07:46:45Z</time>
      </trkpt>
      <trkpt lat="50.62062" lon="3.1806">
        <ele>25</ele>
        <time>2015-04-26T07:46:46Z</time>
      </trkpt>
      <trkpt lat="50.62061" lon="3.18068">
        <ele>25</ele>
        <time>2015-04-26T07:46:47Z</time>
      </trkpt>
      <trkpt lat="50.62061" lon="3.18076">
        <ele>25</ele>
        <time>2015-04-26T07:46:48Z</time>
      </trkpt>
      <trkpt lat="50.6206" lon="3.18108">
        <ele>25</ele>
        <time>2015-04-26T07:46:52Z</time>
      </trkpt>
      <trkpt lat="50.62063" lon="3.18151">
        <ele>25</ele>
        <time>2015-04-26T07:46:57Z</time>
      </trkpt>
      <trkpt lat="50.62062" lon="3.18178">
        <ele>25</ele>
        <time>2015-04-26T07:47:00Z</time>
      </trkpt>
      <trkpt lat="50.62061" lon="3.18187">
        <ele>25</ele>
        <time>2015-04-26T07:47:01Z</time>
      </trkpt>
      <trkpt lat="50.62052" lon="3.18234">
        <ele>25</ele>
        <time>2015-04-26T07:47:06Z</time>
      </trkpt>
      <trkpt lat="50.62048" lon="3.18242">
        <ele>25</ele>
        <time>2015-04-26T07:47:07Z</time>
      </trkpt>
      <trkpt lat="50.62015" lon="3.18303">
        <ele>25</ele>
        <time>2015-04-26T07:47:15Z</time>
      </trkpt>
      <trkpt lat="50.61997" lon="3.18343">
        <ele>25</ele>
        <time>2015-04-26T07:47:20Z</time>
      </trkpt>
      <trkpt lat="50.61994" lon="3.1835">
        <ele>25</ele>
        <time>2015-04-26T07:47:21Z</time>
      </trkpt>
      <trkpt lat="50.61971" lon="3.18412">
        <ele>25</ele>
        <time>2015-04-26T07:47:29Z</time>
      </trkpt>
      <trkpt lat="50.61966" lon="3.18426">
        <ele>25</ele>
        <time>2015-04-26T07:47:31Z</time>
      </trkpt>
      <trkpt lat="50.61941" lon="3.18479">
        <ele>25</ele>
        <time>2015-04-26T07:47:39Z</time>
      </trkpt>
      <trkpt lat="50.61928" lon="3.18503">
        <ele>25</ele>
        <time>2015-04-26T07:47:43Z</time>
      </trkpt>
      <trkpt lat="50.61921" lon="3.18515">
        <ele>25</ele>
        <time>2015-04-26T07:47:45Z</time>
      </trkpt>
      <trkpt lat="50.61915" lon="3.18526">
        <ele>24</ele>
        <time>2015-04-26T07:47:47Z</time>
      </trkpt>
      <trkpt lat="50.61911" lon="3.18532">
        <ele>24</ele>
        <time>2015-04-26T07:47:48Z</time>
      </trkpt>
      <trkpt lat="50.61901" lon="3.18547">
        <ele>24</ele>
        <time>2015-04-26T07:47:51Z</time>
      </trkpt>
      <trkpt lat="50.61898" lon="3.18551">
        <ele>24</ele>
        <time>2015-04-26T07:47:52Z</time>
      </trkpt>
      <trkpt lat="50.6186" lon="3.18587">
        <ele>24</ele>
        <time>2015-04-26T07:48:01Z</time>
      </trkpt>
      <trkpt lat="50.61851" lon="3.18595">
        <ele>24</ele>
        <time>2015-04-26T07:48:03Z</time>
      </trkpt>
      <trkpt lat="50.61846" lon="3.18599">
        <ele>24</ele>
        <time>2015-04-26T07:48:04Z</time>
      </trkpt>
      <trkpt lat="50.61829" lon="3.18615">
        <ele>24</ele>
        <time>2015-04-26T07:48:08Z</time>
      </trkpt>
      <trkpt lat="50.61825" lon="3.18618">
        <ele>24</ele>
        <time>2015-04-26T07:48:09Z</time>
      </trkpt>
      <trkpt lat="50.61821" lon="3.18622">
        <ele>24</ele>
        <time>2015-04-26T07:48:10Z</time>
      </trkpt>
      <trkpt lat="50.61789" lon="3.18647">
        <ele>24</ele>
        <time>2015-04-26T07:48:17Z</time>
      </trkpt>
      <trkpt lat="50.61756" lon="3.18672">
        <ele>24</ele>
        <time>2015-04-26T07:48:25Z</time>
      </trkpt>
      <trkpt lat="50.61727" lon="3.18692">
        <ele>25</ele>
        <time>2015-04-26T07:48:33Z</time>
      </trkpt>
      <trkpt lat="50.61724" lon="3.18703">
        <ele>25</ele>
        <time>2015-04-26T07:48:36Z</time>
      </trkpt>
      <trkpt lat="50.61725" lon="3.18706">
        <ele>25</ele>
        <time>2015-04-26T07:48:37Z</time>
      </trkpt>
      <trkpt lat="50.61727" lon="3.1871">
        <ele>25</ele>
        <time>2015-04-26T07:48:38Z</time>
      </trkpt>
      <trkpt lat="50.6173" lon="3.18713">
        <ele>25</ele>
        <time>2015-04-26T07:48:39Z</time>
      </trkpt>
      <trkpt lat="50.61733" lon="3.18716">
        <ele>25</ele>
        <time>2015-04-26T07:48:40Z</time>
      </trkpt>
      <trkpt lat="50.61766" lon="3.18745">
        <ele>24</ele>
        <time>2015-04-26T07:48:48Z</time>
      </trkpt>
      <trkpt lat="50.61805" lon="3.1878">
        <ele>24</ele>
        <time>2015-04-26T07:48:56Z</time>
      </trkpt>
      <trkpt lat="50.61809" lon="3.18786">
        <ele>24</ele>
        <time>2015-04-26T07:48:57Z</time>
      </trkpt>
      <trkpt lat="50.61812" lon="3.18794">
        <ele>24</ele>
        <time>2015-04-26T07:48:58Z</time>
      </trkpt>
      <trkpt lat="50.61825" lon="3.1887">
        <ele>25</ele>
        <time>2015-04-26T07:49:06Z</time>
      </trkpt>
      <trkpt lat="50.61843" lon="3.18983">
        <ele>25</ele>
        <time>2015-04-26T07:49:17Z</time>
      </trkpt>
      <trkpt lat="50.61863" lon="3.19101">
        <ele>26</ele>
        <time>2015-04-26T07:49:28Z</time>
      </trkpt>
      <trkpt lat="50.61882" lon="3.19211">
        <ele>26</ele>
        <time>2015-04-26T07:49:38Z</time>
      </trkpt>
      <trkpt lat="50.619" lon="3.19319">
        <ele>27</ele>
        <time>2015-04-26T07:49:48Z</time>
      </trkpt>
      <trkpt lat="50.61906" lon="3.19351">
        <ele>27</ele>
        <time>2015-04-26T07:49:52Z</time>
      </trkpt>
      <trkpt lat="50.61905" lon="3.19358">
        <ele>27</ele>
        <time>2015-04-26T07:49:54Z</time>
      </trkpt>
      <trkpt lat="50.61903" lon="3.1936">
        <ele>27</ele>
        <time>2015-04-26T07:49:55Z</time>
      </trkpt>
      <trkpt lat="50.61901" lon="3.19361">
        <ele>27</ele>
        <time>2015-04-26T07:49:56Z</time>
      </trkpt>
      <trkpt lat="50.61898" lon="3.1936">
        <ele>27</ele>
        <time>2015-04-26T07:49:57Z</time>
      </trkpt>
      <trkpt lat="50.61894" lon="3.19359">
        <ele>27</ele>
        <time>2015-04-26T07:49:58Z</time>
      </trkpt>
      <trkpt lat="50.61863" lon="3.19347">
        <ele>27</ele>
        <time>2015-04-26T07:50:06Z</time>
      </trkpt>
      <trkpt lat="50.6185" lon="3.19342">
        <ele>27</ele>
        <time>2015-04-26T07:50:09Z</time>
      </trkpt>
      <trkpt lat="50.61833" lon="3.19332">
        <ele>27</ele>
        <time>2015-04-26T07:50:13Z</time>
      </trkpt>
      <trkpt lat="50.61825" lon="3.19325">
        <ele>27</ele>
        <time>2015-04-26T07:50:15Z</time>
      </trkpt>
      <trkpt lat="50.61813" lon="3.19312">
        <ele>28</ele>
        <time>2015-04-26T07:50:18Z</time>
      </trkpt>
      <trkpt lat="50.61809" lon="3.19307">
        <ele>28</ele>
        <time>2015-04-26T07:50:19Z</time>
      </trkpt>
      <trkpt lat="50.61805" lon="3.19303">
        <ele>28</ele>
        <time>2015-04-26T07:50:20Z</time>
      </trkpt>
      <trkpt lat="50.61769" lon="3.19265">
        <ele>28</ele>
        <time>2015-04-26T07:50:29Z</time>
      </trkpt>
      <trkpt lat="50.61737" lon="3.19232">
        <ele>29</ele>
        <time>2015-04-26T07:50:37Z</time>
      </trkpt>
      <trkpt lat="50.61733" lon="3.19228">
        <ele>29</ele>
        <time>2015-04-26T07:50:38Z</time>
      </trkpt>
      <trkpt lat="50.61695" lon="3.19188">
        <ele>30</ele>
        <time>2015-04-26T07:50:48Z</time>
      </trkpt>
      <trkpt lat="50.6166" lon="3.19153">
        <ele>30</ele>
        <time>2015-04-26T07:50:58Z</time>
      </trkpt>
      <trkpt lat="50.61644" lon="3.19143">
        <ele>30</ele>
        <time>2015-04-26T07:51:03Z</time>
      </trkpt>
      <trkpt lat="50.61642" lon="3.19146">
        <ele>30</ele>
        <time>2015-04-26T07:51:04Z</time>
      </trkpt>
      <trkpt lat="50.6164" lon="3.19151">
        <ele>30</ele>
        <time>2015-04-26T07:51:05Z</time>
      </trkpt>
      <trkpt lat="50.61635" lon="3.19169">
        <ele>30</ele>
        <time>2015-04-26T07:51:08Z</time>
      </trkpt>
      <trkpt lat="50.61631" lon="3.1918">
        <ele>30</ele>
        <time>2015-04-26T07:51:10Z</time>
      </trkpt>
      <trkpt lat="50.61626" lon="3.19191">
        <ele>30</ele>
        <time>2015-04-26T07:51:12Z</time>
      </trkpt>
      <trkpt lat="50.61613" lon="3.19223">
        <ele>31</ele>
        <time>2015-04-26T07:51:17Z</time>
      </trkpt>
      <trkpt lat="50.61594" lon="3.19271">
        <ele>30</ele>
        <time>2015-04-26T07:51:24Z</time>
      </trkpt>
      <trkpt lat="50.61573" lon="3.19314">
        <ele>30</ele>
        <time>2015-04-26T07:51:30Z</time>
      </trkpt>
      <trkpt lat="50.61569" lon="3.1932">
        <ele>30</ele>
        <time>2015-04-26T07:51:31Z</time>
      </trkpt>
      <trkpt lat="50.61565" lon="3.19327">
        <ele>30</ele>
        <time>2015-04-26T07:51:32Z</time>
      </trkpt>
      <trkpt lat="50.61563" lon="3.19335">
        <ele>29</ele>
        <time>2015-04-26T07:51:33Z</time>
      </trkpt>
      <trkpt lat="50.6156" lon="3.19343">
        <ele>29</ele>
        <time>2015-04-26T07:51:34Z</time>
      </trkpt>
      <trkpt lat="50.61535" lon="3.194">
        <ele>28</ele>
        <time>2015-04-26T07:51:41Z</time>
      </trkpt>
      <trkpt lat="50.6153" lon="3.19408">
        <ele>28</ele>
        <time>2015-04-26T07:51:42Z</time>
      </trkpt>
      <trkpt lat="50.61525" lon="3.19414">
        <ele>28</ele>
        <time>2015-04-26T07:51:43Z</time>
      </trkpt>
      <trkpt lat="50.61519" lon="3.19419">
        <ele>28</ele>
        <time>2015-04-26T07:51:44Z</time>
      </trkpt>
      <trkpt lat="50.61512" lon="3.19424">
        <ele>28</ele>
        <time>2015-04-26T07:51:45Z</time>
      </trkpt>
      <trkpt lat="50.61505" lon="3.19427">
        <ele>28</ele>
        <time>2015-04-26T07:51:46Z</time>
      </trkpt>
      <trkpt lat="50.61499" lon="3.1943">
        <ele>28</ele>
        <time>2015-04-26T07:51:47Z</time>
      </trkpt>
      <trkpt lat="50.61485" lon="3.19432">
        <ele>28</ele>
        <time>2015-04-26T07:51:49Z</time>
      </trkpt>
      <trkpt lat="50.61469" lon="3.1943">
        <ele>28</ele>
        <time>2015-04-26T07:51:52Z</time>
      </trkpt>
      <trkpt lat="50.61466" lon="3.19433">
        <ele>28</ele>
        <time>2015-04-26T07:51:53Z</time>
      </trkpt>
      <trkpt lat="50.61464" lon="3.19437">
        <ele>28</ele>
        <time>2015-04-26T07:51:54Z</time>
      </trkpt>
      <trkpt lat="50.61462" lon="3.19441">
        <ele>28</ele>
        <time>2015-04-26T07:51:55Z</time>
      </trkpt>
      <trkpt lat="50.61459" lon="3.19446">
        <ele>28</ele>
        <time>2015-04-26T07:51:56Z</time>
      </trkpt>
      <trkpt lat="50.61457" lon="3.19451">
        <ele>28</ele>
        <time>2015-04-26T07:51:57Z</time>
      </trkpt>
      <trkpt lat="50.61439" lon="3.19471">
        <ele>28</ele>
        <time>2015-04-26T07:52:03Z</time>
      </trkpt>
      <trkpt lat="50.61406" lon="3.19479">
        <ele>27</ele>
        <time>2015-04-26T07:52:10Z</time>
      </trkpt>
      <trkpt lat="50.61371" lon="3.19491">
        <ele>27</ele>
        <time>2015-04-26T07:52:17Z</time>
      </trkpt>
      <trkpt lat="50.61324" lon="3.19506">
        <ele>26</ele>
        <time>2015-04-26T07:52:26Z</time>
      </trkpt>
      <trkpt lat="50.61273" lon="3.19514">
        <ele>26</ele>
        <time>2015-04-26T07:52:35Z</time>
      </trkpt>
      <trkpt lat="50.61263" lon="3.19514">
        <ele>26</ele>
        <time>2015-04-26T07:52:37Z</time>
      </trkpt>
      <trkpt lat="50.61258" lon="3.19516">
        <ele>26</ele>
        <time>2015-04-26T07:52:38Z</time>
      </trkpt>
      <trkpt lat="50.61253" lon="3.1952">
        <ele>26</ele>
        <time>2015-04-26T07:52:39Z</time>
      </trkpt>
      <trkpt lat="50.61237" lon="3.19533">
        <ele>27</ele>
        <time>2015-04-26T07:52:43Z</time>
      </trkpt>
      <trkpt lat="50.61232" lon="3.19535">
        <ele>27</ele>
        <time>2015-04-26T07:52:44Z</time>
      </trkpt>
      <trkpt lat="50.61227" lon="3.19536">
        <ele>27</ele>
        <time>2015-04-26T07:52:45Z</time>
      </trkpt>
      <trkpt lat="50.61222" lon="3.19536">
        <ele>27</ele>
        <time>2015-04-26T07:52:46Z</time>
      </trkpt>
      <trkpt lat="50.61217" lon="3.19536">
        <ele>27</ele>
        <time>2015-04-26T07:52:47Z</time>
      </trkpt>
      <trkpt lat="50.61211" lon="3.19536">
        <ele>27</ele>
        <time>2015-04-26T07:52:48Z</time>
      </trkpt>
      <trkpt lat="50.61206" lon="3.19537">
        <ele>27</ele>
        <time>2015-04-26T07:52:49Z</time>
      </trkpt>
      <trkpt lat="50.61178" lon="3.19536">
        <ele>27</ele>
        <time>2015-04-26T07:52:55Z</time>
      </trkpt>
      <trkpt lat="50.61162" lon="3.19536">
        <ele>27</ele>
        <time>2015-04-26T07:53:00Z</time>
      </trkpt>
      <trkpt lat="50.6114" lon="3.19529">
        <ele>27</ele>
        <time>2015-04-26T07:53:06Z</time>
      </trkpt>
      <trkpt lat="50.6113" lon="3.19529">
        <ele>27</ele>
        <time>2015-04-26T07:53:08Z</time>
      </trkpt>
      <trkpt lat="50.6112" lon="3.19526">
        <ele>27</ele>
        <time>2015-04-26T07:53:10Z</time>
      </trkpt>
      <trkpt lat="50.61087" lon="3.19509">
        <ele>27</ele>
        <time>2015-04-26T07:53:16Z</time>
      </trkpt>
      <trkpt lat="50.61081" lon="3.19509">
        <ele>27</ele>
        <time>2015-04-26T07:53:17Z</time>
      </trkpt>
      <trkpt lat="50.61076" lon="3.1951">
        <ele>27</ele>
        <time>2015-04-26T07:53:18Z</time>
      </trkpt>
      <trkpt lat="50.61038" lon="3.19525">
        <ele>26</ele>
        <time>2015-04-26T07:53:25Z</time>
      </trkpt>
      <trkpt lat="50.6101" lon="3.19536">
        <ele>26</ele>
        <time>2015-04-26T07:53:30Z</time>
      </trkpt>
      <trkpt lat="50.61005" lon="3.19539">
        <ele>26</ele>
        <time>2015-04-26T07:53:31Z</time>
      </trkpt>
      <trkpt lat="50.61001" lon="3.19545">
        <ele>26</ele>
        <time>2015-04-26T07:53:32Z</time>
      </trkpt>
      <trkpt lat="50.60997" lon="3.19551">
        <ele>25</ele>
        <time>2015-04-26T07:53:33Z</time>
      </trkpt>
      <trkpt lat="50.60994" lon="3.19559">
        <ele>25</ele>
        <time>2015-04-26T07:53:34Z</time>
      </trkpt>
      <trkpt lat="50.60991" lon="3.19567">
        <ele>26</ele>
        <time>2015-04-26T07:53:35Z</time>
      </trkpt>
      <trkpt lat="50.60981" lon="3.19592">
        <ele>26</ele>
        <time>2015-04-26T07:53:38Z</time>
      </trkpt>
      <trkpt lat="50.60977" lon="3.196">
        <ele>26</ele>
        <time>2015-04-26T07:53:39Z</time>
      </trkpt>
      <trkpt lat="50.60968" lon="3.19622">
        <ele>26</ele>
        <time>2015-04-26T07:53:42Z</time>
      </trkpt>
      <trkpt lat="50.60964" lon="3.19628">
        <ele>26</ele>
        <time>2015-04-26T07:53:43Z</time>
      </trkpt>
      <trkpt lat="50.60958" lon="3.19632">
        <ele>26</ele>
        <time>2015-04-26T07:53:44Z</time>
      </trkpt>
      <trkpt lat="50.60952" lon="3.19636">
        <ele>26</ele>
        <time>2015-04-26T07:53:45Z</time>
      </trkpt>
      <trkpt lat="50.60946" lon="3.19638">
        <ele>26</ele>
        <time>2015-04-26T07:53:46Z</time>
      </trkpt>
      <trkpt lat="50.6094" lon="3.1964">
        <ele>26</ele>
        <time>2015-04-26T07:53:47Z</time>
      </trkpt>
      <trkpt lat="50.60934" lon="3.19643">
        <ele>26</ele>
        <time>2015-04-26T07:53:48Z</time>
      </trkpt>
      <trkpt lat="50.60928" lon="3.19647">
        <ele>26</ele>
        <time>2015-04-26T07:53:49Z</time>
      </trkpt>
      <trkpt lat="50.60912" lon="3.19661">
        <ele>26</ele>
        <time>2015-04-26T07:53:52Z</time>
      </trkpt>
      <trkpt lat="50.60874" lon="3.19699">
        <ele>26</ele>
        <time>2015-04-26T07:53:59Z</time>
      </trkpt>
      <trkpt lat="50.60868" lon="3.19703">
        <ele>26</ele>
        <time>2015-04-26T07:54:00Z</time>
      </trkpt>
      <trkpt lat="50.60829" lon="3.19734">
        <ele>26</ele>
        <time>2015-04-26T07:54:07Z</time>
      </trkpt>
      <trkpt lat="50.60788" lon="3.19767">
        <ele>28</ele>
        <time>2015-04-26T07:54:15Z</time>
      </trkpt>
      <trkpt lat="50.6075" lon="3.19792">
        <ele>28</ele>
        <time>2015-04-26T07:54:22Z</time>
      </trkpt>
      <trkpt lat="50.60728" lon="3.19804">
        <ele>28</ele>
        <time>2015-04-26T07:54:26Z</time>
      </trkpt>
      <trkpt lat="50.60723" lon="3.19808">
        <ele>28</ele>
        <time>2015-04-26T07:54:27Z</time>
      </trkpt>
      <trkpt lat="50.60718" lon="3.19813">
        <ele>28</ele>
        <time>2015-04-26T07:54:28Z</time>
      </trkpt>
      <trkpt lat="50.60696" lon="3.19833">
        <ele>28</ele>
        <time>2015-04-26T07:54:33Z</time>
      </trkpt>
      <trkpt lat="50.60694" lon="3.19835">
        <ele>28</ele>
        <time>2015-04-26T07:54:34Z</time>
      </trkpt>
      <trkpt lat="50.60694" lon="3.19838">
        <ele>28</ele>
        <time>2015-04-26T07:54:35Z</time>
      </trkpt>
      <trkpt lat="50.60694" lon="3.19843">
        <ele>28</ele>
        <time>2015-04-26T07:54:36Z</time>
      </trkpt>
      <trkpt lat="50.60694" lon="3.19847">
        <ele>28</ele>
        <time>2015-04-26T07:54:37Z</time>
      </trkpt>
      <trkpt lat="50.60695" lon="3.19852">
        <ele>28</ele>
        <time>2015-04-26T07:54:38Z</time>
      </trkpt>
      <trkpt lat="50.60696" lon="3.19856">
        <ele>28</ele>
        <time>2015-04-26T07:54:39Z</time>
      </trkpt>
      <trkpt lat="50.60698" lon="3.1986">
        <ele>28</ele>
        <time>2015-04-26T07:54:40Z</time>
      </trkpt>
      <trkpt lat="50.60699" lon="3.19863">
        <ele>28</ele>
        <time>2015-04-26T07:54:41Z</time>
      </trkpt>
      <trkpt lat="50.60697" lon="3.19865">
        <ele>28</ele>
        <time>2015-04-26T07:54:42Z</time>
      </trkpt>
      <trkpt lat="50.60693" lon="3.19867">
        <ele>28</ele>
        <time>2015-04-26T07:54:43Z</time>
      </trkpt>
      <trkpt lat="50.6069" lon="3.19869">
        <ele>28</ele>
        <time>2015-04-26T07:54:44Z</time>
      </trkpt>
      <trkpt lat="50.60687" lon="3.19871">
        <ele>28</ele>
        <time>2015-04-26T07:54:45Z</time>
      </trkpt>
      <trkpt lat="50.60684" lon="3.19874">
        <ele>28</ele>
        <time>2015-04-26T07:54:46Z</time>
      </trkpt>
      <trkpt lat="50.60676" lon="3.19887">
        <ele>28</ele>
        <time>2015-04-26T07:54:49Z</time>
      </trkpt>
      <trkpt lat="50.60672" lon="3.19891">
        <ele>28</ele>
        <time>2015-04-26T07:54:50Z</time>
      </trkpt>
      <trkpt lat="50.60663" lon="3.19905">
        <ele>28</ele>
        <time>2015-04-26T07:54:53Z</time>
      </trkpt>
      <trkpt lat="50.60659" lon="3.1991">
        <ele>28</ele>
        <time>2015-04-26T07:54:54Z</time>
      </trkpt>
      <trkpt lat="50.60653" lon="3.19914">
        <ele>28</ele>
        <time>2015-04-26T07:54:55Z</time>
      </trkpt>
      <trkpt lat="50.60647" lon="3.19918">
        <ele>27</ele>
        <time>2015-04-26T07:54:56Z</time>
      </trkpt>
      <trkpt lat="50.60641" lon="3.1992">
        <ele>27</ele>
        <time>2015-04-26T07:54:57Z</time>
      </trkpt>
      <trkpt lat="50.60635" lon="3.19921">
        <ele>28</ele>
        <time>2015-04-26T07:54:58Z</time>
      </trkpt>
      <trkpt lat="50.60629" lon="3.19921">
        <ele>28</ele>
        <time>2015-04-26T07:54:59Z</time>
      </trkpt>
      <trkpt lat="50.60623" lon="3.1992">
        <ele>28</ele>
        <time>2015-04-26T07:55:00Z</time>
      </trkpt>
      <trkpt lat="50.60617" lon="3.1992">
        <ele>28</ele>
        <time>2015-04-26T07:55:01Z</time>
      </trkpt>
      <trkpt lat="50.60611" lon="3.19921">
        <ele>28</ele>
        <time>2015-04-26T07:55:02Z</time>
      </trkpt>
      <trkpt lat="50.60606" lon="3.19922">
        <ele>28</ele>
        <time>2015-04-26T07:55:03Z</time>
      </trkpt>
      <trkpt lat="50.606" lon="3.19924">
        <ele>28</ele>
        <time>2015-04-26T07:55:04Z</time>
      </trkpt>
      <trkpt lat="50.60594" lon="3.19927">
        <ele>28</ele>
        <time>2015-04-26T07:55:05Z</time>
      </trkpt>
      <trkpt lat="50.60583" lon="3.19933">
        <ele>28</ele>
        <time>2015-04-26T07:55:07Z</time>
      </trkpt>
      <trkpt lat="50.60578" lon="3.19937">
        <ele>28</ele>
        <time>2015-04-26T07:55:08Z</time>
      </trkpt>
      <trkpt lat="50.60574" lon="3.19942">
        <ele>28</ele>
        <time>2015-04-26T07:55:09Z</time>
      </trkpt>
      <trkpt lat="50.6057" lon="3.19947">
        <ele>28</ele>
        <time>2015-04-26T07:55:10Z</time>
      </trkpt>
      <trkpt lat="50.60567" lon="3.19953">
        <ele>28</ele>
        <time>2015-04-26T07:55:11Z</time>
      </trkpt>
      <trkpt lat="50.60563" lon="3.1996">
        <ele>28</ele>
        <time>2015-04-26T07:55:12Z</time>
      </trkpt>
      <trkpt lat="50.6056" lon="3.19968">
        <ele>28</ele>
        <time>2015-04-26T07:55:13Z</time>
      </trkpt>
      <trkpt lat="50.60557" lon="3.19974">
        <ele>28</ele>
        <time>2015-04-26T07:55:14Z</time>
      </trkpt>
      <trkpt lat="50.60554" lon="3.19979">
        <ele>28</ele>
        <time>2015-04-26T07:55:15Z</time>
      </trkpt>
      <trkpt lat="50.60551" lon="3.19984">
        <ele>27</ele>
        <time>2015-04-26T07:55:16Z</time>
      </trkpt>
      <trkpt lat="50.60547" lon="3.19988">
        <ele>27</ele>
        <time>2015-04-26T07:55:17Z</time>
      </trkpt>
      <trkpt lat="50.60542" lon="3.19992">
        <ele>27</ele>
        <time>2015-04-26T07:55:18Z</time>
      </trkpt>
      <trkpt lat="50.60537" lon="3.19996">
        <ele>27</ele>
        <time>2015-04-26T07:55:19Z</time>
      </trkpt>
      <trkpt lat="50.60534" lon="3.19999">
        <ele>27</ele>
        <time>2015-04-26T07:55:20Z</time>
      </trkpt>
      <trkpt lat="50.6053" lon="3.20004">
        <ele>27</ele>
        <time>2015-04-26T07:55:21Z</time>
      </trkpt>
      <trkpt lat="50.60526" lon="3.20009">
        <ele>27</ele>
        <time>2015-04-26T07:55:22Z</time>
      </trkpt>
      <trkpt lat="50.60522" lon="3.2001">
        <ele>27</ele>
        <time>2015-04-26T07:55:23Z</time>
      </trkpt>
      <trkpt lat="50.60518" lon="3.20009">
        <ele>27</ele>
        <time>2015-04-26T07:55:24Z</time>
      </trkpt>
      <trkpt lat="50.60515" lon="3.20006">
        <ele>26</ele>
        <time>2015-04-26T07:55:25Z</time>
      </trkpt>
      <trkpt lat="50.60513" lon="3.20002">
        <ele>26</ele>
        <time>2015-04-26T07:55:26Z</time>
      </trkpt>
      <trkpt lat="50.6051" lon="3.19999">
        <ele>26</ele>
        <time>2015-04-26T07:55:27Z</time>
      </trkpt>
      <trkpt lat="50.60506" lon="3.19998">
        <ele>26</ele>
        <time>2015-04-26T07:55:28Z</time>
      </trkpt>
      <trkpt lat="50.60502" lon="3.19999">
        <ele>26</ele>
        <time>2015-04-26T07:55:29Z</time>
      </trkpt>
      <trkpt lat="50.60498" lon="3.20003">
        <ele>26</ele>
        <time>2015-04-26T07:55:30Z</time>
      </trkpt>
      <trkpt lat="50.60494" lon="3.20008">
        <ele>26</ele>
        <time>2015-04-26T07:55:31Z</time>
      </trkpt>
      <trkpt lat="50.60489" lon="3.20014">
        <ele>26</ele>
        <time>2015-04-26T07:55:32Z</time>
      </trkpt>
      <trkpt lat="50.60484" lon="3.2002">
        <ele>26</ele>
        <time>2015-04-26T07:55:33Z</time>
      </trkpt>
      <trkpt lat="50.60479" lon="3.20027">
        <ele>25</ele>
        <time>2015-04-26T07:55:34Z</time>
      </trkpt>
      <trkpt lat="50.60475" lon="3.20034">
        <ele>25</ele>
        <time>2015-04-26T07:55:35Z</time>
      </trkpt>
      <trkpt lat="50.60442" lon="3.20083">
        <ele>25</ele>
        <time>2015-04-26T07:55:42Z</time>
      </trkpt>
      <trkpt lat="50.60405" lon="3.20134">
        <ele>26</ele>
        <time>2015-04-26T07:55:50Z</time>
      </trkpt>
      <trkpt lat="50.60367" lon="3.20179">
        <ele>26</ele>
        <time>2015-04-26T07:55:58Z</time>
      </trkpt>
      <trkpt lat="50.60329" lon="3.20229">
        <ele>25</ele>
        <time>2015-04-26T07:56:06Z</time>
      </trkpt>
      <trkpt lat="50.60309" lon="3.20252">
        <ele>26</ele>
        <time>2015-04-26T07:56:10Z</time>
      </trkpt>
      <trkpt lat="50.60303" lon="3.20256">
        <ele>26</ele>
        <time>2015-04-26T07:56:11Z</time>
      </trkpt>
      <trkpt lat="50.60286" lon="3.20266">
        <ele>25</ele>
        <time>2015-04-26T07:56:14Z</time>
      </trkpt>
      <trkpt lat="50.60281" lon="3.2027">
        <ele>25</ele>
        <time>2015-04-26T07:56:15Z</time>
      </trkpt>
      <trkpt lat="50.60272" lon="3.20279">
        <ele>25</ele>
        <time>2015-04-26T07:56:17Z</time>
      </trkpt>
      <trkpt lat="50.60267" lon="3.20282">
        <ele>25</ele>
        <time>2015-04-26T07:56:18Z</time>
      </trkpt>
      <trkpt lat="50.60261" lon="3.20284">
        <ele>25</ele>
        <time>2015-04-26T07:56:19Z</time>
      </trkpt>
      <trkpt lat="50.60255" lon="3.20284">
        <ele>25</ele>
        <time>2015-04-26T07:56:20Z</time>
      </trkpt>
      <trkpt lat="50.60249" lon="3.20282">
        <ele>25</ele>
        <time>2015-04-26T07:56:21Z</time>
      </trkpt>
      <trkpt lat="50.60243" lon="3.20278">
        <ele>25</ele>
        <time>2015-04-26T07:56:22Z</time>
      </trkpt>
      <trkpt lat="50.60238" lon="3.20273">
        <ele>25</ele>
        <time>2015-04-26T07:56:23Z</time>
      </trkpt>
      <trkpt lat="50.60234" lon="3.20265">
        <ele>25</ele>
        <time>2015-04-26T07:56:24Z</time>
      </trkpt>
      <trkpt lat="50.60233" lon="3.20255">
        <ele>25</ele>
        <time>2015-04-26T07:56:25Z</time>
      </trkpt>
      <trkpt lat="50.60232" lon="3.20245">
        <ele>24</ele>
        <time>2015-04-26T07:56:26Z</time>
      </trkpt>
      <trkpt lat="50.60231" lon="3.20236">
        <ele>24</ele>
        <time>2015-04-26T07:56:27Z</time>
      </trkpt>
      <trkpt lat="50.60229" lon="3.20228">
        <ele>25</ele>
        <time>2015-04-26T07:56:28Z</time>
      </trkpt>
      <trkpt lat="50.60225" lon="3.20222">
        <ele>25</ele>
        <time>2015-04-26T07:56:29Z</time>
      </trkpt>
      <trkpt lat="50.6022" lon="3.20217">
        <ele>25</ele>
        <time>2015-04-26T07:56:30Z</time>
      </trkpt>
      <trkpt lat="50.60215" lon="3.20213">
        <ele>25</ele>
        <time>2015-04-26T07:56:31Z</time>
      </trkpt>
      <trkpt lat="50.60209" lon="3.20209">
        <ele>25</ele>
        <time>2015-04-26T07:56:32Z</time>
      </trkpt>
      <trkpt lat="50.60204" lon="3.20204">
        <ele>25</ele>
        <time>2015-04-26T07:56:33Z</time>
      </trkpt>
      <trkpt lat="50.60167" lon="3.20172">
        <ele>25</ele>
        <time>2015-04-26T07:56:40Z</time>
      </trkpt>
      <trkpt lat="50.60163" lon="3.20165">
        <ele>25</ele>
        <time>2015-04-26T07:56:41Z</time>
      </trkpt>
      <trkpt lat="50.6016" lon="3.20158">
        <ele>25</ele>
        <time>2015-04-26T07:56:42Z</time>
      </trkpt>
      <trkpt lat="50.60145" lon="3.20077">
        <ele>26</ele>
        <time>2015-04-26T07:56:51Z</time>
      </trkpt>
      <trkpt lat="50.60138" lon="3.20045">
        <ele>26</ele>
        <time>2015-04-26T07:56:55Z</time>
      </trkpt>
      <trkpt lat="50.60135" lon="3.20038">
        <ele>26</ele>
        <time>2015-04-26T07:56:56Z</time>
      </trkpt>
      <trkpt lat="50.60134" lon="3.2003">
        <ele>26</ele>
        <time>2015-04-26T07:56:57Z</time>
      </trkpt>
      <trkpt lat="50.60133" lon="3.20023">
        <ele>26</ele>
        <time>2015-04-26T07:56:58Z</time>
      </trkpt>
      <trkpt lat="50.6013" lon="3.20016">
        <ele>26</ele>
        <time>2015-04-26T07:56:59Z</time>
      </trkpt>
      <trkpt lat="50.60127" lon="3.20011">
        <ele>26</ele>
        <time>2015-04-26T07:57:00Z</time>
      </trkpt>
      <trkpt lat="50.60123" lon="3.20008">
        <ele>26</ele>
        <time>2015-04-26T07:57:01Z</time>
      </trkpt>
      <trkpt lat="50.60119" lon="3.20006">
        <ele>26</ele>
        <time>2015-04-26T07:57:02Z</time>
      </trkpt>
      <trkpt lat="50.60115" lon="3.20004">
        <ele>26</ele>
        <time>2015-04-26T07:57:03Z</time>
      </trkpt>
      <trkpt lat="50.6011" lon="3.20002">
        <ele>26</ele>
        <time>2015-04-26T07:57:04Z</time>
      </trkpt>
      <trkpt lat="50.60105" lon="3.20001">
        <ele>27</ele>
        <time>2015-04-26T07:57:05Z</time>
      </trkpt>
      <trkpt lat="50.60096" lon="3.2">
        <ele>27</ele>
        <time>2015-04-26T07:57:07Z</time>
      </trkpt>
      <trkpt lat="50.60057" lon="3.20009">
        <ele>26</ele>
        <time>2015-04-26T07:57:14Z</time>
      </trkpt>
      <trkpt lat="50.60013" lon="3.20033">
        <ele>26</ele>
        <time>2015-04-26T07:57:22Z</time>
      </trkpt>
      <trkpt lat="50.5997" lon="3.20057">
        <ele>25</ele>
        <time>2015-04-26T07:57:31Z</time>
      </trkpt>
      <trkpt lat="50.5995" lon="3.20076">
        <ele>24</ele>
        <time>2015-04-26T07:57:37Z</time>
      </trkpt>
      <trkpt lat="50.59952" lon="3.20093">
        <ele>24</ele>
        <time>2015-04-26T07:57:41Z</time>
      </trkpt>
      <trkpt lat="50.59953" lon="3.20096">
        <ele>24</ele>
        <time>2015-04-26T07:57:42Z</time>
      </trkpt>
      <trkpt lat="50.59954" lon="3.20098">
        <ele>24</ele>
        <time>2015-04-26T07:57:43Z</time>
      </trkpt>
      <trkpt lat="50.59955" lon="3.201">
        <ele>24</ele>
        <time>2015-04-26T07:57:44Z</time>
      </trkpt>
      <trkpt lat="50.59955" lon="3.20102">
        <ele>24</ele>
        <time>2015-04-26T07:57:45Z</time>
      </trkpt>
      <trkpt lat="50.59955" lon="3.20103">
        <ele>24</ele>
        <time>2015-04-26T07:57:46Z</time>
      </trkpt>
      <trkpt lat="50.59956" lon="3.20106">
        <ele>24</ele>
        <time>2015-04-26T07:57:47Z</time>
      </trkpt>
      <trkpt lat="50.59956" lon="3.20109">
        <ele>24</ele>
        <time>2015-04-26T07:57:48Z</time>
      </trkpt>
      <trkpt lat="50.59957" lon="3.20113">
        <ele>24</ele>
        <time>2015-04-26T07:57:49Z</time>
      </trkpt>
      <trkpt lat="50.59958" lon="3.20118">
        <ele>24</ele>
        <time>2015-04-26T07:57:50Z</time>
      </trkpt>
      <trkpt lat="50.59959" lon="3.20123">
        <ele>25</ele>
        <time>2015-04-26T07:57:51Z</time>
      </trkpt>
      <trkpt lat="50.59959" lon="3.20129">
        <ele>24</ele>
        <time>2015-04-26T07:57:52Z</time>
      </trkpt>
      <trkpt lat="50.5996" lon="3.20135">
        <ele>24</ele>
        <time>2015-04-26T07:57:53Z</time>
      </trkpt>
      <trkpt lat="50.59965" lon="3.20169">
        <ele>25</ele>
        <time>2015-04-26T07:57:58Z</time>
      </trkpt>
      <trkpt lat="50.59966" lon="3.20191">
        <ele>25</ele>
        <time>2015-04-26T07:58:01Z</time>
      </trkpt>
      <trkpt lat="50.59967" lon="3.20198">
        <ele>25</ele>
        <time>2015-04-26T07:58:02Z</time>
      </trkpt>
      <trkpt lat="50.59969" lon="3.20226">
        <ele>26</ele>
        <time>2015-04-26T07:58:06Z</time>
      </trkpt>
      <trkpt lat="50.59968" lon="3.20233">
        <ele>26</ele>
        <time>2015-04-26T07:58:07Z</time>
      </trkpt>
      <trkpt lat="50.59966" lon="3.2024">
        <ele>26</ele>
        <time>2015-04-26T07:58:08Z</time>
      </trkpt>
      <trkpt lat="50.59964" lon="3.20247">
        <ele>26</ele>
        <time>2015-04-26T07:58:09Z</time>
      </trkpt>
      <trkpt lat="50.59961" lon="3.20254">
        <ele>27</ele>
        <time>2015-04-26T07:58:10Z</time>
      </trkpt>
      <trkpt lat="50.59951" lon="3.2028">
        <ele>27</ele>
        <time>2015-04-26T07:58:14Z</time>
      </trkpt>
      <trkpt lat="50.59943" lon="3.20304">
        <ele>28</ele>
        <time>2015-04-26T07:58:18Z</time>
      </trkpt>
      <trkpt lat="50.59941" lon="3.2031">
        <ele>28</ele>
        <time>2015-04-26T07:58:19Z</time>
      </trkpt>
      <trkpt lat="50.5994" lon="3.20316">
        <ele>28</ele>
        <time>2015-04-26T07:58:20Z</time>
      </trkpt>
      <trkpt lat="50.59938" lon="3.20322">
        <ele>28</ele>
        <time>2015-04-26T07:58:21Z</time>
      </trkpt>
      <trkpt lat="50.59936" lon="3.20327">
        <ele>28</ele>
        <time>2015-04-26T07:58:22Z</time>
      </trkpt>
      <trkpt lat="50.59927" lon="3.2034">
        <ele>29</ele>
        <time>2015-04-26T07:58:26Z</time>
      </trkpt>
      <trkpt lat="50.59925" lon="3.2034">
        <ele>29</ele>
        <time>2015-04-26T07:58:27Z</time>
      </trkpt>
      <trkpt lat="50.59923" lon="3.2034">
        <ele>29</ele>
        <time>2015-04-26T07:58:28Z</time>
      </trkpt>
      <trkpt lat="50.59921" lon="3.20342">
        <ele>29</ele>
        <time>2015-04-26T07:58:30Z</time>
      </trkpt>
      <trkpt lat="50.59921" lon="3.20344">
        <ele>29</ele>
        <time>2015-04-26T07:58:31Z</time>
      </trkpt>
      <trkpt lat="50.59921" lon="3.20346">
        <ele>29</ele>
        <time>2015-04-26T07:58:32Z</time>
      </trkpt>
      <trkpt lat="50.59922" lon="3.20347">
        <ele>29</ele>
        <time>2015-04-26T07:58:33Z</time>
      </trkpt>
      <trkpt lat="50.59923" lon="3.20346">
        <ele>29</ele>
        <time>2015-04-26T07:58:34Z</time>
      </trkpt>
      <trkpt lat="50.59924" lon="3.20345">
        <ele>29</ele>
        <time>2015-04-26T07:58:35Z</time>
      </trkpt>
      <trkpt lat="50.59926" lon="3.20344">
        <ele>29</ele>
        <time>2015-04-26T07:58:36Z</time>
      </trkpt>
      <trkpt lat="50.59928" lon="3.20345">
        <ele>29</ele>
        <time>2015-04-26T07:58:37Z</time>
      </trkpt>
      <trkpt lat="50.59929" lon="3.20345">
        <ele>29</ele>
        <time>2015-04-26T07:58:38Z</time>
      </trkpt>
      <trkpt lat="50.59931" lon="3.20344">
        <ele>29</ele>
        <time>2015-04-26T07:58:39Z</time>
      </trkpt>
      <trkpt lat="50.59932" lon="3.20343">
        <ele>29</ele>
        <time>2015-04-26T07:58:40Z</time>
      </trkpt>
      <trkpt lat="50.59933" lon="3.20342">
        <ele>29</ele>
        <time>2015-04-26T07:58:41Z</time>
      </trkpt>
      <trkpt lat="50.59934" lon="3.20341">
        <ele>29</ele>
        <time>2015-04-26T07:58:47Z</time>
      </trkpt>
      <trkpt lat="50.59934" lon="3.20341">
        <ele>29</ele>
        <time>2015-04-26T07:58:49Z</time>
      </trkpt>
      <trkpt lat="50.59932" lon="3.20338">
        <ele>29</ele>
        <time>2015-04-26T07:58:55Z</time>
      </trkpt>
      <trkpt lat="50.59932" lon="3.20338">
        <ele>29</ele>
        <time>2015-04-26T07:58:56Z</time>
      </trkpt>
      <trkpt lat="50.5993" lon="3.20338">
        <ele>29</ele>
        <time>2015-04-26T07:58:57Z</time>
      </trkpt>
      <trkpt lat="50.59929" lon="3.20339">
        <ele>29</ele>
        <time>2015-04-26T07:58:58Z</time>
      </trkpt>
      <trkpt lat="50.59927" lon="3.2034">
        <ele>29</ele>
        <time>2015-04-26T07:58:59Z</time>
      </trkpt>
      <trkpt lat="50.59926" lon="3.2034">
        <ele>29</ele>
        <time>2015-04-26T07:59:00Z</time>
      </trkpt>
      <trkpt lat="50.59924" lon="3.20341">
        <ele>29</ele>
        <time>2015-04-26T07:59:01Z</time>
      </trkpt>
      <trkpt lat="50.59922" lon="3.20341">
        <ele>29</ele>
        <time>2015-04-26T07:59:02Z</time>
      </trkpt>
      <trkpt lat="50.59921" lon="3.20342">
        <ele>29</ele>
        <time>2015-04-26T07:59:03Z</time>
      </trkpt>
      <trkpt lat="50.59917" lon="3.20345">
        <ele>29</ele>
        <time>2015-04-26T07:59:06Z</time>
      </trkpt>
      <trkpt lat="50.59918" lon="3.20349">
        <ele>29</ele>
        <time>2015-04-26T07:59:09Z</time>
      </trkpt>
      <trkpt lat="50.59918" lon="3.20351">
        <ele>29</ele>
        <time>2015-04-26T07:59:10Z</time>
      </trkpt>
      <trkpt lat="50.59919" lon="3.20355">
        <ele>29</ele>
        <time>2015-04-26T07:59:11Z</time>
      </trkpt>
      <trkpt lat="50.59918" lon="3.2036">
        <ele>29</ele>
        <time>2015-04-26T07:59:12Z</time>
      </trkpt>
      <trkpt lat="50.59917" lon="3.20366">
        <ele>29</ele>
        <time>2015-04-26T07:59:13Z</time>
      </trkpt>
      <trkpt lat="50.59916" lon="3.20371">
        <ele>31</ele>
        <time>2015-04-26T07:59:14Z</time>
      </trkpt>
      <trkpt lat="50.59915" lon="3.20376">
        <ele>31</ele>
        <time>2015-04-26T07:59:15Z</time>
      </trkpt>
      <trkpt lat="50.59914" lon="3.2038">
        <ele>31</ele>
        <time>2015-04-26T07:59:16Z</time>
      </trkpt>
      <trkpt lat="50.59908" lon="3.20413">
        <ele>31</ele>
        <time>2015-04-26T07:59:23Z</time>
      </trkpt>
      <trkpt lat="50.59904" lon="3.20447">
        <ele>33</ele>
        <time>2015-04-26T07:59:30Z</time>
      </trkpt>
      <trkpt lat="50.599" lon="3.20482">
        <ele>34</ele>
        <time>2015-04-26T07:59:38Z</time>
      </trkpt>
      <trkpt lat="50.59897" lon="3.20508">
        <ele>35</ele>
        <time>2015-04-26T07:59:45Z</time>
      </trkpt>
      <trkpt lat="50.59899" lon="3.20511">
        <ele>35</ele>
        <time>2015-04-26T07:59:46Z</time>
      </trkpt>
      <trkpt lat="50.59901" lon="3.20513">
        <ele>35</ele>
        <time>2015-04-26T07:59:47Z</time>
      </trkpt>
      <trkpt lat="50.59904" lon="3.20515">
        <ele>35</ele>
        <time>2015-04-26T07:59:48Z</time>
      </trkpt>
      <trkpt lat="50.59907" lon="3.20517">
        <ele>35</ele>
        <time>2015-04-26T07:59:49Z</time>
      </trkpt>
      <trkpt lat="50.59936" lon="3.20528">
        <ele>33</ele>
        <time>2015-04-26T07:59:55Z</time>
      </trkpt>
      <trkpt lat="50.59988" lon="3.20548">
        <ele>32</ele>
        <time>2015-04-26T08:00:03Z</time>
      </trkpt>
      <trkpt lat="50.6005" lon="3.20579">
        <ele>30</ele>
        <time>2015-04-26T08:00:12Z</time>
      </trkpt>
      <trkpt lat="50.60097" lon="3.20618">
        <ele>32</ele>
        <time>2015-04-26T08:00:20Z</time>
      </trkpt>
      <trkpt lat="50.60132" lon="3.20645">
        <ele>33</ele>
        <time>2015-04-26T08:00:27Z</time>
      </trkpt>
      <trkpt lat="50.6014" lon="3.20651">
        <ele>33</ele>
        <time>2015-04-26T08:00:29Z</time>
      </trkpt>
      <trkpt lat="50.60143" lon="3.20657">
        <ele>33</ele>
        <time>2015-04-26T08:00:30Z</time>
      </trkpt>
      <trkpt lat="50.60145" lon="3.20664">
        <ele>33</ele>
        <time>2015-04-26T08:00:31Z</time>
      </trkpt>
      <trkpt lat="50.60148" lon="3.20672">
        <ele>34</ele>
        <time>2015-04-26T08:00:32Z</time>
      </trkpt>
      <trkpt lat="50.60152" lon="3.20679">
        <ele>34</ele>
        <time>2015-04-26T08:00:33Z</time>
      </trkpt>
      <trkpt lat="50.60155" lon="3.20685">
        <ele>34</ele>
        <time>2015-04-26T08:00:34Z</time>
      </trkpt>
      <trkpt lat="50.60159" lon="3.20692">
        <ele>34</ele>
        <time>2015-04-26T08:00:35Z</time>
      </trkpt>
      <trkpt lat="50.60164" lon="3.20698">
        <ele>34</ele>
        <time>2015-04-26T08:00:36Z</time>
      </trkpt>
      <trkpt lat="50.60167" lon="3.20705">
        <ele>34</ele>
        <time>2015-04-26T08:00:37Z</time>
      </trkpt>
      <trkpt lat="50.60171" lon="3.20712">
        <ele>34</ele>
        <time>2015-04-26T08:00:38Z</time>
      </trkpt>
      <trkpt lat="50.60174" lon="3.20719">
        <ele>34</ele>
        <time>2015-04-26T08:00:39Z</time>
      </trkpt>
      <trkpt lat="50.60177" lon="3.20727">
        <ele>34</ele>
        <time>2015-04-26T08:00:40Z</time>
      </trkpt>
      <trkpt lat="50.60179" lon="3.20734">
        <ele>34</ele>
        <time>2015-04-26T08:00:41Z</time>
      </trkpt>
      <trkpt lat="50.60182" lon="3.20743">
        <ele>34</ele>
        <time>2015-04-26T08:00:42Z</time>
      </trkpt>
      <trkpt lat="50.60183" lon="3.20751">
        <ele>34</ele>
        <time>2015-04-26T08:00:43Z</time>
      </trkpt>
      <trkpt lat="50.60192" lon="3.20821">
        <ele>35</ele>
        <time>2015-04-26T08:00:51Z</time>
      </trkpt>
      <trkpt lat="50.602" lon="3.20895">
        <ele>36</ele>
        <time>2015-04-26T08:01:00Z</time>
      </trkpt>
      <trkpt lat="50.60201" lon="3.20919">
        <ele>37</ele>
        <time>2015-04-26T08:01:03Z</time>
      </trkpt>
      <trkpt lat="50.60209" lon="3.20991">
        <ele>38</ele>
        <time>2015-04-26T08:01:12Z</time>
      </trkpt>
      <trkpt lat="50.60219" lon="3.21092">
        <ele>39</ele>
        <time>2015-04-26T08:01:24Z</time>
      </trkpt>
      <trkpt lat="50.60228" lon="3.21183">
        <ele>39</ele>
        <time>2015-04-26T08:01:34Z</time>
      </trkpt>
      <trkpt lat="50.60232" lon="3.21229">
        <ele>39</ele>
        <time>2015-04-26T08:01:39Z</time>
      </trkpt>
      <trkpt lat="50.60231" lon="3.21239">
        <ele>39</ele>
        <time>2015-04-26T08:01:40Z</time>
      </trkpt>
      <trkpt lat="50.60228" lon="3.21248">
        <ele>39</ele>
        <time>2015-04-26T08:01:41Z</time>
      </trkpt>
      <trkpt lat="50.60225" lon="3.21257">
        <ele>39</ele>
        <time>2015-04-26T08:01:42Z</time>
      </trkpt>
      <trkpt lat="50.60221" lon="3.21266">
        <ele>39</ele>
        <time>2015-04-26T08:01:43Z</time>
      </trkpt>
      <trkpt lat="50.60188" lon="3.21335">
        <ele>39</ele>
        <time>2015-04-26T08:01:51Z</time>
      </trkpt>
      <trkpt lat="50.60165" lon="3.21399">
        <ele>40</ele>
        <time>2015-04-26T08:01:59Z</time>
      </trkpt>
      <trkpt lat="50.60145" lon="3.21461">
        <ele>41</ele>
        <time>2015-04-26T08:02:07Z</time>
      </trkpt>
      <trkpt lat="50.60129" lon="3.21513">
        <ele>41</ele>
        <time>2015-04-26T08:02:14Z</time>
      </trkpt>
      <trkpt lat="50.6011" lon="3.21578">
        <ele>41</ele>
        <time>2015-04-26T08:02:23Z</time>
      </trkpt>
      <trkpt lat="50.6009" lon="3.21643">
        <ele>42</ele>
        <time>2015-04-26T08:02:32Z</time>
      </trkpt>
      <trkpt lat="50.60065" lon="3.21704">
        <ele>42</ele>
        <time>2015-04-26T08:02:41Z</time>
      </trkpt>
      <trkpt lat="50.60033" lon="3.21768">
        <ele>43</ele>
        <time>2015-04-26T08:02:51Z</time>
      </trkpt>
      <trkpt lat="50.60008" lon="3.21811">
        <ele>43</ele>
        <time>2015-04-26T08:02:59Z</time>
      </trkpt>
      <trkpt lat="50.59982" lon="3.21855">
        <ele>44</ele>
        <time>2015-04-26T08:03:07Z</time>
      </trkpt>
      <trkpt lat="50.59954" lon="3.219">
        <ele>44</ele>
        <time>2015-04-26T08:03:15Z</time>
      </trkpt>
      <trkpt lat="50.59926" lon="3.21944">
        <ele>44</ele>
        <time>2015-04-26T08:03:23Z</time>
      </trkpt>
      <trkpt lat="50.59922" lon="3.2195">
        <ele>44</ele>
        <time>2015-04-26T08:03:24Z</time>
      </trkpt>
      <trkpt lat="50.59918" lon="3.21955">
        <ele>44</ele>
        <time>2015-04-26T08:03:25Z</time>
      </trkpt>
      <trkpt lat="50.59914" lon="3.21961">
        <ele>43</ele>
        <time>2015-04-26T08:03:26Z</time>
      </trkpt>
      <trkpt lat="50.5988" lon="3.2201">
        <ele>43</ele>
        <time>2015-04-26T08:03:35Z</time>
      </trkpt>
      <trkpt lat="50.59846" lon="3.22058">
        <ele>43</ele>
        <time>2015-04-26T08:03:44Z</time>
      </trkpt>
      <trkpt lat="50.59818" lon="3.22095">
        <ele>43</ele>
        <time>2015-04-26T08:03:51Z</time>
      </trkpt>
      <trkpt lat="50.59783" lon="3.22144">
        <ele>44</ele>
        <time>2015-04-26T08:04:00Z</time>
      </trkpt>
      <trkpt lat="50.59756" lon="3.22179">
        <ele>44</ele>
        <time>2015-04-26T08:04:07Z</time>
      </trkpt>
      <trkpt lat="50.59727" lon="3.22209">
        <ele>44</ele>
        <time>2015-04-26T08:04:14Z</time>
      </trkpt>
      <trkpt lat="50.5969" lon="3.2224">
        <ele>44</ele>
        <time>2015-04-26T08:04:23Z</time>
      </trkpt>
      <trkpt lat="50.59672" lon="3.22259">
        <ele>44</ele>
        <time>2015-04-26T08:04:28Z</time>
      </trkpt>
      <trkpt lat="50.59672" lon="3.22263">
        <ele>44</ele>
        <time>2015-04-26T08:04:29Z</time>
      </trkpt>
      <trkpt lat="50.59674" lon="3.22266">
        <ele>44</ele>
        <time>2015-04-26T08:04:30Z</time>
      </trkpt>
      <trkpt lat="50.59677" lon="3.22268">
        <ele>44</ele>
        <time>2015-04-26T08:04:31Z</time>
      </trkpt>
      <trkpt lat="50.5968" lon="3.2227">
        <ele>44</ele>
        <time>2015-04-26T08:04:32Z</time>
      </trkpt>
      <trkpt lat="50.59684" lon="3.22272">
        <ele>44</ele>
        <time>2015-04-26T08:04:33Z</time>
      </trkpt>
      <trkpt lat="50.59688" lon="3.22274">
        <ele>44</ele>
        <time>2015-04-26T08:04:34Z</time>
      </trkpt>
      <trkpt lat="50.59709" lon="3.22288">
        <ele>44</ele>
        <time>2015-04-26T08:04:39Z</time>
      </trkpt>
      <trkpt lat="50.59719" lon="3.22292">
        <ele>44</ele>
        <time>2015-04-26T08:04:41Z</time>
      </trkpt>
      <trkpt lat="50.59767" lon="3.2232">
        <ele>44</ele>
        <time>2015-04-26T08:04:50Z</time>
      </trkpt>
      <trkpt lat="50.59812" lon="3.22347">
        <ele>45</ele>
        <time>2015-04-26T08:04:58Z</time>
      </trkpt>
      <trkpt lat="50.59857" lon="3.22375">
        <ele>45</ele>
        <time>2015-04-26T08:05:06Z</time>
      </trkpt>
      <trkpt lat="50.59916" lon="3.22414">
        <ele>44</ele>
        <time>2015-04-26T08:05:16Z</time>
      </trkpt>
      <trkpt lat="50.5994" lon="3.22429">
        <ele>44</ele>
        <time>2015-04-26T08:05:20Z</time>
      </trkpt>
      <trkpt lat="50.59946" lon="3.22434">
        <ele>44</ele>
        <time>2015-04-26T08:05:21Z</time>
      </trkpt>
      <trkpt lat="50.59952" lon="3.22439">
        <ele>44</ele>
        <time>2015-04-26T08:05:22Z</time>
      </trkpt>
      <trkpt lat="50.60028" lon="3.22486">
        <ele>43</ele>
        <time>2015-04-26T08:05:34Z</time>
      </trkpt>
      <trkpt lat="50.60092" lon="3.22525">
        <ele>43</ele>
        <time>2015-04-26T08:05:44Z</time>
      </trkpt>
      <trkpt lat="50.60151" lon="3.22563">
        <ele>42</ele>
        <time>2015-04-26T08:05:53Z</time>
      </trkpt>
      <trkpt lat="50.60203" lon="3.22595">
        <ele>42</ele>
        <time>2015-04-26T08:06:01Z</time>
      </trkpt>
      <trkpt lat="50.60255" lon="3.22623">
        <ele>41</ele>
        <time>2015-04-26T08:06:09Z</time>
      </trkpt>
      <trkpt lat="50.60261" lon="3.22627">
        <ele>41</ele>
        <time>2015-04-26T08:06:10Z</time>
      </trkpt>
      <trkpt lat="50.60267" lon="3.22632">
        <ele>41</ele>
        <time>2015-04-26T08:06:11Z</time>
      </trkpt>
      <trkpt lat="50.60271" lon="3.22639">
        <ele>41</ele>
        <time>2015-04-26T08:06:12Z</time>
      </trkpt>
      <trkpt lat="50.60274" lon="3.22648">
        <ele>41</ele>
        <time>2015-04-26T08:06:13Z</time>
      </trkpt>
      <trkpt lat="50.60275" lon="3.22658">
        <ele>41</ele>
        <time>2015-04-26T08:06:14Z</time>
      </trkpt>
      <trkpt lat="50.60275" lon="3.22668">
        <ele>41</ele>
        <time>2015-04-26T08:06:15Z</time>
      </trkpt>
      <trkpt lat="50.60272" lon="3.22738">
        <ele>41</ele>
        <time>2015-04-26T08:06:22Z</time>
      </trkpt>
      <trkpt lat="50.60266" lon="3.22835">
        <ele>41</ele>
        <time>2015-04-26T08:06:32Z</time>
      </trkpt>
      <trkpt lat="50.60259" lon="3.22915">
        <ele>41</ele>
        <time>2015-04-26T08:06:41Z</time>
      </trkpt>
      <trkpt lat="50.60259" lon="3.22922">
        <ele>41</ele>
        <time>2015-04-26T08:06:42Z</time>
      </trkpt>
      <trkpt lat="50.60256" lon="3.22946">
        <ele>41</ele>
        <time>2015-04-26T08:06:47Z</time>
      </trkpt>
      <trkpt lat="50.60259" lon="3.2296">
        <ele>41</ele>
        <time>2015-04-26T08:06:53Z</time>
      </trkpt>
      <trkpt lat="50.60263" lon="3.22962">
        <ele>41</ele>
        <time>2015-04-26T08:06:55Z</time>
      </trkpt>
      <trkpt lat="50.60266" lon="3.22962">
        <ele>41</ele>
        <time>2015-04-26T08:06:57Z</time>
      </trkpt>
      <trkpt lat="50.60268" lon="3.22963">
        <ele>41</ele>
        <time>2015-04-26T08:06:58Z</time>
      </trkpt>
      <trkpt lat="50.6027" lon="3.22966">
        <ele>41</ele>
        <time>2015-04-26T08:06:59Z</time>
      </trkpt>
      <trkpt lat="50.60273" lon="3.22969">
        <ele>41</ele>
        <time>2015-04-26T08:07:00Z</time>
      </trkpt>
      <trkpt lat="50.60278" lon="3.22972">
        <ele>41</ele>
        <time>2015-04-26T08:07:01Z</time>
      </trkpt>
      <trkpt lat="50.60282" lon="3.22973">
        <ele>41</ele>
        <time>2015-04-26T08:07:02Z</time>
      </trkpt>
      <trkpt lat="50.60288" lon="3.22974">
        <ele>41</ele>
        <time>2015-04-26T08:07:03Z</time>
      </trkpt>
      <trkpt lat="50.60293" lon="3.22974">
        <ele>40</ele>
        <time>2015-04-26T08:07:04Z</time>
      </trkpt>
      <trkpt lat="50.60319" lon="3.22976">
        <ele>40</ele>
        <time>2015-04-26T08:07:09Z</time>
      </trkpt>
      <trkpt lat="50.60323" lon="3.22979">
        <ele>40</ele>
        <time>2015-04-26T08:07:10Z</time>
      </trkpt>
      <trkpt lat="50.60326" lon="3.22984">
        <ele>40</ele>
        <time>2015-04-26T08:07:11Z</time>
      </trkpt>
      <trkpt lat="50.60327" lon="3.23002">
        <ele>40</ele>
        <time>2015-04-26T08:07:14Z</time>
      </trkpt>
      <trkpt lat="50.60325" lon="3.23008">
        <ele>40</ele>
        <time>2015-04-26T08:07:15Z</time>
      </trkpt>
      <trkpt lat="50.60322" lon="3.23013">
        <ele>40</ele>
        <time>2015-04-26T08:07:16Z</time>
      </trkpt>
      <trkpt lat="50.6032" lon="3.23018">
        <ele>40</ele>
        <time>2015-04-26T08:07:17Z</time>
      </trkpt>
      <trkpt lat="50.60306" lon="3.23045">
        <ele>40</ele>
        <time>2015-04-26T08:07:23Z</time>
      </trkpt>
      <trkpt lat="50.60297" lon="3.23074">
        <ele>40</ele>
        <time>2015-04-26T08:07:28Z</time>
      </trkpt>
      <trkpt lat="50.60296" lon="3.23081">
        <ele>40</ele>
        <time>2015-04-26T08:07:29Z</time>
      </trkpt>
      <trkpt lat="50.60289" lon="3.23143">
        <ele>41</ele>
        <time>2015-04-26T08:07:37Z</time>
      </trkpt>
      <trkpt lat="50.60283" lon="3.23213">
        <ele>42</ele>
        <time>2015-04-26T08:07:46Z</time>
      </trkpt>
      <trkpt lat="50.60276" lon="3.23283">
        <ele>42</ele>
        <time>2015-04-26T08:07:55Z</time>
      </trkpt>
      <trkpt lat="50.6027" lon="3.23345">
        <ele>42</ele>
        <time>2015-04-26T08:08:03Z</time>
      </trkpt>
      <trkpt lat="50.60263" lon="3.23429">
        <ele>42</ele>
        <time>2015-04-26T08:08:14Z</time>
      </trkpt>
      <trkpt lat="50.60257" lon="3.23499">
        <ele>42</ele>
        <time>2015-04-26T08:08:23Z</time>
      </trkpt>
      <trkpt lat="50.60251" lon="3.23563">
        <ele>42</ele>
        <time>2015-04-26T08:08:31Z</time>
      </trkpt>
      <trkpt lat="50.60243" lon="3.23649">
        <ele>43</ele>
        <time>2015-04-26T08:08:41Z</time>
      </trkpt>
      <trkpt lat="50.60235" lon="3.23742">
        <ele>44</ele>
        <time>2015-04-26T08:08:52Z</time>
      </trkpt>
      <trkpt lat="50.60228" lon="3.23818">
        <ele>44</ele>
        <time>2015-04-26T08:09:01Z</time>
      </trkpt>
      <trkpt lat="50.60228" lon="3.23827">
        <ele>44</ele>
        <time>2015-04-26T08:09:02Z</time>
      </trkpt>
      <trkpt lat="50.60227" lon="3.23835">
        <ele>45</ele>
        <time>2015-04-26T08:09:03Z</time>
      </trkpt>
      <trkpt lat="50.6022" lon="3.23903">
        <ele>44</ele>
        <time>2015-04-26T08:09:11Z</time>
      </trkpt>
      <trkpt lat="50.6022" lon="3.23912">
        <ele>44</ele>
        <time>2015-04-26T08:09:12Z</time>
      </trkpt>
      <trkpt lat="50.60221" lon="3.23921">
        <ele>44</ele>
        <time>2015-04-26T08:09:13Z</time>
      </trkpt>
      <trkpt lat="50.60224" lon="3.23948">
        <ele>44</ele>
        <time>2015-04-26T08:09:16Z</time>
      </trkpt>
      <trkpt lat="50.60241" lon="3.24004">
        <ele>43</ele>
        <time>2015-04-26T08:09:23Z</time>
      </trkpt>
      <trkpt lat="50.60246" lon="3.2401">
        <ele>43</ele>
        <time>2015-04-26T08:09:24Z</time>
      </trkpt>
      <trkpt lat="50.60251" lon="3.24014">
        <ele>43</ele>
        <time>2015-04-26T08:09:25Z</time>
      </trkpt>
      <trkpt lat="50.60256" lon="3.24018">
        <ele>43</ele>
        <time>2015-04-26T08:09:26Z</time>
      </trkpt>
      <trkpt lat="50.60262" lon="3.24022">
        <ele>43</ele>
        <time>2015-04-26T08:09:27Z</time>
      </trkpt>
      <trkpt lat="50.60312" lon="3.24055">
        <ele>43</ele>
        <time>2015-04-26T08:09:36Z</time>
      </trkpt>
      <trkpt lat="50.60323" lon="3.24063">
        <ele>43</ele>
        <time>2015-04-26T08:09:38Z</time>
      </trkpt>
      <trkpt lat="50.60379" lon="3.24094">
        <ele>42</ele>
        <time>2015-04-26T08:09:47Z</time>
      </trkpt>
      <trkpt lat="50.60437" lon="3.24129">
        <ele>41</ele>
        <time>2015-04-26T08:09:56Z</time>
      </trkpt>
      <trkpt lat="50.60486" lon="3.2417">
        <ele>40</ele>
        <time>2015-04-26T08:10:04Z</time>
      </trkpt>
      <trkpt lat="50.6054" lon="3.24218">
        <ele>41</ele>
        <time>2015-04-26T08:10:13Z</time>
      </trkpt>
      <trkpt lat="50.60589" lon="3.24263">
        <ele>42</ele>
        <time>2015-04-26T08:10:21Z</time>
      </trkpt>
      <trkpt lat="50.60654" lon="3.24326">
        <ele>41</ele>
        <time>2015-04-26T08:10:31Z</time>
      </trkpt>
      <trkpt lat="50.60712" lon="3.24365">
        <ele>38</ele>
        <time>2015-04-26T08:10:39Z</time>
      </trkpt>
      <trkpt lat="50.60772" lon="3.244">
        <ele>37</ele>
        <time>2015-04-26T08:10:47Z</time>
      </trkpt>
      <trkpt lat="50.60837" lon="3.24464">
        <ele>36</ele>
        <time>2015-04-26T08:10:57Z</time>
      </trkpt>
      <trkpt lat="50.60858" lon="3.24483">
        <ele>36</ele>
        <time>2015-04-26T08:11:01Z</time>
      </trkpt>
      <trkpt lat="50.60861" lon="3.24489">
        <ele>36</ele>
        <time>2015-04-26T08:11:02Z</time>
      </trkpt>
      <trkpt lat="50.60863" lon="3.24496">
        <ele>36</ele>
        <time>2015-04-26T08:11:03Z</time>
      </trkpt>
      <trkpt lat="50.60867" lon="3.24509">
        <ele>36</ele>
        <time>2015-04-26T08:11:05Z</time>
      </trkpt>
      <trkpt lat="50.60869" lon="3.24514">
        <ele>36</ele>
        <time>2015-04-26T08:11:06Z</time>
      </trkpt>
      <trkpt lat="50.60882" lon="3.24534">
        <ele>36</ele>
        <time>2015-04-26T08:11:10Z</time>
      </trkpt>
      <trkpt lat="50.60887" lon="3.24537">
        <ele>36</ele>
        <time>2015-04-26T08:11:11Z</time>
      </trkpt>
      <trkpt lat="50.60892" lon="3.24538">
        <ele>36</ele>
        <time>2015-04-26T08:11:12Z</time>
      </trkpt>
      <trkpt lat="50.60903" lon="3.24539">
        <ele>36</ele>
        <time>2015-04-26T08:11:14Z</time>
      </trkpt>
      <trkpt lat="50.60913" lon="3.24539">
        <ele>36</ele>
        <time>2015-04-26T08:11:16Z</time>
      </trkpt>
      <trkpt lat="50.60918" lon="3.24539">
        <ele>34</ele>
        <time>2015-04-26T08:11:17Z</time>
      </trkpt>
      <trkpt lat="50.60933" lon="3.2454">
        <ele>34</ele>
        <time>2015-04-26T08:11:21Z</time>
      </trkpt>
      <trkpt lat="50.60937" lon="3.24544">
        <ele>34</ele>
        <time>2015-04-26T08:11:22Z</time>
      </trkpt>
      <trkpt lat="50.60941" lon="3.24548">
        <ele>34</ele>
        <time>2015-04-26T08:11:23Z</time>
      </trkpt>
      <trkpt lat="50.60946" lon="3.24553">
        <ele>34</ele>
        <time>2015-04-26T08:11:24Z</time>
      </trkpt>
      <trkpt lat="50.6095" lon="3.24557">
        <ele>34</ele>
        <time>2015-04-26T08:11:25Z</time>
      </trkpt>
      <trkpt lat="50.60954" lon="3.24563">
        <ele>34</ele>
        <time>2015-04-26T08:11:26Z</time>
      </trkpt>
      <trkpt lat="50.60972" lon="3.24582">
        <ele>33</ele>
        <time>2015-04-26T08:11:30Z</time>
      </trkpt>
      <trkpt lat="50.60983" lon="3.24592">
        <ele>33</ele>
        <time>2015-04-26T08:11:33Z</time>
      </trkpt>
      <trkpt lat="50.60987" lon="3.2459">
        <ele>33</ele>
        <time>2015-04-26T08:11:34Z</time>
      </trkpt>
      <trkpt lat="50.6099" lon="3.24586">
        <ele>33</ele>
        <time>2015-04-26T08:11:35Z</time>
      </trkpt>
      <trkpt lat="50.61017" lon="3.2454">
        <ele>31</ele>
        <time>2015-04-26T08:11:42Z</time>
      </trkpt>
      <trkpt lat="50.61045" lon="3.24488">
        <ele>31</ele>
        <time>2015-04-26T08:11:49Z</time>
      </trkpt>
      <trkpt lat="50.6106" lon="3.24458">
        <ele>30</ele>
        <time>2015-04-26T08:11:53Z</time>
      </trkpt>
      <trkpt lat="50.61087" lon="3.2437">
        <ele>29</ele>
        <time>2015-04-26T08:12:03Z</time>
      </trkpt>
      <trkpt lat="50.61103" lon="3.24298">
        <ele>29</ele>
        <time>2015-04-26T08:12:11Z</time>
      </trkpt>
      <trkpt lat="50.61106" lon="3.24288">
        <ele>30</ele>
        <time>2015-04-26T08:12:12Z</time>
      </trkpt>
      <trkpt lat="50.61124" lon="3.24209">
        <ele>30</ele>
        <time>2015-04-26T08:12:21Z</time>
      </trkpt>
      <trkpt lat="50.61139" lon="3.24143">
        <ele>30</ele>
        <time>2015-04-26T08:12:29Z</time>
      </trkpt>
      <trkpt lat="50.61157" lon="3.24073">
        <ele>29</ele>
        <time>2015-04-26T08:12:38Z</time>
      </trkpt>
      <trkpt lat="50.61159" lon="3.24065">
        <ele>30</ele>
        <time>2015-04-26T08:12:39Z</time>
      </trkpt>
      <trkpt lat="50.61175" lon="3.24001">
        <ele>29</ele>
        <time>2015-04-26T08:12:47Z</time>
      </trkpt>
      <trkpt lat="50.61196" lon="3.23919">
        <ele>28</ele>
        <time>2015-04-26T08:12:57Z</time>
      </trkpt>
      <trkpt lat="50.6122" lon="3.23838">
        <ele>28</ele>
        <time>2015-04-26T08:13:07Z</time>
      </trkpt>
      <trkpt lat="50.61237" lon="3.23764">
        <ele>28</ele>
        <time>2015-04-26T08:13:16Z</time>
      </trkpt>
      <trkpt lat="50.61255" lon="3.23679">
        <ele>28</ele>
        <time>2015-04-26T08:13:26Z</time>
      </trkpt>
      <trkpt lat="50.61269" lon="3.2361">
        <ele>28</ele>
        <time>2015-04-26T08:13:34Z</time>
      </trkpt>
      <trkpt lat="50.61292" lon="3.23543">
        <ele>28</ele>
        <time>2015-04-26T08:13:42Z</time>
      </trkpt>
      <trkpt lat="50.61326" lon="3.23458">
        <ele>28</ele>
        <time>2015-04-26T08:13:53Z</time>
      </trkpt>
      <trkpt lat="50.61354" lon="3.23381">
        <ele>28</ele>
        <time>2015-04-26T08:14:03Z</time>
      </trkpt>
      <trkpt lat="50.61375" lon="3.2333">
        <ele>28</ele>
        <time>2015-04-26T08:14:10Z</time>
      </trkpt>
      <trkpt lat="50.61379" lon="3.23324">
        <ele>28</ele>
        <time>2015-04-26T08:14:11Z</time>
      </trkpt>
      <trkpt lat="50.61383" lon="3.23319">
        <ele>28</ele>
        <time>2015-04-26T08:14:12Z</time>
      </trkpt>
      <trkpt lat="50.61388" lon="3.23315">
        <ele>28</ele>
        <time>2015-04-26T08:14:13Z</time>
      </trkpt>
      <trkpt lat="50.61393" lon="3.23311">
        <ele>28</ele>
        <time>2015-04-26T08:14:14Z</time>
      </trkpt>
      <trkpt lat="50.61397" lon="3.23306">
        <ele>28</ele>
        <time>2015-04-26T08:14:15Z</time>
      </trkpt>
      <trkpt lat="50.61429" lon="3.23258">
        <ele>29</ele>
        <time>2015-04-26T08:14:23Z</time>
      </trkpt>
      <trkpt lat="50.61432" lon="3.2325">
        <ele>29</ele>
        <time>2015-04-26T08:14:24Z</time>
      </trkpt>
      <trkpt lat="50.61435" lon="3.23242">
        <ele>29</ele>
        <time>2015-04-26T08:14:25Z</time>
      </trkpt>
      <trkpt lat="50.61437" lon="3.23234">
        <ele>30</ele>
        <time>2015-04-26T08:14:26Z</time>
      </trkpt>
      <trkpt lat="50.6144" lon="3.23226">
        <ele>30</ele>
        <time>2015-04-26T08:14:27Z</time>
      </trkpt>
      <trkpt lat="50.61447" lon="3.23202">
        <ele>30</ele>
        <time>2015-04-26T08:14:30Z</time>
      </trkpt>
      <trkpt lat="50.61462" lon="3.2315">
        <ele>30</ele>
        <time>2015-04-26T08:14:37Z</time>
      </trkpt>
      <trkpt lat="50.61463" lon="3.23143">
        <ele>30</ele>
        <time>2015-04-26T08:14:38Z</time>
      </trkpt>
      <trkpt lat="50.6147" lon="3.23118">
        <ele>30</ele>
        <time>2015-04-26T08:14:43Z</time>
      </trkpt>
      <trkpt lat="50.61471" lon="3.23116">
        <ele>30</ele>
        <time>2015-04-26T08:14:44Z</time>
      </trkpt>
      <trkpt lat="50.61474" lon="3.23116">
        <ele>30</ele>
        <time>2015-04-26T08:14:45Z</time>
      </trkpt>
      <trkpt lat="50.61476" lon="3.23118">
        <ele>30</ele>
        <time>2015-04-26T08:14:46Z</time>
      </trkpt>
      <trkpt lat="50.61478" lon="3.23122">
        <ele>30</ele>
        <time>2015-04-26T08:14:47Z</time>
      </trkpt>
      <trkpt lat="50.6148" lon="3.23126">
        <ele>30</ele>
        <time>2015-04-26T08:14:48Z</time>
      </trkpt>
      <trkpt lat="50.61483" lon="3.2313">
        <ele>30</ele>
        <time>2015-04-26T08:14:49Z</time>
      </trkpt>
      <trkpt lat="50.61486" lon="3.23135">
        <ele>30</ele>
        <time>2015-04-26T08:14:50Z</time>
      </trkpt>
      <trkpt lat="50.61515" lon="3.23178">
        <ele>30</ele>
        <time>2015-04-26T08:14:58Z</time>
      </trkpt>
      <trkpt lat="50.61527" lon="3.23197">
        <ele>30</ele>
        <time>2015-04-26T08:15:03Z</time>
      </trkpt>
      <trkpt lat="50.6153" lon="3.23196">
        <ele>30</ele>
        <time>2015-04-26T08:15:04Z</time>
      </trkpt>
      <trkpt lat="50.61544" lon="3.23179">
        <ele>30</ele>
        <time>2015-04-26T08:15:08Z</time>
      </trkpt>
      <trkpt lat="50.6155" lon="3.23169">
        <ele>30</ele>
        <time>2015-04-26T08:15:10Z</time>
      </trkpt>
      <trkpt lat="50.61557" lon="3.2316">
        <ele>30</ele>
        <time>2015-04-26T08:15:12Z</time>
      </trkpt>
      <trkpt lat="50.61582" lon="3.23132">
        <ele>30</ele>
        <time>2015-04-26T08:15:18Z</time>
      </trkpt>
      <trkpt lat="50.61591" lon="3.23122">
        <ele>29</ele>
        <time>2015-04-26T08:15:20Z</time>
      </trkpt>
      <trkpt lat="50.61636" lon="3.23086">
        <ele>29</ele>
        <time>2015-04-26T08:15:29Z</time>
      </trkpt>
      <trkpt lat="50.61648" lon="3.2307">
        <ele>29</ele>
        <time>2015-04-26T08:15:32Z</time>
      </trkpt>
      <trkpt lat="50.61651" lon="3.23064">
        <ele>29</ele>
        <time>2015-04-26T08:15:33Z</time>
      </trkpt>
      <trkpt lat="50.61684" lon="3.23023">
        <ele>28</ele>
        <time>2015-04-26T08:15:41Z</time>
      </trkpt>
      <trkpt lat="50.61713" lon="3.22987">
        <ele>28</ele>
        <time>2015-04-26T08:15:48Z</time>
      </trkpt>
      <trkpt lat="50.61718" lon="3.22983">
        <ele>28</ele>
        <time>2015-04-26T08:15:49Z</time>
      </trkpt>
      <trkpt lat="50.61732" lon="3.22968">
        <ele>28</ele>
        <time>2015-04-26T08:15:52Z</time>
      </trkpt>
      <trkpt lat="50.61736" lon="3.22963">
        <ele>28</ele>
        <time>2015-04-26T08:15:53Z</time>
      </trkpt>
      <trkpt lat="50.61744" lon="3.22951">
        <ele>28</ele>
        <time>2015-04-26T08:15:55Z</time>
      </trkpt>
      <trkpt lat="50.6175" lon="3.22938">
        <ele>28</ele>
        <time>2015-04-26T08:15:57Z</time>
      </trkpt>
      <trkpt lat="50.61753" lon="3.22931">
        <ele>29</ele>
        <time>2015-04-26T08:15:58Z</time>
      </trkpt>
      <trkpt lat="50.61755" lon="3.22924">
        <ele>29</ele>
        <time>2015-04-26T08:15:59Z</time>
      </trkpt>
      <trkpt lat="50.61756" lon="3.22916">
        <ele>29</ele>
        <time>2015-04-26T08:16:00Z</time>
      </trkpt>
      <trkpt lat="50.61759" lon="3.22911">
        <ele>29</ele>
        <time>2015-04-26T08:16:01Z</time>
      </trkpt>
      <trkpt lat="50.61762" lon="3.22907">
        <ele>29</ele>
        <time>2015-04-26T08:16:02Z</time>
      </trkpt>
      <trkpt lat="50.61766" lon="3.22906">
        <ele>28</ele>
        <time>2015-04-26T08:16:03Z</time>
      </trkpt>
      <trkpt lat="50.61771" lon="3.22908">
        <ele>28</ele>
        <time>2015-04-26T08:16:04Z</time>
      </trkpt>
      <trkpt lat="50.61775" lon="3.22911">
        <ele>28</ele>
        <time>2015-04-26T08:16:05Z</time>
      </trkpt>
      <trkpt lat="50.61823" lon="3.2294">
        <ele>28</ele>
        <time>2015-04-26T08:16:14Z</time>
      </trkpt>
      <trkpt lat="50.61864" lon="3.22966">
        <ele>26</ele>
        <time>2015-04-26T08:16:22Z</time>
      </trkpt>
      <trkpt lat="50.61868" lon="3.22965">
        <ele>26</ele>
        <time>2015-04-26T08:16:23Z</time>
      </trkpt>
      <trkpt lat="50.61871" lon="3.22961">
        <ele>26</ele>
        <time>2015-04-26T08:16:24Z</time>
      </trkpt>
      <trkpt lat="50.61873" lon="3.22955">
        <ele>26</ele>
        <time>2015-04-26T08:16:25Z</time>
      </trkpt>
      <trkpt lat="50.61874" lon="3.22949">
        <ele>26</ele>
        <time>2015-04-26T08:16:26Z</time>
      </trkpt>
      <trkpt lat="50.61875" lon="3.22942">
        <ele>26</ele>
        <time>2015-04-26T08:16:27Z</time>
      </trkpt>
      <trkpt lat="50.61876" lon="3.22935">
        <ele>26</ele>
        <time>2015-04-26T08:16:28Z</time>
      </trkpt>
      <trkpt lat="50.61876" lon="3.22927">
        <ele>26</ele>
        <time>2015-04-26T08:16:29Z</time>
      </trkpt>
      <trkpt lat="50.61877" lon="3.22891">
        <ele>26</ele>
        <time>2015-04-26T08:16:34Z</time>
      </trkpt>
      <trkpt lat="50.61876" lon="3.22884">
        <ele>26</ele>
        <time>2015-04-26T08:16:35Z</time>
      </trkpt>
      <trkpt lat="50.61876" lon="3.22877">
        <ele>26</ele>
        <time>2015-04-26T08:16:36Z</time>
      </trkpt>
      <trkpt lat="50.61876" lon="3.22871">
        <ele>26</ele>
        <time>2015-04-26T08:16:37Z</time>
      </trkpt>
      <trkpt lat="50.61877" lon="3.22866">
        <ele>26</ele>
        <time>2015-04-26T08:16:38Z</time>
      </trkpt>
      <trkpt lat="50.61878" lon="3.22862">
        <ele>26</ele>
        <time>2015-04-26T08:16:39Z</time>
      </trkpt>
      <trkpt lat="50.61878" lon="3.22859">
        <ele>26</ele>
        <time>2015-04-26T08:16:40Z</time>
      </trkpt>
      <trkpt lat="50.61878" lon="3.22856">
        <ele>26</ele>
        <time>2015-04-26T08:16:41Z</time>
      </trkpt>
      <trkpt lat="50.61877" lon="3.22853">
        <ele>26</ele>
        <time>2015-04-26T08:16:42Z</time>
      </trkpt>
      <trkpt lat="50.61876" lon="3.22848">
        <ele>26</ele>
        <time>2015-04-26T08:16:43Z</time>
      </trkpt>
      <trkpt lat="50.61876" lon="3.22843">
        <ele>26</ele>
        <time>2015-04-26T08:16:44Z</time>
      </trkpt>
      <trkpt lat="50.61876" lon="3.22837">
        <ele>26</ele>
        <time>2015-04-26T08:16:45Z</time>
      </trkpt>
      <trkpt lat="50.61878" lon="3.22801">
        <ele>26</ele>
        <time>2015-04-26T08:16:50Z</time>
      </trkpt>
      <trkpt lat="50.6188" lon="3.22785">
        <ele>25</ele>
        <time>2015-04-26T08:16:52Z</time>
      </trkpt>
      <trkpt lat="50.61881" lon="3.22735">
        <ele>25</ele>
        <time>2015-04-26T08:16:58Z</time>
      </trkpt>
      <trkpt lat="50.61885" lon="3.22632">
        <ele>24</ele>
        <time>2015-04-26T08:17:09Z</time>
      </trkpt>
      <trkpt lat="50.61889" lon="3.22539">
        <ele>25</ele>
        <time>2015-04-26T08:17:19Z</time>
      </trkpt>
      <trkpt lat="50.61893" lon="3.22444">
        <ele>24</ele>
        <time>2015-04-26T08:17:29Z</time>
      </trkpt>
      <trkpt lat="50.61897" lon="3.2235">
        <ele>24</ele>
        <time>2015-04-26T08:17:39Z</time>
      </trkpt>
      <trkpt lat="50.61902" lon="3.22234">
        <ele>24</ele>
        <time>2015-04-26T08:17:51Z</time>
      </trkpt>
      <trkpt lat="50.61905" lon="3.22151">
        <ele>24</ele>
        <time>2015-04-26T08:18:00Z</time>
      </trkpt>
      <trkpt lat="50.61908" lon="3.22081">
        <ele>23</ele>
        <time>2015-04-26T08:18:08Z</time>
      </trkpt>
      <trkpt lat="50.6191" lon="3.22075">
        <ele>23</ele>
        <time>2015-04-26T08:18:09Z</time>
      </trkpt>
      <trkpt lat="50.61911" lon="3.22069">
        <ele>23</ele>
        <time>2015-04-26T08:18:10Z</time>
      </trkpt>
      <trkpt lat="50.6191" lon="3.22065">
        <ele>23</ele>
        <time>2015-04-26T08:18:11Z</time>
      </trkpt>
      <trkpt lat="50.61909" lon="3.22059">
        <ele>23</ele>
        <time>2015-04-26T08:18:12Z</time>
      </trkpt>
      <trkpt lat="50.61909" lon="3.22052">
        <ele>23</ele>
        <time>2015-04-26T08:18:13Z</time>
      </trkpt>
      <trkpt lat="50.6191" lon="3.22044">
        <ele>23</ele>
        <time>2015-04-26T08:18:14Z</time>
      </trkpt>
      <trkpt lat="50.61912" lon="3.22036">
        <ele>23</ele>
        <time>2015-04-26T08:18:15Z</time>
      </trkpt>
      <trkpt lat="50.61913" lon="3.22028">
        <ele>23</ele>
        <time>2015-04-26T08:18:16Z</time>
      </trkpt>
      <trkpt lat="50.61913" lon="3.2202">
        <ele>23</ele>
        <time>2015-04-26T08:18:17Z</time>
      </trkpt>
      <trkpt lat="50.61913" lon="3.22012">
        <ele>23</ele>
        <time>2015-04-26T08:18:18Z</time>
      </trkpt>
      <trkpt lat="50.61911" lon="3.22004">
        <ele>23</ele>
        <time>2015-04-26T08:18:19Z</time>
      </trkpt>
      <trkpt lat="50.61908" lon="3.21998">
        <ele>23</ele>
        <time>2015-04-26T08:18:20Z</time>
      </trkpt>
      <trkpt lat="50.61905" lon="3.21993">
        <ele>23</ele>
        <time>2015-04-26T08:18:21Z</time>
      </trkpt>
      <trkpt lat="50.619" lon="3.21989">
        <ele>23</ele>
        <time>2015-04-26T08:18:22Z</time>
      </trkpt>
      <trkpt lat="50.61896" lon="3.21986">
        <ele>23</ele>
        <time>2015-04-26T08:18:23Z</time>
      </trkpt>
      <trkpt lat="50.61891" lon="3.21984">
        <ele>23</ele>
        <time>2015-04-26T08:18:24Z</time>
      </trkpt>
      <trkpt lat="50.61886" lon="3.21982">
        <ele>23</ele>
        <time>2015-04-26T08:18:25Z</time>
      </trkpt>
      <trkpt lat="50.61864" lon="3.21976">
        <ele>23</ele>
        <time>2015-04-26T08:18:31Z</time>
      </trkpt>
      <trkpt lat="50.6186" lon="3.21975">
        <ele>23</ele>
        <time>2015-04-26T08:18:32Z</time>
      </trkpt>
      <trkpt lat="50.61855" lon="3.21973">
        <ele>23</ele>
        <time>2015-04-26T08:18:33Z</time>
      </trkpt>
      <trkpt lat="50.61851" lon="3.21971">
        <ele>23</ele>
        <time>2015-04-26T08:18:34Z</time>
      </trkpt>
      <trkpt lat="50.61846" lon="3.21968">
        <ele>23</ele>
        <time>2015-04-26T08:18:35Z</time>
      </trkpt>
      <trkpt lat="50.6184" lon="3.21966">
        <ele>23</ele>
        <time>2015-04-26T08:18:36Z</time>
      </trkpt>
      <trkpt lat="50.61823" lon="3.21962">
        <ele>25</ele>
        <time>2015-04-26T08:18:39Z</time>
      </trkpt>
      <trkpt lat="50.61818" lon="3.21961">
        <ele>25</ele>
        <time>2015-04-26T08:18:40Z</time>
      </trkpt>
      <trkpt lat="50.61765" lon="3.21944">
        <ele>26</ele>
        <time>2015-04-26T08:18:50Z</time>
      </trkpt>
      <trkpt lat="50.61755" lon="3.21941">
        <ele>26</ele>
        <time>2015-04-26T08:18:52Z</time>
      </trkpt>
      <trkpt lat="50.6175" lon="3.2194">
        <ele>27</ele>
        <time>2015-04-26T08:18:53Z</time>
      </trkpt>
      <trkpt lat="50.61717" lon="3.2193">
        <ele>27</ele>
        <time>2015-04-26T08:19:00Z</time>
      </trkpt>
      <trkpt lat="50.61705" lon="3.21925">
        <ele>28</ele>
        <time>2015-04-26T08:19:03Z</time>
      </trkpt>
      <trkpt lat="50.61701" lon="3.21924">
        <ele>28</ele>
        <time>2015-04-26T08:19:04Z</time>
      </trkpt>
      <trkpt lat="50.61697" lon="3.21922">
        <ele>28</ele>
        <time>2015-04-26T08:19:05Z</time>
      </trkpt>
      <trkpt lat="50.61694" lon="3.21917">
        <ele>28</ele>
        <time>2015-04-26T08:19:06Z</time>
      </trkpt>
      <trkpt lat="50.61693" lon="3.21911">
        <ele>27</ele>
        <time>2015-04-26T08:19:07Z</time>
      </trkpt>
      <trkpt lat="50.61693" lon="3.21903">
        <ele>27</ele>
        <time>2015-04-26T08:19:08Z</time>
      </trkpt>
      <trkpt lat="50.61694" lon="3.21894">
        <ele>27</ele>
        <time>2015-04-26T08:19:09Z</time>
      </trkpt>
      <trkpt lat="50.61697" lon="3.21844">
        <ele>27</ele>
        <time>2015-04-26T08:19:15Z</time>
      </trkpt>
      <trkpt lat="50.61699" lon="3.21836">
        <ele>26</ele>
        <time>2015-04-26T08:19:16Z</time>
      </trkpt>
      <trkpt lat="50.61702" lon="3.21829">
        <ele>26</ele>
        <time>2015-04-26T08:19:17Z</time>
      </trkpt>
      <trkpt lat="50.61705" lon="3.21823">
        <ele>26</ele>
        <time>2015-04-26T08:19:18Z</time>
      </trkpt>
      <trkpt lat="50.61709" lon="3.21817">
        <ele>26</ele>
        <time>2015-04-26T08:19:19Z</time>
      </trkpt>
      <trkpt lat="50.61712" lon="3.21811">
        <ele>26</ele>
        <time>2015-04-26T08:19:20Z</time>
      </trkpt>
      <trkpt lat="50.61717" lon="3.21805">
        <ele>26</ele>
        <time>2015-04-26T08:19:21Z</time>
      </trkpt>
      <trkpt lat="50.61721" lon="3.218">
        <ele>26</ele>
        <time>2015-04-26T08:19:22Z</time>
      </trkpt>
      <trkpt lat="50.61755" lon="3.21769">
        <ele>25</ele>
        <time>2015-04-26T08:19:29Z</time>
      </trkpt>
      <trkpt lat="50.6177" lon="3.2176">
        <ele>25</ele>
        <time>2015-04-26T08:19:32Z</time>
      </trkpt>
      <trkpt lat="50.61776" lon="3.21758">
        <ele>25</ele>
        <time>2015-04-26T08:19:33Z</time>
      </trkpt>
      <trkpt lat="50.61786" lon="3.21754">
        <ele>25</ele>
        <time>2015-04-26T08:19:35Z</time>
      </trkpt>
      <trkpt lat="50.61792" lon="3.21752">
        <ele>25</ele>
        <time>2015-04-26T08:19:36Z</time>
      </trkpt>
      <trkpt lat="50.61796" lon="3.21748">
        <ele>25</ele>
        <time>2015-04-26T08:19:37Z</time>
      </trkpt>
      <trkpt lat="50.61801" lon="3.21743">
        <ele>25</ele>
        <time>2015-04-26T08:19:38Z</time>
      </trkpt>
      <trkpt lat="50.61805" lon="3.21736">
        <ele>25</ele>
        <time>2015-04-26T08:19:39Z</time>
      </trkpt>
      <trkpt lat="50.61808" lon="3.2173">
        <ele>25</ele>
        <time>2015-04-26T08:19:40Z</time>
      </trkpt>
      <trkpt lat="50.61811" lon="3.21723">
        <ele>25</ele>
        <time>2015-04-26T08:19:41Z</time>
      </trkpt>
      <trkpt lat="50.61817" lon="3.21709">
        <ele>25</ele>
        <time>2015-04-26T08:19:43Z</time>
      </trkpt>
      <trkpt lat="50.6182" lon="3.21702">
        <ele>25</ele>
        <time>2015-04-26T08:19:44Z</time>
      </trkpt>
      <trkpt lat="50.61839" lon="3.21657">
        <ele>25</ele>
        <time>2015-04-26T08:19:50Z</time>
      </trkpt>
      <trkpt lat="50.6185" lon="3.21624">
        <ele>24</ele>
        <time>2015-04-26T08:19:54Z</time>
      </trkpt>
      <trkpt lat="50.61873" lon="3.2157">
        <ele>24</ele>
        <time>2015-04-26T08:20:01Z</time>
      </trkpt>
      <trkpt lat="50.61876" lon="3.21563">
        <ele>24</ele>
        <time>2015-04-26T08:20:02Z</time>
      </trkpt>
      <trkpt lat="50.61879" lon="3.21555">
        <ele>24</ele>
        <time>2015-04-26T08:20:03Z</time>
      </trkpt>
      <trkpt lat="50.61881" lon="3.21546">
        <ele>24</ele>
        <time>2015-04-26T08:20:04Z</time>
      </trkpt>
      <trkpt lat="50.61883" lon="3.21537">
        <ele>24</ele>
        <time>2015-04-26T08:20:05Z</time>
      </trkpt>
      <trkpt lat="50.61883" lon="3.21528">
        <ele>24</ele>
        <time>2015-04-26T08:20:06Z</time>
      </trkpt>
      <trkpt lat="50.61884" lon="3.21518">
        <ele>24</ele>
        <time>2015-04-26T08:20:07Z</time>
      </trkpt>
      <trkpt lat="50.61884" lon="3.21508">
        <ele>24</ele>
        <time>2015-04-26T08:20:08Z</time>
      </trkpt>
      <trkpt lat="50.61885" lon="3.21499">
        <ele>24</ele>
        <time>2015-04-26T08:20:09Z</time>
      </trkpt>
      <trkpt lat="50.6189" lon="3.21432">
        <ele>24</ele>
        <time>2015-04-26T08:20:16Z</time>
      </trkpt>
      <trkpt lat="50.61893" lon="3.21398">
        <ele>24</ele>
        <time>2015-04-26T08:20:20Z</time>
      </trkpt>
      <trkpt lat="50.61894" lon="3.21391">
        <ele>24</ele>
        <time>2015-04-26T08:20:21Z</time>
      </trkpt>
      <trkpt lat="50.61896" lon="3.21384">
        <ele>24</ele>
        <time>2015-04-26T08:20:22Z</time>
      </trkpt>
      <trkpt lat="50.61898" lon="3.2138">
        <ele>24</ele>
        <time>2015-04-26T08:20:23Z</time>
      </trkpt>
      <trkpt lat="50.61902" lon="3.2138">
        <ele>24</ele>
        <time>2015-04-26T08:20:24Z</time>
      </trkpt>
      <trkpt lat="50.61905" lon="3.21382">
        <ele>24</ele>
        <time>2015-04-26T08:20:25Z</time>
      </trkpt>
      <trkpt lat="50.6191" lon="3.21385">
        <ele>24</ele>
        <time>2015-04-26T08:20:26Z</time>
      </trkpt>
      <trkpt lat="50.61919" lon="3.2139">
        <ele>24</ele>
        <time>2015-04-26T08:20:28Z</time>
      </trkpt>
      <trkpt lat="50.61923" lon="3.21392">
        <ele>24</ele>
        <time>2015-04-26T08:20:29Z</time>
      </trkpt>
      <trkpt lat="50.61928" lon="3.21394">
        <ele>24</ele>
        <time>2015-04-26T08:20:30Z</time>
      </trkpt>
      <trkpt lat="50.61932" lon="3.21397">
        <ele>24</ele>
        <time>2015-04-26T08:20:31Z</time>
      </trkpt>
      <trkpt lat="50.61937" lon="3.21399">
        <ele>24</ele>
        <time>2015-04-26T08:20:32Z</time>
      </trkpt>
      <trkpt lat="50.61941" lon="3.21401">
        <ele>24</ele>
        <time>2015-04-26T08:20:33Z</time>
      </trkpt>
      <trkpt lat="50.61946" lon="3.21401">
        <ele>24</ele>
        <time>2015-04-26T08:20:34Z</time>
      </trkpt>
      <trkpt lat="50.61951" lon="3.21402">
        <ele>24</ele>
        <time>2015-04-26T08:20:35Z</time>
      </trkpt>
      <trkpt lat="50.61961" lon="3.21403">
        <ele>23</ele>
        <time>2015-04-26T08:20:37Z</time>
      </trkpt>
      <trkpt lat="50.61966" lon="3.21401">
        <ele>23</ele>
        <time>2015-04-26T08:20:38Z</time>
      </trkpt>
      <trkpt lat="50.61972" lon="3.21401">
        <ele>23</ele>
        <time>2015-04-26T08:20:39Z</time>
      </trkpt>
      <trkpt lat="50.61978" lon="3.21403">
        <ele>23</ele>
        <time>2015-04-26T08:20:40Z</time>
      </trkpt>
      <trkpt lat="50.61983" lon="3.21407">
        <ele>23</ele>
        <time>2015-04-26T08:20:41Z</time>
      </trkpt>
      <trkpt lat="50.62039" lon="3.21439">
        <ele>23</ele>
        <time>2015-04-26T08:20:51Z</time>
      </trkpt>
      <trkpt lat="50.62051" lon="3.21445">
        <ele>23</ele>
        <time>2015-04-26T08:20:54Z</time>
      </trkpt>
      <trkpt lat="50.62053" lon="3.21443">
        <ele>23</ele>
        <time>2015-04-26T08:20:55Z</time>
      </trkpt>
      <trkpt lat="50.62054" lon="3.2144">
        <ele>23</ele>
        <time>2015-04-26T08:20:56Z</time>
      </trkpt>
      <trkpt lat="50.62055" lon="3.21435">
        <ele>23</ele>
        <time>2015-04-26T08:20:57Z</time>
      </trkpt>
      <trkpt lat="50.62055" lon="3.21429">
        <ele>23</ele>
        <time>2015-04-26T08:20:58Z</time>
      </trkpt>
      <trkpt lat="50.62056" lon="3.21421">
        <ele>23</ele>
        <time>2015-04-26T08:20:59Z</time>
      </trkpt>
      <trkpt lat="50.62056" lon="3.21352">
        <ele>23</ele>
        <time>2015-04-26T08:21:07Z</time>
      </trkpt>
      <trkpt lat="50.62056" lon="3.2128">
        <ele>23</ele>
        <time>2015-04-26T08:21:15Z</time>
      </trkpt>
      <trkpt lat="50.62056" lon="3.21263">
        <ele>23</ele>
        <time>2015-04-26T08:21:17Z</time>
      </trkpt>
      <trkpt lat="50.62056" lon="3.21245">
        <ele>23</ele>
        <time>2015-04-26T08:21:19Z</time>
      </trkpt>
      <trkpt lat="50.62057" lon="3.21236">
        <ele>23</ele>
        <time>2015-04-26T08:21:20Z</time>
      </trkpt>
      <trkpt lat="50.62057" lon="3.21227">
        <ele>23</ele>
        <time>2015-04-26T08:21:21Z</time>
      </trkpt>
      <trkpt lat="50.62057" lon="3.21218">
        <ele>23</ele>
        <time>2015-04-26T08:21:22Z</time>
      </trkpt>
      <trkpt lat="50.62058" lon="3.21209">
        <ele>23</ele>
        <time>2015-04-26T08:21:23Z</time>
      </trkpt>
      <trkpt lat="50.62059" lon="3.21201">
        <ele>23</ele>
        <time>2015-04-26T08:21:24Z</time>
      </trkpt>
      <trkpt lat="50.6206" lon="3.21192">
        <ele>23</ele>
        <time>2015-04-26T08:21:25Z</time>
      </trkpt>
      <trkpt lat="50.6206" lon="3.21183">
        <ele>23</ele>
        <time>2015-04-26T08:21:26Z</time>
      </trkpt>
      <trkpt lat="50.62059" lon="3.21174">
        <ele>23</ele>
        <time>2015-04-26T08:21:27Z</time>
      </trkpt>
      <trkpt lat="50.62059" lon="3.21165">
        <ele>23</ele>
        <time>2015-04-26T08:21:28Z</time>
      </trkpt>
      <trkpt lat="50.62058" lon="3.21092">
        <ele>23</ele>
        <time>2015-04-26T08:21:36Z</time>
      </trkpt>
      <trkpt lat="50.62058" lon="3.21038">
        <ele>22</ele>
        <time>2015-04-26T08:21:42Z</time>
      </trkpt>
      <trkpt lat="50.62058" lon="3.21029">
        <ele>22</ele>
        <time>2015-04-26T08:21:43Z</time>
      </trkpt>
      <trkpt lat="50.62058" lon="3.2102">
        <ele>22</ele>
        <time>2015-04-26T08:21:44Z</time>
      </trkpt>
      <trkpt lat="50.62058" lon="3.20973">
        <ele>23</ele>
        <time>2015-04-26T08:21:49Z</time>
      </trkpt>
      <trkpt lat="50.62058" lon="3.20936">
        <ele>23</ele>
        <time>2015-04-26T08:21:53Z</time>
      </trkpt>
      <trkpt lat="50.62057" lon="3.2086">
        <ele>23</ele>
        <time>2015-04-26T08:22:01Z</time>
      </trkpt>
      <trkpt lat="50.62057" lon="3.20842">
        <ele>23</ele>
        <time>2015-04-26T08:22:03Z</time>
      </trkpt>
      <trkpt lat="50.62057" lon="3.20833">
        <ele>23</ele>
        <time>2015-04-26T08:22:04Z</time>
      </trkpt>
      <trkpt lat="50.62057" lon="3.20823">
        <ele>23</ele>
        <time>2015-04-26T08:22:05Z</time>
      </trkpt>
      <trkpt lat="50.62056" lon="3.20776">
        <ele>23</ele>
        <time>2015-04-26T08:22:10Z</time>
      </trkpt>
      <trkpt lat="50.62056" lon="3.20767">
        <ele>23</ele>
        <time>2015-04-26T08:22:11Z</time>
      </trkpt>
      <trkpt lat="50.62055" lon="3.20722">
        <ele>23</ele>
        <time>2015-04-26T08:22:16Z</time>
      </trkpt>
      <trkpt lat="50.62056" lon="3.20713">
        <ele>23</ele>
        <time>2015-04-26T08:22:17Z</time>
      </trkpt>
      <trkpt lat="50.62056" lon="3.20705">
        <ele>23</ele>
        <time>2015-04-26T08:22:18Z</time>
      </trkpt>
      <trkpt lat="50.62057" lon="3.20644">
        <ele>23</ele>
        <time>2015-04-26T08:22:25Z</time>
      </trkpt>
      <trkpt lat="50.62058" lon="3.2062">
        <ele>22</ele>
        <time>2015-04-26T08:22:28Z</time>
      </trkpt>
      <trkpt lat="50.62057" lon="3.20603">
        <ele>22</ele>
        <time>2015-04-26T08:22:30Z</time>
      </trkpt>
      <trkpt lat="50.62057" lon="3.20593">
        <ele>22</ele>
        <time>2015-04-26T08:22:31Z</time>
      </trkpt>
      <trkpt lat="50.62057" lon="3.20584">
        <ele>22</ele>
        <time>2015-04-26T08:22:32Z</time>
      </trkpt>
      <trkpt lat="50.62056" lon="3.20507">
        <ele>22</ele>
        <time>2015-04-26T08:22:41Z</time>
      </trkpt>
      <trkpt lat="50.62057" lon="3.20442">
        <ele>23</ele>
        <time>2015-04-26T08:22:48Z</time>
      </trkpt>
      <trkpt lat="50.62057" lon="3.20399">
        <ele>23</ele>
        <time>2015-04-26T08:22:53Z</time>
      </trkpt>
      <trkpt lat="50.62057" lon="3.20322">
        <ele>23</ele>
        <time>2015-04-26T08:23:02Z</time>
      </trkpt>
      <trkpt lat="50.6206" lon="3.20316">
        <ele>23</ele>
        <time>2015-04-26T08:23:03Z</time>
      </trkpt>
      <trkpt lat="50.62064" lon="3.20312">
        <ele>23</ele>
        <time>2015-04-26T08:23:04Z</time>
      </trkpt>
      <trkpt lat="50.62069" lon="3.20311">
        <ele>23</ele>
        <time>2015-04-26T08:23:05Z</time>
      </trkpt>
      <trkpt lat="50.62074" lon="3.20313">
        <ele>23</ele>
        <time>2015-04-26T08:23:06Z</time>
      </trkpt>
      <trkpt lat="50.62079" lon="3.20316">
        <ele>23</ele>
        <time>2015-04-26T08:23:07Z</time>
      </trkpt>
      <trkpt lat="50.62084" lon="3.20318">
        <ele>23</ele>
        <time>2015-04-26T08:23:08Z</time>
      </trkpt>
      <trkpt lat="50.62089" lon="3.20319">
        <ele>23</ele>
        <time>2015-04-26T08:23:09Z</time>
      </trkpt>
      <trkpt lat="50.62094" lon="3.20318">
        <ele>23</ele>
        <time>2015-04-26T08:23:10Z</time>
      </trkpt>
      <trkpt lat="50.62099" lon="3.20314">
        <ele>23</ele>
        <time>2015-04-26T08:23:11Z</time>
      </trkpt>
      <trkpt lat="50.62101" lon="3.20307">
        <ele>23</ele>
        <time>2015-04-26T08:23:12Z</time>
      </trkpt>
      <trkpt lat="50.62102" lon="3.20299">
        <ele>23</ele>
        <time>2015-04-26T08:23:13Z</time>
      </trkpt>
      <trkpt lat="50.62102" lon="3.20291">
        <ele>24</ele>
        <time>2015-04-26T08:23:14Z</time>
      </trkpt>
      <trkpt lat="50.62102" lon="3.20282">
        <ele>24</ele>
        <time>2015-04-26T08:23:15Z</time>
      </trkpt>
      <trkpt lat="50.62102" lon="3.20189">
        <ele>24</ele>
        <time>2015-04-26T08:23:26Z</time>
      </trkpt>
      <trkpt lat="50.62101" lon="3.20153">
        <ele>24</ele>
        <time>2015-04-26T08:23:30Z</time>
      </trkpt>
      <trkpt lat="50.62101" lon="3.20144">
        <ele>23</ele>
        <time>2015-04-26T08:23:31Z</time>
      </trkpt>
      <trkpt lat="50.62101" lon="3.2005">
        <ele>23</ele>
        <time>2015-04-26T08:23:41Z</time>
      </trkpt>
      <trkpt lat="50.62102" lon="3.19977">
        <ele>23</ele>
        <time>2015-04-26T08:23:49Z</time>
      </trkpt>
      <trkpt lat="50.62103" lon="3.19914">
        <ele>24</ele>
        <time>2015-04-26T08:23:56Z</time>
      </trkpt>
      <trkpt lat="50.62103" lon="3.19851">
        <ele>24</ele>
        <time>2015-04-26T08:24:03Z</time>
      </trkpt>
      <trkpt lat="50.62103" lon="3.19797">
        <ele>24</ele>
        <time>2015-04-26T08:24:09Z</time>
      </trkpt>
      <trkpt lat="50.62103" lon="3.1978">
        <ele>24</ele>
        <time>2015-04-26T08:24:11Z</time>
      </trkpt>
      <trkpt lat="50.62102" lon="3.19771">
        <ele>24</ele>
        <time>2015-04-26T08:24:12Z</time>
      </trkpt>
      <trkpt lat="50.62103" lon="3.19763">
        <ele>24</ele>
        <time>2015-04-26T08:24:13Z</time>
      </trkpt>
      <trkpt lat="50.62103" lon="3.19755">
        <ele>24</ele>
        <time>2015-04-26T08:24:14Z</time>
      </trkpt>
      <trkpt lat="50.62104" lon="3.19747">
        <ele>24</ele>
        <time>2015-04-26T08:24:15Z</time>
      </trkpt>
      <trkpt lat="50.62106" lon="3.19726">
        <ele>24</ele>
        <time>2015-04-26T08:24:18Z</time>
      </trkpt>
      <trkpt lat="50.62109" lon="3.19721">
        <ele>24</ele>
        <time>2015-04-26T08:24:19Z</time>
      </trkpt>
      <trkpt lat="50.62113" lon="3.1972">
        <ele>24</ele>
        <time>2015-04-26T08:24:20Z</time>
      </trkpt>
      <trkpt lat="50.62117" lon="3.19723">
        <ele>24</ele>
        <time>2015-04-26T08:24:21Z</time>
      </trkpt>
      <trkpt lat="50.62123" lon="3.19727">
        <ele>24</ele>
        <time>2015-04-26T08:24:22Z</time>
      </trkpt>
      <trkpt lat="50.62128" lon="3.19731">
        <ele>25</ele>
        <time>2015-04-26T08:24:23Z</time>
      </trkpt>
      <trkpt lat="50.62134" lon="3.19735">
        <ele>25</ele>
        <time>2015-04-26T08:24:24Z</time>
      </trkpt>
      <trkpt lat="50.62139" lon="3.19739">
        <ele>25</ele>
        <time>2015-04-26T08:24:25Z</time>
      </trkpt>
      <trkpt lat="50.62145" lon="3.19741">
        <ele>25</ele>
        <time>2015-04-26T08:24:26Z</time>
      </trkpt>
      <trkpt lat="50.62162" lon="3.19745">
        <ele>25</ele>
        <time>2015-04-26T08:24:29Z</time>
      </trkpt>
      <trkpt lat="50.62168" lon="3.19745">
        <ele>25</ele>
        <time>2015-04-26T08:24:30Z</time>
      </trkpt>
      <trkpt lat="50.62174" lon="3.19744">
        <ele>25</ele>
        <time>2015-04-26T08:24:31Z</time>
      </trkpt>
      <trkpt lat="50.62179" lon="3.1974">
        <ele>25</ele>
        <time>2015-04-26T08:24:32Z</time>
      </trkpt>
      <trkpt lat="50.62185" lon="3.19735">
        <ele>25</ele>
        <time>2015-04-26T08:24:33Z</time>
      </trkpt>
      <trkpt lat="50.62189" lon="3.19728">
        <ele>25</ele>
        <time>2015-04-26T08:24:34Z</time>
      </trkpt>
      <trkpt lat="50.62193" lon="3.19721">
        <ele>25</ele>
        <time>2015-04-26T08:24:35Z</time>
      </trkpt>
      <trkpt lat="50.62196" lon="3.19714">
        <ele>25</ele>
        <time>2015-04-26T08:24:36Z</time>
      </trkpt>
      <trkpt lat="50.62204" lon="3.197">
        <ele>25</ele>
        <time>2015-04-26T08:24:38Z</time>
      </trkpt>
      <trkpt lat="50.62208" lon="3.19695">
        <ele>25</ele>
        <time>2015-04-26T08:24:39Z</time>
      </trkpt>
      <trkpt lat="50.62214" lon="3.19693">
        <ele>25</ele>
        <time>2015-04-26T08:24:40Z</time>
      </trkpt>
      <trkpt lat="50.6222" lon="3.19693">
        <ele>25</ele>
        <time>2015-04-26T08:24:41Z</time>
      </trkpt>
      <trkpt lat="50.62226" lon="3.19694">
        <ele>25</ele>
        <time>2015-04-26T08:24:42Z</time>
      </trkpt>
      <trkpt lat="50.62244" lon="3.19698">
        <ele>25</ele>
        <time>2015-04-26T08:24:45Z</time>
      </trkpt>
      <trkpt lat="50.62256" lon="3.197">
        <ele>25</ele>
        <time>2015-04-26T08:24:47Z</time>
      </trkpt>
      <trkpt lat="50.62262" lon="3.19701">
        <ele>25</ele>
        <time>2015-04-26T08:24:48Z</time>
      </trkpt>
      <trkpt lat="50.62268" lon="3.197">
        <ele>25</ele>
        <time>2015-04-26T08:24:49Z</time>
      </trkpt>
      <trkpt lat="50.62316" lon="3.19691">
        <ele>24</ele>
        <time>2015-04-26T08:24:57Z</time>
      </trkpt>
      <trkpt lat="50.62364" lon="3.19688">
        <ele>24</ele>
        <time>2015-04-26T08:25:05Z</time>
      </trkpt>
      <trkpt lat="50.62403" lon="3.19695">
        <ele>24</ele>
        <time>2015-04-26T08:25:12Z</time>
      </trkpt>
      <trkpt lat="50.62425" lon="3.19708">
        <ele>24</ele>
        <time>2015-04-26T08:25:16Z</time>
      </trkpt>
      <trkpt lat="50.6243" lon="3.19709">
        <ele>23</ele>
        <time>2015-04-26T08:25:17Z</time>
      </trkpt>
      <trkpt lat="50.62436" lon="3.19709">
        <ele>23</ele>
        <time>2015-04-26T08:25:18Z</time>
      </trkpt>
      <trkpt lat="50.62441" lon="3.19707">
        <ele>24</ele>
        <time>2015-04-26T08:25:19Z</time>
      </trkpt>
      <trkpt lat="50.62447" lon="3.19703">
        <ele>24</ele>
        <time>2015-04-26T08:25:20Z</time>
      </trkpt>
      <trkpt lat="50.62452" lon="3.19699">
        <ele>24</ele>
        <time>2015-04-26T08:25:21Z</time>
      </trkpt>
      <trkpt lat="50.62456" lon="3.19695">
        <ele>24</ele>
        <time>2015-04-26T08:25:22Z</time>
      </trkpt>
      <trkpt lat="50.62484" lon="3.19671">
        <ele>24</ele>
        <time>2015-04-26T08:25:28Z</time>
      </trkpt>
      <trkpt lat="50.62488" lon="3.19668">
        <ele>24</ele>
        <time>2015-04-26T08:25:29Z</time>
      </trkpt>
      <trkpt lat="50.62492" lon="3.19665">
        <ele>24</ele>
        <time>2015-04-26T08:25:30Z</time>
      </trkpt>
      <trkpt lat="50.6252" lon="3.19652">
        <ele>24</ele>
        <time>2015-04-26T08:25:37Z</time>
      </trkpt>
      <trkpt lat="50.62535" lon="3.19646">
        <ele>24</ele>
        <time>2015-04-26T08:25:43Z</time>
      </trkpt>
      <trkpt lat="50.62534" lon="3.19645">
        <ele>24</ele>
        <time>2015-04-26T08:25:52Z</time>
      </trkpt>
      <trkpt lat="50.62532" lon="3.19644">
        <ele>24</ele>
        <time>2015-04-26T08:26:08Z</time>
      </trkpt>
      <trkpt lat="50.62532" lon="3.19642">
        <ele>24</ele>
        <time>2015-04-26T08:26:26Z</time>
      </trkpt>
      <trkpt lat="50.62532" lon="3.19642">
        <ele>24</ele>
        <time>2015-04-26T08:26:44Z</time>
      </trkpt>
      <trkpt lat="50.62533" lon="3.19643">
        <ele>24</ele>
        <time>2015-04-26T08:27:01Z</time>
      </trkpt>
      <trkpt lat="50.62533" lon="3.19644">
        <ele>24</ele>
        <time>2015-04-26T08:27:21Z</time>
      </trkpt>
      <trkpt lat="50.62532" lon="3.19644">
        <ele>24</ele>
        <time>2015-04-26T08:27:43Z</time>
      </trkpt>
      <trkpt lat="50.62533" lon="3.19645">
        <ele>24</ele>
        <time>2015-04-26T08:27:51Z</time>
      </trkpt>
      <trkpt lat="50.62534" lon="3.19647">
        <ele>24</ele>
        <time>2015-04-26T08:28:01Z</time>
      </trkpt>
      <trkpt lat="50.62535" lon="3.19647">
        <ele>24</ele>
        <time>2015-04-26T08:28:09Z</time>
      </trkpt>
      <trkpt lat="50.62536" lon="3.19649">
        <ele>24</ele>
        <time>2015-04-26T08:28:16Z</time>
      </trkpt>
      <trkpt lat="50.62537" lon="3.19651">
        <ele>24</ele>
        <time>2015-04-26T08:28:17Z</time>
      </trkpt>
      <trkpt lat="50.62538" lon="3.19654">
        <ele>24</ele>
        <time>2015-04-26T08:28:18Z</time>
      </trkpt>
      <trkpt lat="50.6254" lon="3.19664">
        <ele>24</ele>
        <time>2015-04-26T08:28:20Z</time>
      </trkpt>
      <trkpt lat="50.6254" lon="3.19671">
        <ele>23</ele>
        <time>2015-04-26T08:28:21Z</time>
      </trkpt>
      <trkpt lat="50.6254" lon="3.19679">
        <ele>23</ele>
        <time>2015-04-26T08:28:22Z</time>
      </trkpt>
      <trkpt lat="50.62541" lon="3.19695">
        <ele>23</ele>
        <time>2015-04-26T08:28:24Z</time>
      </trkpt>
      <trkpt lat="50.62538" lon="3.19779">
        <ele>23</ele>
        <time>2015-04-26T08:28:33Z</time>
      </trkpt>
      <trkpt lat="50.62536" lon="3.1984">
        <ele>22</ele>
        <time>2015-04-26T08:28:40Z</time>
      </trkpt>
      <trkpt lat="50.62533" lon="3.19909">
        <ele>22</ele>
        <time>2015-04-26T08:28:48Z</time>
      </trkpt>
      <trkpt lat="50.62533" lon="3.19917">
        <ele>22</ele>
        <time>2015-04-26T08:28:49Z</time>
      </trkpt>
      <trkpt lat="50.62532" lon="3.19956">
        <ele>22</ele>
        <time>2015-04-26T08:28:54Z</time>
      </trkpt>
      <trkpt lat="50.62533" lon="3.19964">
        <ele>22</ele>
        <time>2015-04-26T08:28:55Z</time>
      </trkpt>
      <trkpt lat="50.62534" lon="3.1997">
        <ele>22</ele>
        <time>2015-04-26T08:28:56Z</time>
      </trkpt>
      <trkpt lat="50.62537" lon="3.19976">
        <ele>22</ele>
        <time>2015-04-26T08:28:57Z</time>
      </trkpt>
      <trkpt lat="50.6254" lon="3.19981">
        <ele>22</ele>
        <time>2015-04-26T08:28:58Z</time>
      </trkpt>
      <trkpt lat="50.62543" lon="3.19986">
        <ele>23</ele>
        <time>2015-04-26T08:28:59Z</time>
      </trkpt>
      <trkpt lat="50.62546" lon="3.1999">
        <ele>23</ele>
        <time>2015-04-26T08:29:00Z</time>
      </trkpt>
      <trkpt lat="50.62575" lon="3.20027">
        <ele>23</ele>
        <time>2015-04-26T08:29:08Z</time>
      </trkpt>
      <trkpt lat="50.62587" lon="3.20047">
        <ele>23</ele>
        <time>2015-04-26T08:29:13Z</time>
      </trkpt>
      <trkpt lat="50.62587" lon="3.20054">
        <ele>23</ele>
        <time>2015-04-26T08:29:14Z</time>
      </trkpt>
      <trkpt lat="50.62588" lon="3.20068">
        <ele>23</ele>
        <time>2015-04-26T08:29:16Z</time>
      </trkpt>
      <trkpt lat="50.6259" lon="3.20075">
        <ele>23</ele>
        <time>2015-04-26T08:29:17Z</time>
      </trkpt>
      <trkpt lat="50.62602" lon="3.20106">
        <ele>23</ele>
        <time>2015-04-26T08:29:21Z</time>
      </trkpt>
      <trkpt lat="50.62626" lon="3.20137">
        <ele>23</ele>
        <time>2015-04-26T08:29:26Z</time>
      </trkpt>
      <trkpt lat="50.62667" lon="3.20174">
        <ele>24</ele>
        <time>2015-04-26T08:29:34Z</time>
      </trkpt>
      <trkpt lat="50.62688" lon="3.20192">
        <ele>24</ele>
        <time>2015-04-26T08:29:38Z</time>
      </trkpt>
      <trkpt lat="50.62694" lon="3.20195">
        <ele>24</ele>
        <time>2015-04-26T08:29:39Z</time>
      </trkpt>
      <trkpt lat="50.62699" lon="3.20197">
        <ele>24</ele>
        <time>2015-04-26T08:29:40Z</time>
      </trkpt>
      <trkpt lat="50.62744" lon="3.20219">
        <ele>23</ele>
        <time>2015-04-26T08:29:48Z</time>
      </trkpt>
      <trkpt lat="50.62774" lon="3.20237">
        <ele>23</ele>
        <time>2015-04-26T08:29:53Z</time>
      </trkpt>
      <trkpt lat="50.62781" lon="3.20238">
        <ele>23</ele>
        <time>2015-04-26T08:29:54Z</time>
      </trkpt>
      <trkpt lat="50.62787" lon="3.20238">
        <ele>23</ele>
        <time>2015-04-26T08:29:55Z</time>
      </trkpt>
      <trkpt lat="50.62805" lon="3.20234">
        <ele>23</ele>
        <time>2015-04-26T08:29:58Z</time>
      </trkpt>
      <trkpt lat="50.62817" lon="3.20233">
        <ele>23</ele>
        <time>2015-04-26T08:30:00Z</time>
      </trkpt>
      <trkpt lat="50.62823" lon="3.20234">
        <ele>23</ele>
        <time>2015-04-26T08:30:01Z</time>
      </trkpt>
      <trkpt lat="50.62829" lon="3.20235">
        <ele>23</ele>
        <time>2015-04-26T08:30:02Z</time>
      </trkpt>
      <trkpt lat="50.62852" lon="3.20238">
        <ele>23</ele>
        <time>2015-04-26T08:30:06Z</time>
      </trkpt>
      <trkpt lat="50.62875" lon="3.20236">
        <ele>23</ele>
        <time>2015-04-26T08:30:10Z</time>
      </trkpt>
      <trkpt lat="50.62915" lon="3.20228">
        <ele>22</ele>
        <time>2015-04-26T08:30:17Z</time>
      </trkpt>
      <trkpt lat="50.62961" lon="3.20225">
        <ele>23</ele>
        <time>2015-04-26T08:30:25Z</time>
      </trkpt>
      <trkpt lat="50.62967" lon="3.20224">
        <ele>23</ele>
        <time>2015-04-26T08:30:26Z</time>
      </trkpt>
      <trkpt lat="50.62984" lon="3.20222">
        <ele>23</ele>
        <time>2015-04-26T08:30:29Z</time>
      </trkpt>
      <trkpt lat="50.62989" lon="3.2022">
        <ele>23</ele>
        <time>2015-04-26T08:30:30Z</time>
      </trkpt>
      <trkpt lat="50.62994" lon="3.20215">
        <ele>23</ele>
        <time>2015-04-26T08:30:31Z</time>
      </trkpt>
      <trkpt lat="50.62998" lon="3.2021">
        <ele>23</ele>
        <time>2015-04-26T08:30:32Z</time>
      </trkpt>
      <trkpt lat="50.63001" lon="3.20203">
        <ele>23</ele>
        <time>2015-04-26T08:30:33Z</time>
      </trkpt>
      <trkpt lat="50.63003" lon="3.20196">
        <ele>23</ele>
        <time>2015-04-26T08:30:34Z</time>
      </trkpt>
      <trkpt lat="50.63005" lon="3.20188">
        <ele>23</ele>
        <time>2015-04-26T08:30:35Z</time>
      </trkpt>
      <trkpt lat="50.63006" lon="3.20181">
        <ele>23</ele>
        <time>2015-04-26T08:30:36Z</time>
      </trkpt>
      <trkpt lat="50.63007" lon="3.20174">
        <ele>23</ele>
        <time>2015-04-26T08:30:37Z</time>
      </trkpt>
      <trkpt lat="50.63008" lon="3.20166">
        <ele>23</ele>
        <time>2015-04-26T08:30:38Z</time>
      </trkpt>
      <trkpt lat="50.63009" lon="3.20151">
        <ele>23</ele>
        <time>2015-04-26T08:30:40Z</time>
      </trkpt>
      <trkpt lat="50.63011" lon="3.20145">
        <ele>23</ele>
        <time>2015-04-26T08:30:41Z</time>
      </trkpt>
      <trkpt lat="50.63012" lon="3.20142">
        <ele>23</ele>
        <time>2015-04-26T08:30:42Z</time>
      </trkpt>
      <trkpt lat="50.63015" lon="3.20142">
        <ele>23</ele>
        <time>2015-04-26T08:30:43Z</time>
      </trkpt>
      <trkpt lat="50.63018" lon="3.20145">
        <ele>23</ele>
        <time>2015-04-26T08:30:44Z</time>
      </trkpt>
      <trkpt lat="50.63021" lon="3.2015">
        <ele>23</ele>
        <time>2015-04-26T08:30:45Z</time>
      </trkpt>
      <trkpt lat="50.63024" lon="3.20156">
        <ele>23</ele>
        <time>2015-04-26T08:30:46Z</time>
      </trkpt>
      <trkpt lat="50.63027" lon="3.20163">
        <ele>23</ele>
        <time>2015-04-26T08:30:47Z</time>
      </trkpt>
      <trkpt lat="50.63031" lon="3.20169">
        <ele>23</ele>
        <time>2015-04-26T08:30:48Z</time>
      </trkpt>
      <trkpt lat="50.63035" lon="3.20175">
        <ele>23</ele>
        <time>2015-04-26T08:30:49Z</time>
      </trkpt>
      <trkpt lat="50.63039" lon="3.20181">
        <ele>23</ele>
        <time>2015-04-26T08:30:50Z</time>
      </trkpt>
      <trkpt lat="50.63043" lon="3.20187">
        <ele>23</ele>
        <time>2015-04-26T08:30:51Z</time>
      </trkpt>
      <trkpt lat="50.63073" lon="3.20227">
        <ele>23</ele>
        <time>2015-04-26T08:30:58Z</time>
      </trkpt>
      <trkpt lat="50.6308" lon="3.20237">
        <ele>23</ele>
        <time>2015-04-26T08:31:00Z</time>
      </trkpt>
      <trkpt lat="50.63082" lon="3.20244">
        <ele>23</ele>
        <time>2015-04-26T08:31:01Z</time>
      </trkpt>
      <trkpt lat="50.63081" lon="3.20251">
        <ele>23</ele>
        <time>2015-04-26T08:31:02Z</time>
      </trkpt>
      <trkpt lat="50.63078" lon="3.20256">
        <ele>23</ele>
        <time>2015-04-26T08:31:03Z</time>
      </trkpt>
      <trkpt lat="50.63075" lon="3.20262">
        <ele>23</ele>
        <time>2015-04-26T08:31:04Z</time>
      </trkpt>
      <trkpt lat="50.6307" lon="3.20267">
        <ele>23</ele>
        <time>2015-04-26T08:31:05Z</time>
      </trkpt>
      <trkpt lat="50.63067" lon="3.20273">
        <ele>23</ele>
        <time>2015-04-26T08:31:06Z</time>
      </trkpt>
      <trkpt lat="50.63062" lon="3.2028">
        <ele>23</ele>
        <time>2015-04-26T08:31:07Z</time>
      </trkpt>
      <trkpt lat="50.63058" lon="3.20286">
        <ele>23</ele>
        <time>2015-04-26T08:31:08Z</time>
      </trkpt>
      <trkpt lat="50.63037" lon="3.20314">
        <ele>22</ele>
        <time>2015-04-26T08:31:13Z</time>
      </trkpt>
      <trkpt lat="50.62995" lon="3.20375">
        <ele>22</ele>
        <time>2015-04-26T08:31:23Z</time>
      </trkpt>
      <trkpt lat="50.6299" lon="3.2038">
        <ele>22</ele>
        <time>2015-04-26T08:31:24Z</time>
      </trkpt>
      <trkpt lat="50.6295" lon="3.20438">
        <ele>22</ele>
        <time>2015-04-26T08:31:33Z</time>
      </trkpt>
      <trkpt lat="50.62904" lon="3.20504">
        <ele>22</ele>
        <time>2015-04-26T08:31:43Z</time>
      </trkpt>
      <trkpt lat="50.6286" lon="3.20567">
        <ele>22</ele>
        <time>2015-04-26T08:31:53Z</time>
      </trkpt>
      <trkpt lat="50.62825" lon="3.20616">
        <ele>22</ele>
        <time>2015-04-26T08:32:01Z</time>
      </trkpt>
      <trkpt lat="50.62785" lon="3.20675">
        <ele>23</ele>
        <time>2015-04-26T08:32:10Z</time>
      </trkpt>
      <trkpt lat="50.6278" lon="3.20681">
        <ele>23</ele>
        <time>2015-04-26T08:32:11Z</time>
      </trkpt>
      <trkpt lat="50.62771" lon="3.20693">
        <ele>23</ele>
        <time>2015-04-26T08:32:13Z</time>
      </trkpt>
      <trkpt lat="50.62767" lon="3.207">
        <ele>23</ele>
        <time>2015-04-26T08:32:14Z</time>
      </trkpt>
      <trkpt lat="50.62764" lon="3.20707">
        <ele>23</ele>
        <time>2015-04-26T08:32:15Z</time>
      </trkpt>
      <trkpt lat="50.62762" lon="3.20716">
        <ele>23</ele>
        <time>2015-04-26T08:32:16Z</time>
      </trkpt>
      <trkpt lat="50.62761" lon="3.20724">
        <ele>23</ele>
        <time>2015-04-26T08:32:17Z</time>
      </trkpt>
      <trkpt lat="50.6276" lon="3.20732">
        <ele>24</ele>
        <time>2015-04-26T08:32:18Z</time>
      </trkpt>
      <trkpt lat="50.62757" lon="3.20748">
        <ele>24</ele>
        <time>2015-04-26T08:32:20Z</time>
      </trkpt>
      <trkpt lat="50.6275" lon="3.20788">
        <ele>26</ele>
        <time>2015-04-26T08:32:25Z</time>
      </trkpt>
      <trkpt lat="50.62748" lon="3.20794">
        <ele>26</ele>
        <time>2015-04-26T08:32:26Z</time>
      </trkpt>
      <trkpt lat="50.62745" lon="3.208">
        <ele>26</ele>
        <time>2015-04-26T08:32:27Z</time>
      </trkpt>
      <trkpt lat="50.62741" lon="3.20804">
        <ele>26</ele>
        <time>2015-04-26T08:32:28Z</time>
      </trkpt>
      <trkpt lat="50.62736" lon="3.20806">
        <ele>26</ele>
        <time>2015-04-26T08:32:29Z</time>
      </trkpt>
      <trkpt lat="50.62731" lon="3.20806">
        <ele>26</ele>
        <time>2015-04-26T08:32:30Z</time>
      </trkpt>
      <trkpt lat="50.62726" lon="3.20808">
        <ele>26</ele>
        <time>2015-04-26T08:32:31Z</time>
      </trkpt>
      <trkpt lat="50.62722" lon="3.20812">
        <ele>26</ele>
        <time>2015-04-26T08:32:32Z</time>
      </trkpt>
      <trkpt lat="50.6272" lon="3.20818">
        <ele>26</ele>
        <time>2015-04-26T08:32:33Z</time>
      </trkpt>
      <trkpt lat="50.62719" lon="3.20826">
        <ele>26</ele>
        <time>2015-04-26T08:32:34Z</time>
      </trkpt>
      <trkpt lat="50.62718" lon="3.20834">
        <ele>27</ele>
        <time>2015-04-26T08:32:35Z</time>
      </trkpt>
      <trkpt lat="50.62717" lon="3.20843">
        <ele>27</ele>
        <time>2015-04-26T08:32:36Z</time>
      </trkpt>
      <trkpt lat="50.62712" lon="3.20909">
        <ele>27</ele>
        <time>2015-04-26T08:32:43Z</time>
      </trkpt>
      <trkpt lat="50.62706" lon="3.2098">
        <ele>26</ele>
        <time>2015-04-26T08:32:51Z</time>
      </trkpt>
      <trkpt lat="50.62704" lon="3.20988">
        <ele>26</ele>
        <time>2015-04-26T08:32:52Z</time>
      </trkpt>
      <trkpt lat="50.62702" lon="3.20997">
        <ele>26</ele>
        <time>2015-04-26T08:32:53Z</time>
      </trkpt>
      <trkpt lat="50.62699" lon="3.21005">
        <ele>25</ele>
        <time>2015-04-26T08:32:54Z</time>
      </trkpt>
      <trkpt lat="50.62696" lon="3.21013">
        <ele>25</ele>
        <time>2015-04-26T08:32:55Z</time>
      </trkpt>
      <trkpt lat="50.62693" lon="3.21021">
        <ele>25</ele>
        <time>2015-04-26T08:32:56Z</time>
      </trkpt>
      <trkpt lat="50.6268" lon="3.2105">
        <ele>24</ele>
        <time>2015-04-26T08:33:00Z</time>
      </trkpt>
      <trkpt lat="50.62663" lon="3.21097">
        <ele>24</ele>
        <time>2015-04-26T08:33:06Z</time>
      </trkpt>
      <trkpt lat="50.62657" lon="3.21112">
        <ele>23</ele>
        <time>2015-04-26T08:33:08Z</time>
      </trkpt>
      <trkpt lat="50.62654" lon="3.21118">
        <ele>23</ele>
        <time>2015-04-26T08:33:09Z</time>
      </trkpt>
      <trkpt lat="50.62652" lon="3.21125">
        <ele>23</ele>
        <time>2015-04-26T08:33:10Z</time>
      </trkpt>
      <trkpt lat="50.62651" lon="3.21132">
        <ele>23</ele>
        <time>2015-04-26T08:33:11Z</time>
      </trkpt>
      <trkpt lat="50.62652" lon="3.21138">
        <ele>23</ele>
        <time>2015-04-26T08:33:12Z</time>
      </trkpt>
      <trkpt lat="50.62655" lon="3.21144">
        <ele>22</ele>
        <time>2015-04-26T08:33:13Z</time>
      </trkpt>
      <trkpt lat="50.62659" lon="3.21147">
        <ele>22</ele>
        <time>2015-04-26T08:33:14Z</time>
      </trkpt>
      <trkpt lat="50.62662" lon="3.2115">
        <ele>22</ele>
        <time>2015-04-26T08:33:15Z</time>
      </trkpt>
      <trkpt lat="50.62669" lon="3.21156">
        <ele>21</ele>
        <time>2015-04-26T08:33:17Z</time>
      </trkpt>
      <trkpt lat="50.6268" lon="3.21169">
        <ele>21</ele>
        <time>2015-04-26T08:33:20Z</time>
      </trkpt>
      <trkpt lat="50.62694" lon="3.21179">
        <ele>21</ele>
        <time>2015-04-26T08:33:23Z</time>
      </trkpt>
      <trkpt lat="50.62699" lon="3.21183">
        <ele>21</ele>
        <time>2015-04-26T08:33:24Z</time>
      </trkpt>
      <trkpt lat="50.62708" lon="3.21192">
        <ele>21</ele>
        <time>2015-04-26T08:33:26Z</time>
      </trkpt>
      <trkpt lat="50.62741" lon="3.21215">
        <ele>21</ele>
        <time>2015-04-26T08:33:32Z</time>
      </trkpt>
      <trkpt lat="50.62746" lon="3.21219">
        <ele>21</ele>
        <time>2015-04-26T08:33:33Z</time>
      </trkpt>
      <trkpt lat="50.62784" lon="3.21248">
        <ele>21</ele>
        <time>2015-04-26T08:33:40Z</time>
      </trkpt>
      <trkpt lat="50.62789" lon="3.21253">
        <ele>21</ele>
        <time>2015-04-26T08:33:41Z</time>
      </trkpt>
      <trkpt lat="50.62795" lon="3.21257">
        <ele>21</ele>
        <time>2015-04-26T08:33:42Z</time>
      </trkpt>
      <trkpt lat="50.62832" lon="3.21284">
        <ele>21</ele>
        <time>2015-04-26T08:33:49Z</time>
      </trkpt>
      <trkpt lat="50.62869" lon="3.21313">
        <ele>22</ele>
        <time>2015-04-26T08:33:56Z</time>
      </trkpt>
      <trkpt lat="50.62911" lon="3.21347">
        <ele>23</ele>
        <time>2015-04-26T08:34:04Z</time>
      </trkpt>
      <trkpt lat="50.62939" lon="3.21366">
        <ele>23</ele>
        <time>2015-04-26T08:34:09Z</time>
      </trkpt>
      <trkpt lat="50.62944" lon="3.21371">
        <ele>23</ele>
        <time>2015-04-26T08:34:10Z</time>
      </trkpt>
      <trkpt lat="50.62949" lon="3.21375">
        <ele>23</ele>
        <time>2015-04-26T08:34:11Z</time>
      </trkpt>
      <trkpt lat="50.62965" lon="3.21389">
        <ele>23</ele>
        <time>2015-04-26T08:34:14Z</time>
      </trkpt>
      <trkpt lat="50.63012" lon="3.21424">
        <ele>23</ele>
        <time>2015-04-26T08:34:23Z</time>
      </trkpt>
      <trkpt lat="50.63022" lon="3.21433">
        <ele>23</ele>
        <time>2015-04-26T08:34:25Z</time>
      </trkpt>
      <trkpt lat="50.63026" lon="3.21438">
        <ele>23</ele>
        <time>2015-04-26T08:34:26Z</time>
      </trkpt>
      <trkpt lat="50.6303" lon="3.21445">
        <ele>23</ele>
        <time>2015-04-26T08:34:27Z</time>
      </trkpt>
      <trkpt lat="50.63033" lon="3.21452">
        <ele>23</ele>
        <time>2015-04-26T08:34:28Z</time>
      </trkpt>
      <trkpt lat="50.63036" lon="3.2146">
        <ele>23</ele>
        <time>2015-04-26T08:34:29Z</time>
      </trkpt>
      <trkpt lat="50.63039" lon="3.21467">
        <ele>23</ele>
        <time>2015-04-26T08:34:30Z</time>
      </trkpt>
      <trkpt lat="50.63061" lon="3.21524">
        <ele>24</ele>
        <time>2015-04-26T08:34:37Z</time>
      </trkpt>
      <trkpt lat="50.63064" lon="3.21532">
        <ele>24</ele>
        <time>2015-04-26T08:34:38Z</time>
      </trkpt>
      <trkpt lat="50.63068" lon="3.21539">
        <ele>24</ele>
        <time>2015-04-26T08:34:39Z</time>
      </trkpt>
      <trkpt lat="50.63073" lon="3.21546">
        <ele>24</ele>
        <time>2015-04-26T08:34:40Z</time>
      </trkpt>
      <trkpt lat="50.63077" lon="3.21552">
        <ele>24</ele>
        <time>2015-04-26T08:34:41Z</time>
      </trkpt>
      <trkpt lat="50.63082" lon="3.21557">
        <ele>24</ele>
        <time>2015-04-26T08:34:42Z</time>
      </trkpt>
      <trkpt lat="50.63101" lon="3.21583">
        <ele>25</ele>
        <time>2015-04-26T08:34:46Z</time>
      </trkpt>
      <trkpt lat="50.63105" lon="3.21591">
        <ele>25</ele>
        <time>2015-04-26T08:34:47Z</time>
      </trkpt>
      <trkpt lat="50.63135" lon="3.21663">
        <ele>25</ele>
        <time>2015-04-26T08:34:56Z</time>
      </trkpt>
      <trkpt lat="50.6316" lon="3.21724">
        <ele>26</ele>
        <time>2015-04-26T08:35:04Z</time>
      </trkpt>
      <trkpt lat="50.63181" lon="3.21773">
        <ele>27</ele>
        <time>2015-04-26T08:35:12Z</time>
      </trkpt>
      <trkpt lat="50.63186" lon="3.21782">
        <ele>27</ele>
        <time>2015-04-26T08:35:14Z</time>
      </trkpt>
      <trkpt lat="50.63189" lon="3.21788">
        <ele>27</ele>
        <time>2015-04-26T08:35:15Z</time>
      </trkpt>
      <trkpt lat="50.63196" lon="3.218">
        <ele>27</ele>
        <time>2015-04-26T08:35:17Z</time>
      </trkpt>
      <trkpt lat="50.63199" lon="3.21805">
        <ele>27</ele>
        <time>2015-04-26T08:35:18Z</time>
      </trkpt>
      <trkpt lat="50.63202" lon="3.2181">
        <ele>27</ele>
        <time>2015-04-26T08:35:19Z</time>
      </trkpt>
      <trkpt lat="50.63205" lon="3.21816">
        <ele>27</ele>
        <time>2015-04-26T08:35:20Z</time>
      </trkpt>
      <trkpt lat="50.63207" lon="3.21822">
        <ele>27</ele>
        <time>2015-04-26T08:35:21Z</time>
      </trkpt>
      <trkpt lat="50.63225" lon="3.21865">
        <ele>28</ele>
        <time>2015-04-26T08:35:29Z</time>
      </trkpt>
      <trkpt lat="50.63233" lon="3.21883">
        <ele>28</ele>
        <time>2015-04-26T08:35:32Z</time>
      </trkpt>
      <trkpt lat="50.63236" lon="3.21888">
        <ele>28</ele>
        <time>2015-04-26T08:35:33Z</time>
      </trkpt>
      <trkpt lat="50.63257" lon="3.21934">
        <ele>28</ele>
        <time>2015-04-26T08:35:41Z</time>
      </trkpt>
      <trkpt lat="50.63269" lon="3.21964">
        <ele>28</ele>
        <time>2015-04-26T08:35:46Z</time>
      </trkpt>
      <trkpt lat="50.63289" lon="3.2201">
        <ele>28</ele>
        <time>2015-04-26T08:35:54Z</time>
      </trkpt>
      <trkpt lat="50.63303" lon="3.22038">
        <ele>27</ele>
        <time>2015-04-26T08:35:59Z</time>
      </trkpt>
      <trkpt lat="50.63306" lon="3.22043">
        <ele>27</ele>
        <time>2015-04-26T08:36:00Z</time>
      </trkpt>
      <trkpt lat="50.63314" lon="3.22052">
        <ele>27</ele>
        <time>2015-04-26T08:36:02Z</time>
      </trkpt>
      <trkpt lat="50.63319" lon="3.22054">
        <ele>27</ele>
        <time>2015-04-26T08:36:03Z</time>
      </trkpt>
      <trkpt lat="50.63323" lon="3.22055">
        <ele>27</ele>
        <time>2015-04-26T08:36:04Z</time>
      </trkpt>
      <trkpt lat="50.63328" lon="3.22057">
        <ele>27</ele>
        <time>2015-04-26T08:36:05Z</time>
      </trkpt>
      <trkpt lat="50.63332" lon="3.22058">
        <ele>27</ele>
        <time>2015-04-26T08:36:06Z</time>
      </trkpt>
      <trkpt lat="50.63337" lon="3.22062">
        <ele>27</ele>
        <time>2015-04-26T08:36:07Z</time>
      </trkpt>
      <trkpt lat="50.63341" lon="3.22066">
        <ele>27</ele>
        <time>2015-04-26T08:36:08Z</time>
      </trkpt>
      <trkpt lat="50.63344" lon="3.22072">
        <ele>27</ele>
        <time>2015-04-26T08:36:09Z</time>
      </trkpt>
      <trkpt lat="50.63347" lon="3.22077">
        <ele>27</ele>
        <time>2015-04-26T08:36:10Z</time>
      </trkpt>
      <trkpt lat="50.6335" lon="3.22083">
        <ele>27</ele>
        <time>2015-04-26T08:36:11Z</time>
      </trkpt>
      <trkpt lat="50.63353" lon="3.22088">
        <ele>28</ele>
        <time>2015-04-26T08:36:12Z</time>
      </trkpt>
      <trkpt lat="50.63356" lon="3.22094">
        <ele>28</ele>
        <time>2015-04-26T08:36:13Z</time>
      </trkpt>
      <trkpt lat="50.6338" lon="3.22156">
        <ele>28</ele>
        <time>2015-04-26T08:36:23Z</time>
      </trkpt>
      <trkpt lat="50.63403" lon="3.22217">
        <ele>29</ele>
        <time>2015-04-26T08:36:33Z</time>
      </trkpt>
      <trkpt lat="50.63405" lon="3.22223">
        <ele>29</ele>
        <time>2015-04-26T08:36:34Z</time>
      </trkpt>
      <trkpt lat="50.63409" lon="3.22235">
        <ele>30</ele>
        <time>2015-04-26T08:36:36Z</time>
      </trkpt>
      <trkpt lat="50.63419" lon="3.22264">
        <ele>30</ele>
        <time>2015-04-26T08:36:41Z</time>
      </trkpt>
      <trkpt lat="50.63421" lon="3.22277">
        <ele>30</ele>
        <time>2015-04-26T08:36:43Z</time>
      </trkpt>
      <trkpt lat="50.63422" lon="3.22284">
        <ele>30</ele>
        <time>2015-04-26T08:36:44Z</time>
      </trkpt>
      <trkpt lat="50.6342" lon="3.2229">
        <ele>30</ele>
        <time>2015-04-26T08:36:45Z</time>
      </trkpt>
      <trkpt lat="50.63418" lon="3.22296">
        <ele>30</ele>
        <time>2015-04-26T08:36:46Z</time>
      </trkpt>
      <trkpt lat="50.63415" lon="3.22301">
        <ele>30</ele>
        <time>2015-04-26T08:36:47Z</time>
      </trkpt>
      <trkpt lat="50.63412" lon="3.22306">
        <ele>30</ele>
        <time>2015-04-26T08:36:48Z</time>
      </trkpt>
      <trkpt lat="50.63409" lon="3.2231">
        <ele>30</ele>
        <time>2015-04-26T08:36:49Z</time>
      </trkpt>
      <trkpt lat="50.6338" lon="3.22351">
        <ele>31</ele>
        <time>2015-04-26T08:36:57Z</time>
      </trkpt>
      <trkpt lat="50.63373" lon="3.22362">
        <ele>30</ele>
        <time>2015-04-26T08:36:59Z</time>
      </trkpt>
      <trkpt lat="50.63343" lon="3.22412">
        <ele>30</ele>
        <time>2015-04-26T08:37:08Z</time>
      </trkpt>
      <trkpt lat="50.63315" lon="3.22463">
        <ele>30</ele>
        <time>2015-04-26T08:37:17Z</time>
      </trkpt>
      <trkpt lat="50.63277" lon="3.22533">
        <ele>30</ele>
        <time>2015-04-26T08:37:29Z</time>
      </trkpt>
      <trkpt lat="50.63241" lon="3.22603">
        <ele>29</ele>
        <time>2015-04-26T08:37:41Z</time>
      </trkpt>
      <trkpt lat="50.63205" lon="3.22664">
        <ele>29</ele>
        <time>2015-04-26T08:37:52Z</time>
      </trkpt>
      <trkpt lat="50.63191" lon="3.22685">
        <ele>30</ele>
        <time>2015-04-26T08:37:56Z</time>
      </trkpt>
      <trkpt lat="50.63188" lon="3.22691">
        <ele>30</ele>
        <time>2015-04-26T08:37:57Z</time>
      </trkpt>
      <trkpt lat="50.63184" lon="3.22696">
        <ele>30</ele>
        <time>2015-04-26T08:37:58Z</time>
      </trkpt>
      <trkpt lat="50.63158" lon="3.22733">
        <ele>30</ele>
        <time>2015-04-26T08:38:05Z</time>
      </trkpt>
      <trkpt lat="50.63144" lon="3.22761">
        <ele>30</ele>
        <time>2015-04-26T08:38:11Z</time>
      </trkpt>
      <trkpt lat="50.63144" lon="3.22767">
        <ele>30</ele>
        <time>2015-04-26T08:38:12Z</time>
      </trkpt>
      <trkpt lat="50.63145" lon="3.22774">
        <ele>30</ele>
        <time>2015-04-26T08:38:13Z</time>
      </trkpt>
      <trkpt lat="50.63153" lon="3.22794">
        <ele>31</ele>
        <time>2015-04-26T08:38:16Z</time>
      </trkpt>
      <trkpt lat="50.6317" lon="3.22843">
        <ele>32</ele>
        <time>2015-04-26T08:38:23Z</time>
      </trkpt>
      <trkpt lat="50.6319" lon="3.22903">
        <ele>33</ele>
        <time>2015-04-26T08:38:31Z</time>
      </trkpt>
      <trkpt lat="50.63198" lon="3.22934">
        <ele>33</ele>
        <time>2015-04-26T08:38:35Z</time>
      </trkpt>
      <trkpt lat="50.63218" lon="3.23022">
        <ele>33</ele>
        <time>2015-04-26T08:38:46Z</time>
      </trkpt>
      <trkpt lat="50.63234" lon="3.23105">
        <ele>34</ele>
        <time>2015-04-26T08:38:56Z</time>
      </trkpt>
      <trkpt lat="50.63237" lon="3.23121">
        <ele>34</ele>
        <time>2015-04-26T08:38:58Z</time>
      </trkpt>
      <trkpt lat="50.63245" lon="3.23178">
        <ele>35</ele>
        <time>2015-04-26T08:39:05Z</time>
      </trkpt>
      <trkpt lat="50.63246" lon="3.23186">
        <ele>35</ele>
        <time>2015-04-26T08:39:06Z</time>
      </trkpt>
      <trkpt lat="50.63251" lon="3.23209">
        <ele>35</ele>
        <time>2015-04-26T08:39:09Z</time>
      </trkpt>
      <trkpt lat="50.63253" lon="3.23216">
        <ele>35</ele>
        <time>2015-04-26T08:39:10Z</time>
      </trkpt>
      <trkpt lat="50.63256" lon="3.23222">
        <ele>35</ele>
        <time>2015-04-26T08:39:11Z</time>
      </trkpt>
      <trkpt lat="50.63259" lon="3.23227">
        <ele>35</ele>
        <time>2015-04-26T08:39:12Z</time>
      </trkpt>
      <trkpt lat="50.63263" lon="3.23232">
        <ele>35</ele>
        <time>2015-04-26T08:39:13Z</time>
      </trkpt>
      <trkpt lat="50.63266" lon="3.23237">
        <ele>35</ele>
        <time>2015-04-26T08:39:14Z</time>
      </trkpt>
      <trkpt lat="50.63277" lon="3.23249">
        <ele>35</ele>
        <time>2015-04-26T08:39:17Z</time>
      </trkpt>
      <trkpt lat="50.6328" lon="3.23251">
        <ele>37</ele>
        <time>2015-04-26T08:39:18Z</time>
      </trkpt>
      <trkpt lat="50.63284" lon="3.2325">
        <ele>35</ele>
        <time>2015-04-26T08:39:19Z</time>
      </trkpt>
      <trkpt lat="50.63288" lon="3.23245">
        <ele>35</ele>
        <time>2015-04-26T08:39:20Z</time>
      </trkpt>
      <trkpt lat="50.63291" lon="3.23239">
        <ele>35</ele>
        <time>2015-04-26T08:39:21Z</time>
      </trkpt>
      <trkpt lat="50.63295" lon="3.23231">
        <ele>35</ele>
        <time>2015-04-26T08:39:22Z</time>
      </trkpt>
      <trkpt lat="50.63298" lon="3.23222">
        <ele>35</ele>
        <time>2015-04-26T08:39:23Z</time>
      </trkpt>
      <trkpt lat="50.63326" lon="3.23143">
        <ele>34</ele>
        <time>2015-04-26T08:39:32Z</time>
      </trkpt>
      <trkpt lat="50.63355" lon="3.23054">
        <ele>33</ele>
        <time>2015-04-26T08:39:42Z</time>
      </trkpt>
      <trkpt lat="50.63381" lon="3.2297">
        <ele>33</ele>
        <time>2015-04-26T08:39:51Z</time>
      </trkpt>
      <trkpt lat="50.6341" lon="3.22881">
        <ele>33</ele>
        <time>2015-04-26T08:40:00Z</time>
      </trkpt>
      <trkpt lat="50.63446" lon="3.22788">
        <ele>34</ele>
        <time>2015-04-26T08:40:10Z</time>
      </trkpt>
      <trkpt lat="50.63447" lon="3.22778">
        <ele>34</ele>
        <time>2015-04-26T08:40:11Z</time>
      </trkpt>
      <trkpt lat="50.63447" lon="3.22768">
        <ele>34</ele>
        <time>2015-04-26T08:40:12Z</time>
      </trkpt>
      <trkpt lat="50.63444" lon="3.22759">
        <ele>34</ele>
        <time>2015-04-26T08:40:13Z</time>
      </trkpt>
      <trkpt lat="50.6344" lon="3.2275">
        <ele>34</ele>
        <time>2015-04-26T08:40:14Z</time>
      </trkpt>
      <trkpt lat="50.63437" lon="3.22741">
        <ele>34</ele>
        <time>2015-04-26T08:40:15Z</time>
      </trkpt>
      <trkpt lat="50.6342" lon="3.22707">
        <ele>34</ele>
        <time>2015-04-26T08:40:19Z</time>
      </trkpt>
      <trkpt lat="50.63418" lon="3.22697">
        <ele>34</ele>
        <time>2015-04-26T08:40:20Z</time>
      </trkpt>
      <trkpt lat="50.63418" lon="3.22686">
        <ele>34</ele>
        <time>2015-04-26T08:40:21Z</time>
      </trkpt>
      <trkpt lat="50.6342" lon="3.22675">
        <ele>34</ele>
        <time>2015-04-26T08:40:22Z</time>
      </trkpt>
      <trkpt lat="50.63424" lon="3.22666">
        <ele>34</ele>
        <time>2015-04-26T08:40:23Z</time>
      </trkpt>
      <trkpt lat="50.63428" lon="3.22657">
        <ele>34</ele>
        <time>2015-04-26T08:40:24Z</time>
      </trkpt>
      <trkpt lat="50.63469" lon="3.22571">
        <ele>32</ele>
        <time>2015-04-26T08:40:34Z</time>
      </trkpt>
      <trkpt lat="50.63521" lon="3.22468">
        <ele>32</ele>
        <time>2015-04-26T08:40:46Z</time>
      </trkpt>
      <trkpt lat="50.63537" lon="3.22436">
        <ele>32</ele>
        <time>2015-04-26T08:40:50Z</time>
      </trkpt>
      <trkpt lat="50.63541" lon="3.2243">
        <ele>32</ele>
        <time>2015-04-26T08:40:51Z</time>
      </trkpt>
      <trkpt lat="50.63547" lon="3.22428">
        <ele>32</ele>
        <time>2015-04-26T08:40:52Z</time>
      </trkpt>
      <trkpt lat="50.63551" lon="3.22429">
        <ele>32</ele>
        <time>2015-04-26T08:40:53Z</time>
      </trkpt>
      <trkpt lat="50.63555" lon="3.22433">
        <ele>32</ele>
        <time>2015-04-26T08:40:54Z</time>
      </trkpt>
      <trkpt lat="50.63558" lon="3.22438">
        <ele>32</ele>
        <time>2015-04-26T08:40:55Z</time>
      </trkpt>
      <trkpt lat="50.63586" lon="3.22477">
        <ele>33</ele>
        <time>2015-04-26T08:41:02Z</time>
      </trkpt>
      <trkpt lat="50.63598" lon="3.22493">
        <ele>33</ele>
        <time>2015-04-26T08:41:05Z</time>
      </trkpt>
      <trkpt lat="50.63631" lon="3.22537">
        <ele>33</ele>
        <time>2015-04-26T08:41:14Z</time>
      </trkpt>
      <trkpt lat="50.63636" lon="3.22538">
        <ele>33</ele>
        <time>2015-04-26T08:41:15Z</time>
      </trkpt>
      <trkpt lat="50.63641" lon="3.22538">
        <ele>33</ele>
        <time>2015-04-26T08:41:16Z</time>
      </trkpt>
      <trkpt lat="50.63645" lon="3.22535">
        <ele>32</ele>
        <time>2015-04-26T08:41:17Z</time>
      </trkpt>
      <trkpt lat="50.6365" lon="3.2253">
        <ele>32</ele>
        <time>2015-04-26T08:41:18Z</time>
      </trkpt>
      <trkpt lat="50.63674" lon="3.2249">
        <ele>31</ele>
        <time>2015-04-26T08:41:24Z</time>
      </trkpt>
      <trkpt lat="50.63701" lon="3.22439">
        <ele>30</ele>
        <time>2015-04-26T08:41:31Z</time>
      </trkpt>
      <trkpt lat="50.63703" lon="3.22433">
        <ele>30</ele>
        <time>2015-04-26T08:41:32Z</time>
      </trkpt>
      <trkpt lat="50.63706" lon="3.22427">
        <ele>30</ele>
        <time>2015-04-26T08:41:33Z</time>
      </trkpt>
      <trkpt lat="50.63708" lon="3.22423">
        <ele>30</ele>
        <time>2015-04-26T08:41:34Z</time>
      </trkpt>
      <trkpt lat="50.63711" lon="3.22422">
        <ele>30</ele>
        <time>2015-04-26T08:41:35Z</time>
      </trkpt>
      <trkpt lat="50.63714" lon="3.22423">
        <ele>30</ele>
        <time>2015-04-26T08:41:36Z</time>
      </trkpt>
      <trkpt lat="50.63717" lon="3.22426">
        <ele>30</ele>
        <time>2015-04-26T08:41:37Z</time>
      </trkpt>
      <trkpt lat="50.63719" lon="3.22431">
        <ele>30</ele>
        <time>2015-04-26T08:41:38Z</time>
      </trkpt>
      <trkpt lat="50.63722" lon="3.22435">
        <ele>30</ele>
        <time>2015-04-26T08:41:39Z</time>
      </trkpt>
      <trkpt lat="50.63726" lon="3.22439">
        <ele>30</ele>
        <time>2015-04-26T08:41:40Z</time>
      </trkpt>
      <trkpt lat="50.63729" lon="3.22444">
        <ele>30</ele>
        <time>2015-04-26T08:41:41Z</time>
      </trkpt>
      <trkpt lat="50.63733" lon="3.2245">
        <ele>30</ele>
        <time>2015-04-26T08:41:42Z</time>
      </trkpt>
      <trkpt lat="50.63749" lon="3.2248">
        <ele>30</ele>
        <time>2015-04-26T08:41:47Z</time>
      </trkpt>
      <trkpt lat="50.63759" lon="3.22498">
        <ele>30</ele>
        <time>2015-04-26T08:41:50Z</time>
      </trkpt>
      <trkpt lat="50.63783" lon="3.22548">
        <ele>30</ele>
        <time>2015-04-26T08:41:58Z</time>
      </trkpt>
      <trkpt lat="50.63811" lon="3.22605">
        <ele>31</ele>
        <time>2015-04-26T08:42:08Z</time>
      </trkpt>
      <trkpt lat="50.63832" lon="3.22654">
        <ele>31</ele>
        <time>2015-04-26T08:42:16Z</time>
      </trkpt>
      <trkpt lat="50.63835" lon="3.2266">
        <ele>31</ele>
        <time>2015-04-26T08:42:17Z</time>
      </trkpt>
      <trkpt lat="50.63838" lon="3.22664">
        <ele>31</ele>
        <time>2015-04-26T08:42:18Z</time>
      </trkpt>
      <trkpt lat="50.63842" lon="3.22665">
        <ele>31</ele>
        <time>2015-04-26T08:42:19Z</time>
      </trkpt>
      <trkpt lat="50.63846" lon="3.22663">
        <ele>31</ele>
        <time>2015-04-26T08:42:20Z</time>
      </trkpt>
      <trkpt lat="50.63849" lon="3.2266">
        <ele>31</ele>
        <time>2015-04-26T08:42:21Z</time>
      </trkpt>
      <trkpt lat="50.63853" lon="3.22656">
        <ele>31</ele>
        <time>2015-04-26T08:42:22Z</time>
      </trkpt>
      <trkpt lat="50.63877" lon="3.22631">
        <ele>30</ele>
        <time>2015-04-26T08:42:28Z</time>
      </trkpt>
      <trkpt lat="50.63905" lon="3.22605">
        <ele>31</ele>
        <time>2015-04-26T08:42:34Z</time>
      </trkpt>
      <trkpt lat="50.63937" lon="3.22572">
        <ele>32</ele>
        <time>2015-04-26T08:42:42Z</time>
      </trkpt>
      <trkpt lat="50.63941" lon="3.22568">
        <ele>32</ele>
        <time>2015-04-26T08:42:43Z</time>
      </trkpt>
      <trkpt lat="50.63945" lon="3.22564">
        <ele>32</ele>
        <time>2015-04-26T08:42:44Z</time>
      </trkpt>
      <trkpt lat="50.63956" lon="3.22551">
        <ele>32</ele>
        <time>2015-04-26T08:42:47Z</time>
      </trkpt>
      <trkpt lat="50.63968" lon="3.22539">
        <ele>32</ele>
        <time>2015-04-26T08:42:50Z</time>
      </trkpt>
      <trkpt lat="50.63988" lon="3.22513">
        <ele>32</ele>
        <time>2015-04-26T08:42:56Z</time>
      </trkpt>
      <trkpt lat="50.64014" lon="3.22474">
        <ele>33</ele>
        <time>2015-04-26T08:43:04Z</time>
      </trkpt>
      <trkpt lat="50.64039" lon="3.22439">
        <ele>33</ele>
        <time>2015-04-26T08:43:11Z</time>
      </trkpt>
      <trkpt lat="50.64072" lon="3.22391">
        <ele>33</ele>
        <time>2015-04-26T08:43:20Z</time>
      </trkpt>
      <trkpt lat="50.6411" lon="3.22338">
        <ele>34</ele>
        <time>2015-04-26T08:43:30Z</time>
      </trkpt>
      <trkpt lat="50.64139" lon="3.22296">
        <ele>34</ele>
        <time>2015-04-26T08:43:38Z</time>
      </trkpt>
      <trkpt lat="50.64147" lon="3.22281">
        <ele>34</ele>
        <time>2015-04-26T08:43:41Z</time>
      </trkpt>
      <trkpt lat="50.64147" lon="3.22275">
        <ele>34</ele>
        <time>2015-04-26T08:43:42Z</time>
      </trkpt>
      <trkpt lat="50.64145" lon="3.22268">
        <ele>34</ele>
        <time>2015-04-26T08:43:43Z</time>
      </trkpt>
      <trkpt lat="50.64142" lon="3.22262">
        <ele>34</ele>
        <time>2015-04-26T08:43:44Z</time>
      </trkpt>
      <trkpt lat="50.64138" lon="3.22256">
        <ele>34</ele>
        <time>2015-04-26T08:43:45Z</time>
      </trkpt>
      <trkpt lat="50.64103" lon="3.22203">
        <ele>33</ele>
        <time>2015-04-26T08:43:53Z</time>
      </trkpt>
      <trkpt lat="50.64062" lon="3.22144">
        <ele>31</ele>
        <time>2015-04-26T08:44:01Z</time>
      </trkpt>
      <trkpt lat="50.64007" lon="3.22071">
        <ele>29</ele>
        <time>2015-04-26T08:44:11Z</time>
      </trkpt>
      <trkpt lat="50.63959" lon="3.22005">
        <ele>29</ele>
        <time>2015-04-26T08:44:20Z</time>
      </trkpt>
      <trkpt lat="50.63928" lon="3.21959">
        <ele>28</ele>
        <time>2015-04-26T08:44:27Z</time>
      </trkpt>
      <trkpt lat="50.63926" lon="3.21954">
        <ele>28</ele>
        <time>2015-04-26T08:44:28Z</time>
      </trkpt>
      <trkpt lat="50.63926" lon="3.21948">
        <ele>28</ele>
        <time>2015-04-26T08:44:29Z</time>
      </trkpt>
      <trkpt lat="50.63928" lon="3.21941">
        <ele>28</ele>
        <time>2015-04-26T08:44:30Z</time>
      </trkpt>
      <trkpt lat="50.6393" lon="3.21935">
        <ele>28</ele>
        <time>2015-04-26T08:44:31Z</time>
      </trkpt>
      <trkpt lat="50.63932" lon="3.21929">
        <ele>28</ele>
        <time>2015-04-26T08:44:32Z</time>
      </trkpt>
      <trkpt lat="50.63935" lon="3.21923">
        <ele>28</ele>
        <time>2015-04-26T08:44:33Z</time>
      </trkpt>
      <trkpt lat="50.63937" lon="3.21917">
        <ele>28</ele>
        <time>2015-04-26T08:44:34Z</time>
      </trkpt>
      <trkpt lat="50.63939" lon="3.2191">
        <ele>28</ele>
        <time>2015-04-26T08:44:35Z</time>
      </trkpt>
      <trkpt lat="50.6394" lon="3.21902">
        <ele>28</ele>
        <time>2015-04-26T08:44:36Z</time>
      </trkpt>
      <trkpt lat="50.63941" lon="3.21895">
        <ele>28</ele>
        <time>2015-04-26T08:44:37Z</time>
      </trkpt>
      <trkpt lat="50.63941" lon="3.21887">
        <ele>28</ele>
        <time>2015-04-26T08:44:38Z</time>
      </trkpt>
      <trkpt lat="50.63941" lon="3.21878">
        <ele>28</ele>
        <time>2015-04-26T08:44:39Z</time>
      </trkpt>
      <trkpt lat="50.6394" lon="3.21861">
        <ele>28</ele>
        <time>2015-04-26T08:44:41Z</time>
      </trkpt>
      <trkpt lat="50.6394" lon="3.21853">
        <ele>28</ele>
        <time>2015-04-26T08:44:42Z</time>
      </trkpt>
      <trkpt lat="50.6394" lon="3.21837">
        <ele>28</ele>
        <time>2015-04-26T08:44:44Z</time>
      </trkpt>
      <trkpt lat="50.63941" lon="3.2183">
        <ele>28</ele>
        <time>2015-04-26T08:44:45Z</time>
      </trkpt>
      <trkpt lat="50.63946" lon="3.21802">
        <ele>28</ele>
        <time>2015-04-26T08:44:49Z</time>
      </trkpt>
      <trkpt lat="50.63948" lon="3.21796">
        <ele>28</ele>
        <time>2015-04-26T08:44:50Z</time>
      </trkpt>
      <trkpt lat="50.63949" lon="3.21789">
        <ele>28</ele>
        <time>2015-04-26T08:44:51Z</time>
      </trkpt>
      <trkpt lat="50.63953" lon="3.21777">
        <ele>28</ele>
        <time>2015-04-26T08:44:53Z</time>
      </trkpt>
      <trkpt lat="50.63961" lon="3.21753">
        <ele>28</ele>
        <time>2015-04-26T08:44:57Z</time>
      </trkpt>
      <trkpt lat="50.63968" lon="3.21735">
        <ele>29</ele>
        <time>2015-04-26T08:45:00Z</time>
      </trkpt>
      <trkpt lat="50.6397" lon="3.2173">
        <ele>29</ele>
        <time>2015-04-26T08:45:01Z</time>
      </trkpt>
      <trkpt lat="50.6398" lon="3.2171">
        <ele>29</ele>
        <time>2015-04-26T08:45:05Z</time>
      </trkpt>
      <trkpt lat="50.63982" lon="3.21704">
        <ele>29</ele>
        <time>2015-04-26T08:45:06Z</time>
      </trkpt>
      <trkpt lat="50.63989" lon="3.21689">
        <ele>29</ele>
        <time>2015-04-26T08:45:09Z</time>
      </trkpt>
      <trkpt lat="50.64003" lon="3.21651">
        <ele>29</ele>
        <time>2015-04-26T08:45:16Z</time>
      </trkpt>
      <trkpt lat="50.64019" lon="3.216">
        <ele>30</ele>
        <time>2015-04-26T08:45:25Z</time>
      </trkpt>
      <trkpt lat="50.64034" lon="3.21562">
        <ele>30</ele>
        <time>2015-04-26T08:45:32Z</time>
      </trkpt>
      <trkpt lat="50.64051" lon="3.21522">
        <ele>30</ele>
        <time>2015-04-26T08:45:40Z</time>
      </trkpt>
      <trkpt lat="50.6406" lon="3.21496">
        <ele>29</ele>
        <time>2015-04-26T08:45:45Z</time>
      </trkpt>
      <trkpt lat="50.64062" lon="3.2149">
        <ele>29</ele>
        <time>2015-04-26T08:45:46Z</time>
      </trkpt>
      <trkpt lat="50.64068" lon="3.21464">
        <ele>29</ele>
        <time>2015-04-26T08:45:50Z</time>
      </trkpt>
      <trkpt lat="50.64068" lon="3.21457">
        <ele>29</ele>
        <time>2015-04-26T08:45:51Z</time>
      </trkpt>
      <trkpt lat="50.64073" lon="3.21408">
        <ele>29</ele>
        <time>2015-04-26T08:45:58Z</time>
      </trkpt>
      <trkpt lat="50.64076" lon="3.21349">
        <ele>29</ele>
        <time>2015-04-26T08:46:06Z</time>
      </trkpt>
      <trkpt lat="50.6408" lon="3.21293">
        <ele>29</ele>
        <time>2015-04-26T08:46:14Z</time>
      </trkpt>
      <trkpt lat="50.64085" lon="3.21225">
        <ele>30</ele>
        <time>2015-04-26T08:46:23Z</time>
      </trkpt>
      <trkpt lat="50.64086" lon="3.21218">
        <ele>30</ele>
        <time>2015-04-26T08:46:24Z</time>
      </trkpt>
      <trkpt lat="50.64088" lon="3.21203">
        <ele>30</ele>
        <time>2015-04-26T08:46:26Z</time>
      </trkpt>
      <trkpt lat="50.64091" lon="3.21165">
        <ele>31</ele>
        <time>2015-04-26T08:46:31Z</time>
      </trkpt>
      <trkpt lat="50.64093" lon="3.21159">
        <ele>31</ele>
        <time>2015-04-26T08:46:32Z</time>
      </trkpt>
      <trkpt lat="50.64096" lon="3.21152">
        <ele>31</ele>
        <time>2015-04-26T08:46:33Z</time>
      </trkpt>
      <trkpt lat="50.64105" lon="3.21135">
        <ele>30</ele>
        <time>2015-04-26T08:46:36Z</time>
      </trkpt>
      <trkpt lat="50.64134" lon="3.21087">
        <ele>30</ele>
        <time>2015-04-26T08:46:45Z</time>
      </trkpt>
      <trkpt lat="50.64136" lon="3.21081">
        <ele>30</ele>
        <time>2015-04-26T08:46:46Z</time>
      </trkpt>
      <trkpt lat="50.64137" lon="3.21074">
        <ele>30</ele>
        <time>2015-04-26T08:46:47Z</time>
      </trkpt>
      <trkpt lat="50.64135" lon="3.21067">
        <ele>30</ele>
        <time>2015-04-26T08:46:48Z</time>
      </trkpt>
      <trkpt lat="50.64132" lon="3.21062">
        <ele>30</ele>
        <time>2015-04-26T08:46:49Z</time>
      </trkpt>
      <trkpt lat="50.64129" lon="3.21056">
        <ele>30</ele>
        <time>2015-04-26T08:46:50Z</time>
      </trkpt>
      <trkpt lat="50.64125" lon="3.2105">
        <ele>30</ele>
        <time>2015-04-26T08:46:51Z</time>
      </trkpt>
      <trkpt lat="50.64121" lon="3.21045">
        <ele>30</ele>
        <time>2015-04-26T08:46:52Z</time>
      </trkpt>
      <trkpt lat="50.64116" lon="3.21039">
        <ele>30</ele>
        <time>2015-04-26T08:46:53Z</time>
      </trkpt>
      <trkpt lat="50.64112" lon="3.21033">
        <ele>30</ele>
        <time>2015-04-26T08:46:54Z</time>
      </trkpt>
      <trkpt lat="50.64082" lon="3.20992">
        <ele>30</ele>
        <time>2015-04-26T08:47:01Z</time>
      </trkpt>
      <trkpt lat="50.64051" lon="3.20952">
        <ele>29</ele>
        <time>2015-04-26T08:47:08Z</time>
      </trkpt>
      <trkpt lat="50.64047" lon="3.20945">
        <ele>29</ele>
        <time>2015-04-26T08:47:09Z</time>
      </trkpt>
      <trkpt lat="50.64045" lon="3.20937">
        <ele>29</ele>
        <time>2015-04-26T08:47:10Z</time>
      </trkpt>
      <trkpt lat="50.6404" lon="3.20919">
        <ele>29</ele>
        <time>2015-04-26T08:47:12Z</time>
      </trkpt>
      <trkpt lat="50.64037" lon="3.20911">
        <ele>29</ele>
        <time>2015-04-26T08:47:13Z</time>
      </trkpt>
      <trkpt lat="50.64032" lon="3.20904">
        <ele>29</ele>
        <time>2015-04-26T08:47:14Z</time>
      </trkpt>
      <trkpt lat="50.64027" lon="3.20898">
        <ele>29</ele>
        <time>2015-04-26T08:47:15Z</time>
      </trkpt>
      <trkpt lat="50.64021" lon="3.20894">
        <ele>29</ele>
        <time>2015-04-26T08:47:16Z</time>
      </trkpt>
      <trkpt lat="50.64015" lon="3.2089">
        <ele>29</ele>
        <time>2015-04-26T08:47:17Z</time>
      </trkpt>
      <trkpt lat="50.64009" lon="3.20888">
        <ele>29</ele>
        <time>2015-04-26T08:47:18Z</time>
      </trkpt>
      <trkpt lat="50.64003" lon="3.20886">
        <ele>29</ele>
        <time>2015-04-26T08:47:19Z</time>
      </trkpt>
      <trkpt lat="50.63997" lon="3.20885">
        <ele>28</ele>
        <time>2015-04-26T08:47:20Z</time>
      </trkpt>
      <trkpt lat="50.63991" lon="3.20882">
        <ele>28</ele>
        <time>2015-04-26T08:47:21Z</time>
      </trkpt>
      <trkpt lat="50.63986" lon="3.20879">
        <ele>28</ele>
        <time>2015-04-26T08:47:22Z</time>
      </trkpt>
      <trkpt lat="50.63981" lon="3.20876">
        <ele>28</ele>
        <time>2015-04-26T08:47:23Z</time>
      </trkpt>
      <trkpt lat="50.63976" lon="3.20874">
        <ele>28</ele>
        <time>2015-04-26T08:47:24Z</time>
      </trkpt>
      <trkpt lat="50.63971" lon="3.20871">
        <ele>28</ele>
        <time>2015-04-26T08:47:25Z</time>
      </trkpt>
      <trkpt lat="50.63967" lon="3.20869">
        <ele>28</ele>
        <time>2015-04-26T08:47:26Z</time>
      </trkpt>
      <trkpt lat="50.63964" lon="3.20866">
        <ele>28</ele>
        <time>2015-04-26T08:47:27Z</time>
      </trkpt>
      <trkpt lat="50.63963" lon="3.20863">
        <ele>28</ele>
        <time>2015-04-26T08:47:28Z</time>
      </trkpt>
      <trkpt lat="50.63962" lon="3.20858">
        <ele>28</ele>
        <time>2015-04-26T08:47:29Z</time>
      </trkpt>
      <trkpt lat="50.63962" lon="3.20852">
        <ele>28</ele>
        <time>2015-04-26T08:47:30Z</time>
      </trkpt>
      <trkpt lat="50.63962" lon="3.20847">
        <ele>28</ele>
        <time>2015-04-26T08:47:31Z</time>
      </trkpt>
      <trkpt lat="50.63963" lon="3.20841">
        <ele>28</ele>
        <time>2015-04-26T08:47:32Z</time>
      </trkpt>
      <trkpt lat="50.63962" lon="3.20803">
        <ele>28</ele>
        <time>2015-04-26T08:47:38Z</time>
      </trkpt>
      <trkpt lat="50.6396" lon="3.20783">
        <ele>28</ele>
        <time>2015-04-26T08:47:41Z</time>
      </trkpt>
      <trkpt lat="50.6396" lon="3.20776">
        <ele>28</ele>
        <time>2015-04-26T08:47:42Z</time>
      </trkpt>
      <trkpt lat="50.63959" lon="3.2077">
        <ele>28</ele>
        <time>2015-04-26T08:47:43Z</time>
      </trkpt>
      <trkpt lat="50.6396" lon="3.20762">
        <ele>28</ele>
        <time>2015-04-26T08:47:44Z</time>
      </trkpt>
      <trkpt lat="50.6396" lon="3.20755">
        <ele>28</ele>
        <time>2015-04-26T08:47:45Z</time>
      </trkpt>
      <trkpt lat="50.63961" lon="3.20747">
        <ele>27</ele>
        <time>2015-04-26T08:47:46Z</time>
      </trkpt>
      <trkpt lat="50.63962" lon="3.2074">
        <ele>27</ele>
        <time>2015-04-26T08:47:47Z</time>
      </trkpt>
      <trkpt lat="50.63964" lon="3.20733">
        <ele>27</ele>
        <time>2015-04-26T08:47:48Z</time>
      </trkpt>
      <trkpt lat="50.63966" lon="3.20726">
        <ele>27</ele>
        <time>2015-04-26T08:47:49Z</time>
      </trkpt>
      <trkpt lat="50.63967" lon="3.20719">
        <ele>27</ele>
        <time>2015-04-26T08:47:50Z</time>
      </trkpt>
      <trkpt lat="50.63969" lon="3.20712">
        <ele>27</ele>
        <time>2015-04-26T08:47:51Z</time>
      </trkpt>
      <trkpt lat="50.63973" lon="3.20698">
        <ele>27</ele>
        <time>2015-04-26T08:47:53Z</time>
      </trkpt>
      <trkpt lat="50.63985" lon="3.20675">
        <ele>27</ele>
        <time>2015-04-26T08:47:57Z</time>
      </trkpt>
      <trkpt lat="50.64014" lon="3.20622">
        <ele>26</ele>
        <time>2015-04-26T08:48:06Z</time>
      </trkpt>
      <trkpt lat="50.64018" lon="3.20617">
        <ele>26</ele>
        <time>2015-04-26T08:48:07Z</time>
      </trkpt>
      <trkpt lat="50.64022" lon="3.20613">
        <ele>26</ele>
        <time>2015-04-26T08:48:08Z</time>
      </trkpt>
      <trkpt lat="50.64027" lon="3.20612">
        <ele>26</ele>
        <time>2015-04-26T08:48:09Z</time>
      </trkpt>
      <trkpt lat="50.64032" lon="3.20613">
        <ele>26</ele>
        <time>2015-04-26T08:48:10Z</time>
      </trkpt>
      <trkpt lat="50.64037" lon="3.20615">
        <ele>26</ele>
        <time>2015-04-26T08:48:11Z</time>
      </trkpt>
      <trkpt lat="50.64041" lon="3.20618">
        <ele>26</ele>
        <time>2015-04-26T08:48:12Z</time>
      </trkpt>
      <trkpt lat="50.64051" lon="3.20623">
        <ele>26</ele>
        <time>2015-04-26T08:48:14Z</time>
      </trkpt>
      <trkpt lat="50.64055" lon="3.20625">
        <ele>26</ele>
        <time>2015-04-26T08:48:15Z</time>
      </trkpt>
      <trkpt lat="50.6406" lon="3.20625">
        <ele>27</ele>
        <time>2015-04-26T08:48:16Z</time>
      </trkpt>
      <trkpt lat="50.6407" lon="3.20625">
        <ele>26</ele>
        <time>2015-04-26T08:48:18Z</time>
      </trkpt>
      <trkpt lat="50.64074" lon="3.20623">
        <ele>26</ele>
        <time>2015-04-26T08:48:19Z</time>
      </trkpt>
      <trkpt lat="50.64079" lon="3.20621">
        <ele>26</ele>
        <time>2015-04-26T08:48:20Z</time>
      </trkpt>
      <trkpt lat="50.64083" lon="3.20619">
        <ele>26</ele>
        <time>2015-04-26T08:48:21Z</time>
      </trkpt>
      <trkpt lat="50.64088" lon="3.20617">
        <ele>26</ele>
        <time>2015-04-26T08:48:22Z</time>
      </trkpt>
      <trkpt lat="50.64092" lon="3.20615">
        <ele>26</ele>
        <time>2015-04-26T08:48:23Z</time>
      </trkpt>
      <trkpt lat="50.64097" lon="3.20612">
        <ele>26</ele>
        <time>2015-04-26T08:48:24Z</time>
      </trkpt>
      <trkpt lat="50.64101" lon="3.20609">
        <ele>26</ele>
        <time>2015-04-26T08:48:25Z</time>
      </trkpt>
      <trkpt lat="50.64105" lon="3.20607">
        <ele>26</ele>
        <time>2015-04-26T08:48:26Z</time>
      </trkpt>
      <trkpt lat="50.64109" lon="3.20605">
        <ele>26</ele>
        <time>2015-04-26T08:48:27Z</time>
      </trkpt>
      <trkpt lat="50.64113" lon="3.20604">
        <ele>26</ele>
        <time>2015-04-26T08:48:28Z</time>
      </trkpt>
      <trkpt lat="50.64117" lon="3.20603">
        <ele>26</ele>
        <time>2015-04-26T08:48:29Z</time>
      </trkpt>
      <trkpt lat="50.64121" lon="3.206">
        <ele>26</ele>
        <time>2015-04-26T08:48:30Z</time>
      </trkpt>
      <trkpt lat="50.64152" lon="3.20578">
        <ele>26</ele>
        <time>2015-04-26T08:48:38Z</time>
      </trkpt>
      <trkpt lat="50.64162" lon="3.20566">
        <ele>26</ele>
        <time>2015-04-26T08:48:41Z</time>
      </trkpt>
      <trkpt lat="50.64186" lon="3.20529">
        <ele>27</ele>
        <time>2015-04-26T08:48:49Z</time>
      </trkpt>
      <trkpt lat="50.64214" lon="3.20471">
        <ele>27</ele>
        <time>2015-04-26T08:48:59Z</time>
      </trkpt>
      <trkpt lat="50.64237" lon="3.2043">
        <ele>27</ele>
        <time>2015-04-26T08:49:07Z</time>
      </trkpt>
      <trkpt lat="50.64241" lon="3.20428">
        <ele>27</ele>
        <time>2015-04-26T08:49:08Z</time>
      </trkpt>
      <trkpt lat="50.64245" lon="3.20427">
        <ele>27</ele>
        <time>2015-04-26T08:49:09Z</time>
      </trkpt>
      <trkpt lat="50.6425" lon="3.20429">
        <ele>27</ele>
        <time>2015-04-26T08:49:10Z</time>
      </trkpt>
      <trkpt lat="50.64253" lon="3.20433">
        <ele>28</ele>
        <time>2015-04-26T08:49:11Z</time>
      </trkpt>
      <trkpt lat="50.64257" lon="3.20438">
        <ele>28</ele>
        <time>2015-04-26T08:49:12Z</time>
      </trkpt>
      <trkpt lat="50.6426" lon="3.20444">
        <ele>28</ele>
        <time>2015-04-26T08:49:13Z</time>
      </trkpt>
      <trkpt lat="50.64287" lon="3.20484">
        <ele>29</ele>
        <time>2015-04-26T08:49:21Z</time>
      </trkpt>
      <trkpt lat="50.64319" lon="3.2053">
        <ele>30</ele>
        <time>2015-04-26T08:49:31Z</time>
      </trkpt>
      <trkpt lat="50.64334" lon="3.20552">
        <ele>31</ele>
        <time>2015-04-26T08:49:38Z</time>
      </trkpt>
      <trkpt lat="50.64336" lon="3.20552">
        <ele>31</ele>
        <time>2015-04-26T08:49:39Z</time>
      </trkpt>
      <trkpt lat="50.64353" lon="3.20544">
        <ele>31</ele>
        <time>2015-04-26T08:49:45Z</time>
      </trkpt>
      <trkpt lat="50.64375" lon="3.20509">
        <ele>31</ele>
        <time>2015-04-26T08:49:52Z</time>
      </trkpt>
      <trkpt lat="50.644" lon="3.20452">
        <ele>30</ele>
        <time>2015-04-26T08:50:00Z</time>
      </trkpt>
      <trkpt lat="50.64424" lon="3.2038">
        <ele>28</ele>
        <time>2015-04-26T08:50:09Z</time>
      </trkpt>
      <trkpt lat="50.64434" lon="3.20349">
        <ele>28</ele>
        <time>2015-04-26T08:50:13Z</time>
      </trkpt>
      <trkpt lat="50.64437" lon="3.20343">
        <ele>28</ele>
        <time>2015-04-26T08:50:14Z</time>
      </trkpt>
      <trkpt lat="50.64452" lon="3.20315">
        <ele>27</ele>
        <time>2015-04-26T08:50:18Z</time>
      </trkpt>
      <trkpt lat="50.64465" lon="3.20297">
        <ele>27</ele>
        <time>2015-04-26T08:50:21Z</time>
      </trkpt>
      <trkpt lat="50.6447" lon="3.20292">
        <ele>27</ele>
        <time>2015-04-26T08:50:22Z</time>
      </trkpt>
      <trkpt lat="50.64475" lon="3.20287">
        <ele>27</ele>
        <time>2015-04-26T08:50:23Z</time>
      </trkpt>
      <trkpt lat="50.64519" lon="3.20254">
        <ele>28</ele>
        <time>2015-04-26T08:50:32Z</time>
      </trkpt>
      <trkpt lat="50.64546" lon="3.20231">
        <ele>29</ele>
        <time>2015-04-26T08:50:38Z</time>
      </trkpt>
      <trkpt lat="50.64549" lon="3.20225">
        <ele>29</ele>
        <time>2015-04-26T08:50:39Z</time>
      </trkpt>
      <trkpt lat="50.64553" lon="3.2022">
        <ele>29</ele>
        <time>2015-04-26T08:50:40Z</time>
      </trkpt>
      <trkpt lat="50.64558" lon="3.20206">
        <ele>29</ele>
        <time>2015-04-26T08:50:42Z</time>
      </trkpt>
      <trkpt lat="50.6456" lon="3.20199">
        <ele>29</ele>
        <time>2015-04-26T08:50:43Z</time>
      </trkpt>
      <trkpt lat="50.64561" lon="3.20191">
        <ele>29</ele>
        <time>2015-04-26T08:50:44Z</time>
      </trkpt>
      <trkpt lat="50.64562" lon="3.20183">
        <ele>29</ele>
        <time>2015-04-26T08:50:45Z</time>
      </trkpt>
      <trkpt lat="50.64562" lon="3.20175">
        <ele>29</ele>
        <time>2015-04-26T08:50:46Z</time>
      </trkpt>
      <trkpt lat="50.64562" lon="3.20166">
        <ele>29</ele>
        <time>2015-04-26T08:50:47Z</time>
      </trkpt>
      <trkpt lat="50.64562" lon="3.20158">
        <ele>29</ele>
        <time>2015-04-26T08:50:48Z</time>
      </trkpt>
      <trkpt lat="50.64561" lon="3.20149">
        <ele>29</ele>
        <time>2015-04-26T08:50:49Z</time>
      </trkpt>
      <trkpt lat="50.64556" lon="3.20062">
        <ele>29</ele>
        <time>2015-04-26T08:50:59Z</time>
      </trkpt>
      <trkpt lat="50.64558" lon="3.1998">
        <ele>28</ele>
        <time>2015-04-26T08:51:08Z</time>
      </trkpt>
      <trkpt lat="50.64564" lon="3.1991">
        <ele>27</ele>
        <time>2015-04-26T08:51:15Z</time>
      </trkpt>
      <trkpt lat="50.64571" lon="3.19859">
        <ele>27</ele>
        <time>2015-04-26T08:51:20Z</time>
      </trkpt>
      <trkpt lat="50.64574" lon="3.19849">
        <ele>27</ele>
        <time>2015-04-26T08:51:21Z</time>
      </trkpt>
      <trkpt lat="50.64592" lon="3.19755">
        <ele>27</ele>
        <time>2015-04-26T08:51:30Z</time>
      </trkpt>
      <trkpt lat="50.64605" lon="3.19692">
        <ele>27</ele>
        <time>2015-04-26T08:51:36Z</time>
      </trkpt>
      <trkpt lat="50.64605" lon="3.19681">
        <ele>27</ele>
        <time>2015-04-26T08:51:37Z</time>
      </trkpt>
      <trkpt lat="50.64606" lon="3.1967">
        <ele>27</ele>
        <time>2015-04-26T08:51:38Z</time>
      </trkpt>
      <trkpt lat="50.64604" lon="3.19639">
        <ele>26</ele>
        <time>2015-04-26T08:51:41Z</time>
      </trkpt>
      <trkpt lat="50.64602" lon="3.19629">
        <ele>26</ele>
        <time>2015-04-26T08:51:42Z</time>
      </trkpt>
      <trkpt lat="50.646" lon="3.19619">
        <ele>26</ele>
        <time>2015-04-26T08:51:43Z</time>
      </trkpt>
      <trkpt lat="50.64597" lon="3.19609">
        <ele>26</ele>
        <time>2015-04-26T08:51:44Z</time>
      </trkpt>
      <trkpt lat="50.64593" lon="3.19599">
        <ele>26</ele>
        <time>2015-04-26T08:51:45Z</time>
      </trkpt>
      <trkpt lat="50.6459" lon="3.19589">
        <ele>26</ele>
        <time>2015-04-26T08:51:46Z</time>
      </trkpt>
      <trkpt lat="50.64577" lon="3.19551">
        <ele>25</ele>
        <time>2015-04-26T08:51:50Z</time>
      </trkpt>
      <trkpt lat="50.64575" lon="3.19542">
        <ele>25</ele>
        <time>2015-04-26T08:51:51Z</time>
      </trkpt>
      <trkpt lat="50.64574" lon="3.19534">
        <ele>25</ele>
        <time>2015-04-26T08:51:52Z</time>
      </trkpt>
      <trkpt lat="50.64575" lon="3.19527">
        <ele>25</ele>
        <time>2015-04-26T08:51:53Z</time>
      </trkpt>
      <trkpt lat="50.64575" lon="3.19521">
        <ele>25</ele>
        <time>2015-04-26T08:51:54Z</time>
      </trkpt>
      <trkpt lat="50.64575" lon="3.19516">
        <ele>25</ele>
        <time>2015-04-26T08:51:55Z</time>
      </trkpt>
      <trkpt lat="50.64574" lon="3.19512">
        <ele>25</ele>
        <time>2015-04-26T08:51:56Z</time>
      </trkpt>
      <trkpt lat="50.64573" lon="3.19509">
        <ele>25</ele>
        <time>2015-04-26T08:51:57Z</time>
      </trkpt>
      <trkpt lat="50.64572" lon="3.19507">
        <ele>25</ele>
        <time>2015-04-26T08:51:58Z</time>
      </trkpt>
      <trkpt lat="50.64571" lon="3.19504">
        <ele>25</ele>
        <time>2015-04-26T08:51:59Z</time>
      </trkpt>
      <trkpt lat="50.6457" lon="3.19502">
        <ele>25</ele>
        <time>2015-04-26T08:52:00Z</time>
      </trkpt>
      <trkpt lat="50.64568" lon="3.19498">
        <ele>25</ele>
        <time>2015-04-26T08:52:01Z</time>
      </trkpt>
      <trkpt lat="50.64566" lon="3.19495">
        <ele>25</ele>
        <time>2015-04-26T08:52:02Z</time>
      </trkpt>
      <trkpt lat="50.64562" lon="3.19492">
        <ele>25</ele>
        <time>2015-04-26T08:52:03Z</time>
      </trkpt>
      <trkpt lat="50.64558" lon="3.1949">
        <ele>25</ele>
        <time>2015-04-26T08:52:04Z</time>
      </trkpt>
      <trkpt lat="50.64536" lon="3.19478">
        <ele>24</ele>
        <time>2015-04-26T08:52:08Z</time>
      </trkpt>
      <trkpt lat="50.64531" lon="3.19474">
        <ele>24</ele>
        <time>2015-04-26T08:52:09Z</time>
      </trkpt>
      <trkpt lat="50.6452" lon="3.19463">
        <ele>24</ele>
        <time>2015-04-26T08:52:11Z</time>
      </trkpt>
      <trkpt lat="50.64493" lon="3.19423">
        <ele>25</ele>
        <time>2015-04-26T08:52:17Z</time>
      </trkpt>
      <trkpt lat="50.64491" lon="3.19417">
        <ele>25</ele>
        <time>2015-04-26T08:52:18Z</time>
      </trkpt>
      <trkpt lat="50.64491" lon="3.1941">
        <ele>25</ele>
        <time>2015-04-26T08:52:19Z</time>
      </trkpt>
      <trkpt lat="50.64493" lon="3.19405">
        <ele>25</ele>
        <time>2015-04-26T08:52:20Z</time>
      </trkpt>
      <trkpt lat="50.64497" lon="3.19402">
        <ele>25</ele>
        <time>2015-04-26T08:52:21Z</time>
      </trkpt>
      <trkpt lat="50.64501" lon="3.194">
        <ele>25</ele>
        <time>2015-04-26T08:52:22Z</time>
      </trkpt>
      <trkpt lat="50.64531" lon="3.19387">
        <ele>25</ele>
        <time>2015-04-26T08:52:28Z</time>
      </trkpt>
      <trkpt lat="50.6457" lon="3.19365">
        <ele>25</ele>
        <time>2015-04-26T08:52:36Z</time>
      </trkpt>
      <trkpt lat="50.64612" lon="3.19344">
        <ele>24</ele>
        <time>2015-04-26T08:52:44Z</time>
      </trkpt>
      <trkpt lat="50.64656" lon="3.1932">
        <ele>24</ele>
        <time>2015-04-26T08:52:53Z</time>
      </trkpt>
      <trkpt lat="50.64679" lon="3.19303">
        <ele>25</ele>
        <time>2015-04-26T08:52:58Z</time>
      </trkpt>
      <trkpt lat="50.64682" lon="3.19297">
        <ele>25</ele>
        <time>2015-04-26T08:52:59Z</time>
      </trkpt>
      <trkpt lat="50.64684" lon="3.1929">
        <ele>25</ele>
        <time>2015-04-26T08:53:00Z</time>
      </trkpt>
      <trkpt lat="50.64685" lon="3.19283">
        <ele>25</ele>
        <time>2015-04-26T08:53:01Z</time>
      </trkpt>
      <trkpt lat="50.64686" lon="3.19275">
        <ele>25</ele>
        <time>2015-04-26T08:53:02Z</time>
      </trkpt>
      <trkpt lat="50.64694" lon="3.19212">
        <ele>25</ele>
        <time>2015-04-26T08:53:10Z</time>
      </trkpt>
      <trkpt lat="50.64702" lon="3.19154">
        <ele>25</ele>
        <time>2015-04-26T08:53:17Z</time>
      </trkpt>
      <trkpt lat="50.64705" lon="3.19137">
        <ele>25</ele>
        <time>2015-04-26T08:53:19Z</time>
      </trkpt>
      <trkpt lat="50.64708" lon="3.19111">
        <ele>25</ele>
        <time>2015-04-26T08:53:22Z</time>
      </trkpt>
      <trkpt lat="50.64709" lon="3.19103">
        <ele>25</ele>
        <time>2015-04-26T08:53:23Z</time>
      </trkpt>
      <trkpt lat="50.6471" lon="3.19094">
        <ele>25</ele>
        <time>2015-04-26T08:53:24Z</time>
      </trkpt>
      <trkpt lat="50.64713" lon="3.19078">
        <ele>24</ele>
        <time>2015-04-26T08:53:26Z</time>
      </trkpt>
      <trkpt lat="50.64716" lon="3.19042">
        <ele>24</ele>
        <time>2015-04-26T08:53:30Z</time>
      </trkpt>
      <trkpt lat="50.64716" lon="3.19034">
        <ele>24</ele>
        <time>2015-04-26T08:53:31Z</time>
      </trkpt>
      <trkpt lat="50.64716" lon="3.19026">
        <ele>24</ele>
        <time>2015-04-26T08:53:32Z</time>
      </trkpt>
      <trkpt lat="50.64716" lon="3.19019">
        <ele>24</ele>
        <time>2015-04-26T08:53:33Z</time>
      </trkpt>
      <trkpt lat="50.64717" lon="3.19013">
        <ele>24</ele>
        <time>2015-04-26T08:53:34Z</time>
      </trkpt>
      <trkpt lat="50.64719" lon="3.1901">
        <ele>24</ele>
        <time>2015-04-26T08:53:35Z</time>
      </trkpt>
      <trkpt lat="50.64722" lon="3.19008">
        <ele>24</ele>
        <time>2015-04-26T08:53:36Z</time>
      </trkpt>
      <trkpt lat="50.64725" lon="3.19008">
        <ele>24</ele>
        <time>2015-04-26T08:53:37Z</time>
      </trkpt>
      <trkpt lat="50.64728" lon="3.1901">
        <ele>24</ele>
        <time>2015-04-26T08:53:38Z</time>
      </trkpt>
      <trkpt lat="50.64751" lon="3.19017">
        <ele>25</ele>
        <time>2015-04-26T08:53:44Z</time>
      </trkpt>
      <trkpt lat="50.64756" lon="3.19022">
        <ele>25</ele>
        <time>2015-04-26T08:53:46Z</time>
      </trkpt>
      <trkpt lat="50.64756" lon="3.19025">
        <ele>25</ele>
        <time>2015-04-26T08:53:47Z</time>
      </trkpt>
      <trkpt lat="50.64755" lon="3.19028">
        <ele>25</ele>
        <time>2015-04-26T08:53:48Z</time>
      </trkpt>
      <trkpt lat="50.64755" lon="3.19031">
        <ele>25</ele>
        <time>2015-04-26T08:53:49Z</time>
      </trkpt>
      <trkpt lat="50.64755" lon="3.19034">
        <ele>25</ele>
        <time>2015-04-26T08:53:50Z</time>
      </trkpt>
      <trkpt lat="50.64756" lon="3.19036">
        <ele>25</ele>
        <time>2015-04-26T08:53:51Z</time>
      </trkpt>
      <trkpt lat="50.64757" lon="3.19035">
        <ele>25</ele>
        <time>2015-04-26T08:53:52Z</time>
      </trkpt>
      <trkpt lat="50.64757" lon="3.19033">
        <ele>25</ele>
        <time>2015-04-26T08:53:53Z</time>
      </trkpt>
      <trkpt lat="50.64758" lon="3.19029">
        <ele>25</ele>
        <time>2015-04-26T08:53:54Z</time>
      </trkpt>
      <trkpt lat="50.6476" lon="3.1902">
        <ele>25</ele>
        <time>2015-04-26T08:53:56Z</time>
      </trkpt>
      <trkpt lat="50.64761" lon="3.1902">
        <ele>25</ele>
        <time>2015-04-26T08:53:57Z</time>
      </trkpt>
      <trkpt lat="50.64762" lon="3.19022">
        <ele>25</ele>
        <time>2015-04-26T08:53:58Z</time>
      </trkpt>
      <trkpt lat="50.64762" lon="3.19025">
        <ele>25</ele>
        <time>2015-04-26T08:53:59Z</time>
      </trkpt>
      <trkpt lat="50.64762" lon="3.19028">
        <ele>25</ele>
        <time>2015-04-26T08:54:00Z</time>
      </trkpt>
      <trkpt lat="50.64762" lon="3.1903">
        <ele>25</ele>
        <time>2015-04-26T08:54:01Z</time>
      </trkpt>
      <trkpt lat="50.64763" lon="3.19041">
        <ele>25</ele>
        <time>2015-04-26T08:54:03Z</time>
      </trkpt>
      <trkpt lat="50.64765" lon="3.19046">
        <ele>25</ele>
        <time>2015-04-26T08:54:04Z</time>
      </trkpt>
      <trkpt lat="50.64768" lon="3.1905">
        <ele>25</ele>
        <time>2015-04-26T08:54:05Z</time>
      </trkpt>
      <trkpt lat="50.64771" lon="3.19053">
        <ele>26</ele>
        <time>2015-04-26T08:54:06Z</time>
      </trkpt>
      <trkpt lat="50.64774" lon="3.19056">
        <ele>26</ele>
        <time>2015-04-26T08:54:07Z</time>
      </trkpt>
      <trkpt lat="50.64778" lon="3.19058">
        <ele>26</ele>
        <time>2015-04-26T08:54:08Z</time>
      </trkpt>
      <trkpt lat="50.64817" lon="3.19081">
        <ele>27</ele>
        <time>2015-04-26T08:54:17Z</time>
      </trkpt>
      <trkpt lat="50.6484" lon="3.19095">
        <ele>29</ele>
        <time>2015-04-26T08:54:22Z</time>
      </trkpt>
      <trkpt lat="50.64845" lon="3.19097">
        <ele>29</ele>
        <time>2015-04-26T08:54:23Z</time>
      </trkpt>
      <trkpt lat="50.64849" lon="3.19099">
        <ele>29</ele>
        <time>2015-04-26T08:54:24Z</time>
      </trkpt>
      <trkpt lat="50.64853" lon="3.19102">
        <ele>29</ele>
        <time>2015-04-26T08:54:25Z</time>
      </trkpt>
      <trkpt lat="50.64857" lon="3.19104">
        <ele>29</ele>
        <time>2015-04-26T08:54:26Z</time>
      </trkpt>
      <trkpt lat="50.64877" lon="3.19116">
        <ele>30</ele>
        <time>2015-04-26T08:54:31Z</time>
      </trkpt>
      <trkpt lat="50.64889" lon="3.19123">
        <ele>30</ele>
        <time>2015-04-26T08:54:34Z</time>
      </trkpt>
      <trkpt lat="50.64922" lon="3.19144">
        <ele>32</ele>
        <time>2015-04-26T08:54:43Z</time>
      </trkpt>
      <trkpt lat="50.64941" lon="3.1916">
        <ele>32</ele>
        <time>2015-04-26T08:54:50Z</time>
      </trkpt>
    </trkseg>
  </trk>
</gpx>